[[{"header":{"parameterUnit":"m.s-1","parameterCategory":1,"la1":30.6,"la2":29.2853,"lo1":-89.7004,"lo2":-87.6739,"dy":0.0162,"dx":0.0183,"nx":112,"ny":82,"refTime":"2024-07-25T06:00:00:Z","depth":0,"parameterNumber":2,"parameterNumberName":"U-component_of_WINDS"},"data":[0.0,0.0,0.0,0.0,0.0,0.0,0.0,0.0,0.0,0.0,0.0,0.0,0.0,0.0,0.0,0.0,0.0,0.0,0.0,0.0,0.0,0.0,0.0,0.0,0.0,0.0,0.0,0.0,0.0,0.0,0.0,0.0,0.0,0.0,0.0,0.0,0.0,0.0,0.0,0.0,0.0,0.0,0.0,0.0,0.0,0.0,0.0,0.0,0.0,0.0,0.0,0.0,0.0,0.0,0.0,0.0,0.0,0.0,0.0,0.0,0.0,0.0,0.0,0.0,0.0,0.0,0.0,0.0,0.0,0.0,0.0,0.0,0.0,0.0,0.0,0.0,0.0,0.0,0.0,0.0,0.0,0.0,0.0,0.0,0.0,0.0,0.0,0.0,0.0,0.0,-0.9329,-1.1666,-1.4266,-1.586,-1.5906,-1.5336,-1.3788,-1.0989,0.0,0.0,0.0,0.0,0.0,0.0,0.0,0.0,0.0,0.0,0.0,0.0,0.0,0.0,0.0,0.0,0.0,0.0,0.0,0.0,0.0,0.0,0.0,0.0,0.0,0.0,0.0,0.0,0.0,0.0,0.0,0.0,0.0,0.0,0.0,0.0,0.0,0.0,0.0,0.0,0.0,0.0,0.0,0.0,0.0,0.0,0.0,0.0,0.0,0.0,0.0,0.0,0.0,0.0,0.0,0.0,0.0,0.0,0.0,0.0,0.0,0.0,0.0,0.0,0.0,0.0,0.0,0.0,0.0,0.0,0.0,0.0,0.0,0.0,0.0,0.0,0.0,0.0,0.0,0.0,0.0,0.0,0.0,0.0,0.0,0.0,0.0,0.0,0.0,0.0,0.0,0.0,0.0,0.0,0.0,0.0,0.0,0.0,0.0,0.0,0.0,0.0,0.0,0.0,-1.08,-1.4324,-1.6049,-1.6949,-1.6896,-1.5682,-1.4011,-1.1916,0.0,0.0,0.0,0.0,0.0,0.0,0.0,0.0,0.0,0.0,0.0,0.0,0.0,0.0,0.0,0.0,0.0,0.0,0.0,0.0,0.0,0.0,0.0,0.0,0.0,0.0,0.0,0.0,0.0,0.0,0.0,0.0,0.0,0.0,0.0,0.0,0.0,0.0,0.0,0.0,0.0,0.0,0.0,0.0,0.0,0.0,0.0,0.0,0.0,0.0,0.0,0.0,0.0,0.0,0.0,0.0,0.0,0.0,0.0,0.0,0.0,0.0,0.0,0.0,0.0,0.0,0.0,0.0,0.0,0.0,0.0,0.0,0.0,0.0,0.0,0.0,0.0,0.0,0.0,0.0,0.0,0.0,0.0,0.0,0.0,0.0,0.0,0.0,0.0,0.0,0.0,0.0,0.0,0.0,0.0,0.0,0.0,0.0,0.0,0.0,0.0,0.0,0.0,-1.0437,-1.2556,-1.5081,-1.6591,-1.7362,-1.722,-1.5808,-1.4165,-1.2323,-1.0597,0.0,0.0,0.0,0.0,0.0,0.0,0.0,0.0,0.0,0.0,0.0,0.0,0.0,0.0,0.0,0.0,0.0,0.0,0.0,0.0,0.0,0.0,0.0,0.0,0.0,0.0,0.0,0.0,0.0,0.0,0.0,0.0,0.0,0.0,0.0,0.0,0.0,0.0,0.0,0.0,0.0,0.0,0.0,0.0,0.0,0.0,0.0,0.0,0.0,0.0,0.0,0.0,0.0,0.0,0.0,0.0,0.0,0.0,0.0,0.0,0.0,0.0,0.0,0.0,0.0,0.0,0.0,0.0,0.0,0.0,0.0,0.0,0.0,0.0,0.0,0.0,0.0,0.0,0.0,0.0,0.0,0.0,0.0,0.0,0.0,0.0,0.0,0.0,0.0,0.0,0.0,0.0,0.0,0.0,0.0,0.0,0.0,0.0,0.0,0.0,0.0,0.0,-1.2532,-1.4056,-1.539,-1.6833,-1.7612,-1.7386,-1.5813,-1.4139,-1.2495,-1.0045,0.0,0.0,0.0,0.0,0.0,0.0,0.0,0.0,0.0,0.0,0.0,0.0,0.0,0.0,0.0,0.0,0.0,0.0,0.0,0.0,0.0,0.0,0.0,0.0,0.0,0.0,0.0,0.0,0.0,0.0,0.0,0.0,0.0,0.0,0.0,0.0,0.0,0.0,0.0,0.0,0.0,0.0,0.0,0.0,0.0,0.0,0.0,0.0,0.0,0.0,0.0,0.0,0.0,0.0,0.0,0.0,0.0,0.0,0.0,0.0,0.0,0.0,0.0,0.0,0.0,0.0,0.0,0.0,0.0,0.0,0.0,0.0,0.0,0.0,0.0,0.0,0.0,0.0,0.0,0.0,0.0,0.0,0.0,0.0,0.0,0.0,0.0,0.0,0.0,0.0,0.0,0.0,0.0,0.0,0.0,0.0,0.0,0.0,0.0,0.0,0.0,0.0,-1.325,-1.4934,-1.5862,-1.7173,-1.7871,-1.7601,-1.5593,-1.379,-1.2473,-0.9215,0.0,0.0,0.0,0.0,0.0,0.0,0.0,0.0,0.0,0.0,0.0,0.0,0.0,0.0,0.0,0.0,0.0,0.0,0.0,0.0,0.0,0.0,0.0,0.0,0.0,0.0,0.0,0.0,0.0,0.0,0.0,0.0,0.0,0.0,0.0,0.0,0.0,0.0,0.0,0.0,0.0,0.0,0.0,0.0,0.0,0.0,0.0,0.0,0.0,0.0,0.0,0.0,0.0,0.0,0.0,0.0,0.0,0.0,0.0,0.0,0.0,0.0,0.0,0.0,0.0,0.0,0.0,0.0,0.0,0.0,0.0,0.0,0.0,0.0,0.0,0.0,0.0,0.0,0.0,0.0,0.0,0.0,0.0,0.0,0.0,0.0,0.0,0.0,0.0,0.0,0.0,0.0,0.0,0.0,0.0,0.0,0.0,0.0,0.0,0.0,0.0,0.0,-1.3595,-1.5297,-1.6053,-1.7464,-1.8262,-1.7997,-1.6333,-1.4616,-1.3004,0.0,0.0,0.0,0.0,0.0,0.0,0.0,0.0,0.0,0.0,0.0,0.0,0.0,0.0,0.0,0.0,0.0,0.0,0.0,0.0,0.0,0.0,0.0,0.0,0.0,0.0,0.0,0.0,0.0,0.0,0.0,0.0,0.0,0.0,0.0,0.0,0.0,0.0,0.0,0.0,0.0,0.0,0.0,0.0,0.0,0.0,0.0,0.0,0.0,0.0,0.0,0.0,0.0,0.0,0.0,0.0,0.0,0.0,0.0,0.0,0.0,0.0,0.0,0.0,0.0,0.0,0.0,0.0,0.0,0.0,0.0,0.0,0.0,0.0,0.0,0.0,0.0,0.0,0.0,0.0,0.0,0.0,0.0,0.0,0.0,0.0,0.0,0.0,0.0,0.0,0.0,0.0,0.0,0.0,0.0,0.0,0.0,0.0,0.0,0.0,0.0,0.0,-1.1521,-1.4082,-1.5884,-1.632,-1.7781,-1.8525,-1.8021,-1.6561,-1.4891,-1.3032,0.0,0.0,0.0,0.0,0.0,0.0,0.0,0.0,0.0,0.0,0.0,0.0,0.0,0.0,0.0,0.0,0.0,0.0,0.0,0.0,0.0,0.0,0.0,0.0,0.0,0.0,0.0,0.0,0.0,0.0,0.0,0.0,0.0,0.0,0.0,0.0,0.0,0.0,0.0,0.0,0.0,0.0,0.0,0.0,0.0,0.0,0.0,0.0,0.0,0.0,0.0,0.0,0.0,0.0,0.0,0.0,0.0,0.0,0.0,0.0,0.0,0.0,0.0,0.0,0.0,0.0,0.0,0.0,0.0,0.0,0.0,0.0,0.0,0.0,0.0,0.0,0.0,0.0,0.0,0.0,0.0,0.0,0.0,0.0,0.0,0.0,0.0,0.0,0.0,0.0,0.0,0.0,0.0,0.0,0.0,0.0,0.0,0.0,0.0,0.0,0.0,0.0,-1.1794,-1.4806,-1.678,-1.6715,-1.8077,-1.8599,-1.7595,-1.6098,-1.4372,0.0,0.0,0.0,0.0,0.0,0.0,0.0,0.0,0.0,0.0,0.0,0.0,0.0,0.0,0.0,0.0,0.0,0.0,0.0,0.0,0.0,0.0,0.0,0.0,0.0,0.0,0.0,0.0,0.0,0.0,0.0,0.0,0.0,0.0,0.0,0.0,0.0,0.0,0.0,0.0,0.0,0.0,0.0,0.0,0.0,0.0,0.0,0.0,0.0,0.0,0.0,0.0,0.0,0.0,0.0,0.0,0.0,0.0,0.0,0.0,0.0,0.0,0.0,0.0,0.0,0.0,0.0,0.0,0.0,0.0,0.0,0.0,0.0,0.0,0.0,0.0,0.0,0.0,0.0,0.0,0.0,0.0,0.0,0.0,0.0,0.0,0.0,0.0,0.0,0.0,0.0,0.0,0.0,0.0,0.0,0.0,0.0,0.0,0.0,0.0,0.0,0.0,0.0,-1.1945,-1.5027,-1.7077,-1.7046,-1.8381,-1.8903,-1.8004,-1.6933,-1.5275,-1.2809,0.0,0.0,0.0,0.0,0.0,0.0,0.0,0.0,0.0,0.0,0.0,0.0,0.0,0.0,0.0,0.0,0.0,0.0,0.0,0.0,0.0,0.0,0.0,0.0,0.0,0.0,0.0,0.0,0.0,0.0,0.0,0.0,0.0,0.0,0.0,0.0,0.0,0.0,0.0,0.0,0.0,0.0,0.0,0.0,0.0,0.0,0.0,0.0,0.0,0.0,0.0,0.0,0.0,0.0,0.0,0.0,0.0,0.0,0.0,0.0,0.0,0.0,0.0,0.0,0.0,0.0,0.0,0.0,0.0,0.0,0.0,0.0,0.0,0.0,0.0,0.0,0.0,0.0,0.0,0.0,0.0,0.0,0.0,0.0,0.0,0.0,0.0,0.0,0.0,0.0,0.0,0.0,0.0,0.0,0.0,0.0,0.0,0.0,0.0,0.0,0.0,0.0,-1.208,-1.524,-1.7291,-1.7254,-1.8616,-1.9048,-1.7882,-1.7273,-1.5692,-1.2751,0.0,0.0,0.0,0.0,0.0,0.0,0.0,0.0,0.0,0.0,0.0,0.0,0.0,0.0,0.0,0.0,0.0,0.0,0.0,0.0,0.0,0.0,0.0,0.0,0.0,0.0,0.0,0.0,0.0,0.0,0.0,0.0,0.0,0.0,0.0,0.0,0.0,0.0,0.0,0.0,0.0,0.0,0.0,0.0,0.0,0.0,0.0,0.0,0.0,0.0,0.0,0.0,0.0,0.0,0.0,0.0,0.0,0.0,0.0,0.0,0.0,0.0,0.0,0.0,0.0,0.0,0.0,0.0,0.0,0.0,0.0,0.0,0.0,0.0,0.0,0.0,0.0,0.0,0.0,0.0,0.0,0.0,0.0,0.0,0.0,0.0,0.0,0.0,0.0,0.0,0.0,0.0,0.0,0.0,0.0,0.0,0.0,0.0,0.0,0.0,0.0,0.0,-1.2341,-1.5456,-1.75,-1.7444,-1.8822,-1.9077,-1.7466,-1.7248,-1.5806,-1.2533,0.0,0.0,0.0,0.0,0.0,0.0,0.0,0.0,0.0,0.0,0.0,0.0,0.0,0.0,0.0,0.0,0.0,0.0,0.0,0.0,0.0,0.0,0.0,0.0,0.0,0.0,0.0,0.0,0.0,0.0,0.0,0.0,0.0,0.0,0.0,0.0,0.0,0.0,0.0,0.0,0.0,0.0,0.0,0.0,0.0,0.0,0.0,0.0,0.0,0.0,0.0,0.0,0.0,0.0,0.0,0.0,0.0,0.0,0.0,0.0,-1.0973,-0.9728,0.0,0.0,0.0,0.0,0.0,0.0,0.0,0.0,0.0,0.0,0.0,0.0,0.0,0.0,0.0,0.0,0.0,0.0,0.0,0.0,0.0,0.0,0.0,0.0,0.0,0.0,0.0,0.0,0.0,0.0,0.0,0.0,0.0,0.0,0.0,0.0,0.0,0.0,0.0,0.0,-1.3362,-1.5966,-1.7895,-1.8487,-1.9383,-1.9257,-1.7605,-1.7354,-1.6149,-1.3469,-1.1898,0.0,0.0,0.0,0.0,0.0,0.0,0.0,0.0,0.0,0.0,0.0,0.0,0.0,0.0,0.0,0.0,0.0,0.0,0.0,0.0,0.0,0.0,0.0,0.0,0.0,0.0,0.0,0.0,0.0,0.0,0.0,0.0,0.0,0.0,0.0,0.0,0.0,0.0,0.0,0.0,0.0,0.0,0.0,0.0,0.0,0.0,0.0,0.0,0.0,0.0,0.0,0.0,0.0,0.0,0.0,0.0,0.0,0.0,0.0,-1.3891,-1.2496,0.0,0.0,0.0,0.0,0.0,0.0,0.0,0.0,0.0,0.0,0.0,0.0,0.0,0.0,0.0,0.0,0.0,0.0,0.0,0.0,0.0,0.0,0.0,0.0,0.0,0.0,0.0,0.0,0.0,0.0,0.0,0.0,0.0,0.0,0.0,0.0,0.0,0.0,0.0,0.0,-1.3726,-1.62,-1.8103,-1.8911,-1.9677,-1.9461,-1.773,-1.7532,-1.6413,-1.3892,-1.2938,0.0,0.0,0.0,0.0,0.0,0.0,0.0,0.0,0.0,0.0,0.0,0.0,0.0,0.0,0.0,0.0,0.0,0.0,0.0,0.0,0.0,0.0,0.0,0.0,0.0,0.0,0.0,0.0,0.0,0.0,0.0,0.0,0.0,0.0,0.0,0.0,0.0,0.0,0.0,0.0,0.0,0.0,0.0,0.0,0.0,0.0,0.0,0.0,0.0,0.0,0.0,0.0,0.0,-2.0097,-1.8811,-1.8327,-1.8327,-1.874,-1.9344,-1.7098,-1.5701,-1.4911,-1.3299,0.0,0.0,0.0,0.0,0.0,0.0,0.0,0.0,0.0,0.0,0.0,0.0,0.0,0.0,0.0,0.0,0.0,0.0,0.0,0.0,0.0,0.0,-1.6339,-1.6499,-1.6969,-1.7027,-1.5746,0.0,0.0,0.0,0.0,0.0,0.0,0.0,0.0,0.0,0.0,0.0,-1.4241,-1.6595,-1.8428,-1.9236,-1.9926,-1.9682,-1.8098,-1.7812,-1.6769,-1.4511,-1.4099,-1.2947,0.0,0.0,0.0,0.0,0.0,0.0,0.0,0.0,0.0,0.0,0.0,0.0,0.0,0.0,0.0,0.0,0.0,0.0,0.0,0.0,0.0,0.0,0.0,0.0,0.0,0.0,0.0,0.0,0.0,0.0,0.0,0.0,-0.8621,-0.8852,0.0,0.0,0.0,0.0,0.0,0.0,0.0,0.0,0.0,0.0,0.0,0.0,0.0,-1.3952,-1.8701,-1.9776,-2.04,-2.0627,-2.1636,-2.2072,-2.201,-2.201,-2.2072,-2.2173,-2.186,0.0,-1.6354,-1.5181,0.0,0.0,0.0,0.0,0.0,0.0,0.0,0.0,0.0,0.0,0.0,0.0,0.0,0.0,0.0,0.0,0.0,0.0,0.0,0.0,0.0,0.0,-2.0114,-2.0857,-2.0544,-2.0232,-2.076,-1.781,-1.4762,-1.3787,-1.3046,-1.1991,0.0,0.0,0.0,0.0,0.0,0.0,-1.6044,-1.7888,-1.9342,-2.0147,-2.032,-2.0009,-1.9072,-1.8302,-1.7404,-1.6302,-1.4816,-1.3828,-1.3483,-1.1402,0.0,0.0,0.0,0.0,0.0,0.0,0.0,0.0,0.0,0.0,0.0,0.0,0.0,0.0,0.0,0.0,0.0,0.0,0.0,0.0,0.0,0.0,0.0,0.0,0.0,0.0,0.0,0.0,0.0,-0.8251,-0.9878,-1.0005,-1.0694,-1.1086,0.0,0.0,0.0,0.0,0.0,0.0,0.0,0.0,0.0,-1.4803,-1.5175,-1.7905,-2.318,-2.3219,-2.3219,-2.3219,-2.2943,-2.3306,-2.4215,-2.4215,-2.4215,-2.4211,-2.4221,-2.3207,-2.1411,-1.9004,-1.653,-1.4054,0.0,0.0,0.0,0.0,-1.614,-1.7247,-1.8433,-1.8877,-1.8825,-1.8259,0.0,0.0,0.0,0.0,0.0,0.0,0.0,-1.8357,-1.9237,-2.039,-2.1542,-2.2421,-2.2304,-2.2109,-2.248,-2.1074,-1.9043,-1.6738,-1.6015,-1.4902,-1.2226,-1.2539,0.0,0.0,0.0,-1.5991,-1.7236,-1.8484,-1.9552,-2.0372,-2.0467,-2.0128,-1.9271,-1.8856,-1.8056,-1.6699,-1.5884,-1.5015,-1.4042,-1.2898,-1.1628,0.0,0.0,0.0,0.0,0.0,0.0,0.0,0.0,0.0,0.0,0.0,0.0,0.0,0.0,0.0,0.0,0.0,0.0,0.0,0.0,0.0,0.0,0.0,0.0,0.0,0.0,0.0,0.0,-0.9716,-1.133,-1.1424,-1.2413,-1.3025,0.0,0.0,0.0,0.0,0.0,0.0,-1.7425,-1.7701,-1.8495,-1.9965,-1.9383,-2.1146,-2.5511,-2.555,-2.555,-2.555,-2.4208,-2.4211,-2.5427,-2.5427,-2.5427,-2.5427,-2.5403,-2.5424,-2.5269,-2.2693,-2.087,-1.9447,-1.6891,-1.5915,-1.6157,-1.8043,-1.9294,-2.0221,-2.1583,-2.2089,-2.1969,-2.0879,-2.0401,-1.9861,-1.7714,0.0,0.0,0.0,0.0,-2.0214,-2.1289,-2.2051,-2.2754,-2.3633,-2.3809,-2.3769,-2.3769,-2.3594,-2.2559,-1.959,-1.9004,-1.7988,-1.4765,-1.5234,0.0,-1.4082,-1.5684,-1.7344,-1.8223,-1.9082,-1.9862,-2.0459,-2.0536,-2.0257,-1.9614,-1.9357,-1.8577,-1.7041,-1.6741,-1.5936,-1.4417,-1.4135,-1.3102,-1.1201,0.0,0.0,0.0,0.0,0.0,0.0,0.0,0.0,0.0,0.0,0.0,0.0,0.0,0.0,0.0,0.0,0.0,0.0,0.0,0.0,0.0,0.0,0.0,0.0,0.0,0.0,0.0,0.0,0.0,-1.3737,-1.5237,0.0,0.0,0.0,0.0,-1.6369,-1.7961,-1.9314,-2.0151,-2.0992,-2.2096,-2.3503,-2.3015,-2.3687,-2.5673,-2.5693,-2.5693,-2.5691,-2.5463,-2.541,-2.5488,-2.5488,-2.5488,-2.5503,-2.5636,-2.5683,-2.5661,-2.5368,-2.5194,-2.5097,-2.4923,-2.4897,-2.4832,-2.3821,-2.3538,-2.3581,-2.3174,-2.304,-2.3161,-2.3899,-2.3571,-2.2732,-2.1835,-2.1034,0.0,0.0,-2.1738,-2.2148,-2.3789,-2.4238,-2.4492,-2.537,-2.5566,-2.5566,-2.5566,-2.4922,-2.3809,-2.2051,-2.1699,-2.0859,-1.8203,0.0,-1.7559,-1.6641,-1.7324,-1.8242,-1.9121,-2.0,-2.0547,-2.0586,-2.0586,-2.0586,-2.0527,-1.9765,-1.8905,-1.7988,-1.7158,-1.6288,-1.5369,-1.4477,-1.3941,-1.3805,-1.1423,0.0,0.0,0.0,0.0,0.0,0.0,0.0,0.0,0.0,0.0,0.0,0.0,0.0,0.0,0.0,0.0,0.0,0.0,0.0,0.0,0.0,0.0,0.0,0.0,0.0,0.0,0.0,0.0,-1.6338,-1.7944,0.0,-1.8577,-1.8838,-1.9234,-1.9802,-2.0471,-2.1489,-2.2897,-2.3222,-2.3875,-2.4992,-2.4805,-2.499,-2.5699,-2.5699,-2.5704,-2.5695,-2.5641,-2.5632,-2.5632,-2.5632,-2.5632,-2.5634,-2.5681,-2.5683,-2.5636,-2.5572,-2.5569,-2.5568,-2.5568,-2.5571,-2.5547,-2.5171,-2.5049,-2.5035,-2.484,-2.4762,-2.4724,-2.4472,-2.3847,-2.3203,-2.3437,-2.3281,-2.3223,-2.4101,-2.4354,-2.4471,-2.5076,-2.5232,-2.5311,-2.5623,-2.5702,-2.5702,-2.5702,-2.5467,-2.5057,-2.4452,-2.3437,-2.2031,-2.0019,-2.0566,-2.0801,-1.9414,-2.043,-2.1445,-2.1719,-2.1562,-2.1445,-2.1445,-2.0937,-2.0605,-2.0605,-2.0312,-1.9531,-1.8086,-1.7714,-1.6892,-1.5466,-1.5074,-1.4389,-1.3315,-1.24,-1.1112,0.0,0.0,0.0,0.0,0.0,0.0,0.0,0.0,0.0,0.0,0.0,0.0,0.0,0.0,0.0,0.0,0.0,0.0,0.0,0.0,0.0,0.0,0.0,0.0,0.0,-1.5511,-1.7687,-1.8595,-2.0255,-2.1202,-2.0931,-2.1422,-2.199,-2.2576,-2.2928,-2.3612,-2.4785,-2.4802,-2.5053,-2.5677,-2.5657,-2.5653,-2.5699,-2.5694,-2.5699,-2.5701,-2.5701,-2.5702,-2.5703,-2.5702,-2.5701,-2.5701,-2.5702,-2.5664,-2.5622,-2.5638,-2.5632,-2.562,-2.5614,-2.5607,-2.5602,-2.5676,-2.5703,-2.5703,-2.5703,-2.5703,-2.5605,-2.5039,-2.4472,-2.414,-2.4687,-2.4842,-2.4959,-2.5544,-2.57,-2.57,-2.5699,-2.5699,-2.57,-2.5699,-2.5699,-2.57,-2.57,-2.57,-2.57,-2.57,-2.4764,-2.3535,-2.2128,-2.2793,-2.3066,-2.164,-2.2422,-2.3144,-2.3105,-2.2637,-2.2305,-2.2344,-2.1562,-2.1035,-2.1035,-2.0762,-1.998,-1.8535,-1.8164,-1.7344,-1.5898,-1.5273,-1.4434,-1.332,-1.3047,-1.1895,-0.9883,0.0,0.0,0.0,0.0,0.0,0.0,0.0,0.0,0.0,0.0,0.0,0.0,0.0,0.0,0.0,0.0,0.0,0.0,0.0,0.0,0.0,0.0,0.0,-1.652,-1.8125,-1.9646,-2.0518,-2.2148,-2.2867,-2.2084,-2.3487,-2.4441,-2.4437,-2.5218,-2.5707,-2.5707,-2.5707,-2.5695,-2.5703,-2.5696,-2.5703,-2.5705,-2.5703,-2.5707,-2.5707,-2.5707,-2.5696,-2.5703,-2.5695,-2.5707,-2.5708,-2.5694,-2.5696,-2.5696,-2.5699,-2.57,-2.5682,-2.5637,-2.5602,-2.5601,-2.5686,-2.5699,-2.5703,-2.5703,-2.5703,-2.5703,-2.5703,-2.5702,-2.5702,-2.57,-2.57,-2.57,-2.57,-2.57,-2.5699,-2.5695,-2.5697,-2.5699,-2.5694,-2.5697,-2.57,-2.57,-2.57,-2.57,-2.57,-2.57,-2.5426,-2.4586,-2.443,-2.4157,-2.3319,-2.3183,0.0,-2.3184,-2.3164,-2.3164,-2.3223,-2.2461,-2.1934,-2.1894,-2.1133,-2.0254,-1.9316,-1.8477,-1.7617,-1.6738,-1.5078,-1.418,-1.4141,-1.332,-1.248,-1.1641,0.0,0.0,0.0,0.0,0.0,0.0,0.0,0.0,0.0,0.0,0.0,0.0,0.0,0.0,0.0,0.0,0.0,0.0,0.0,0.0,0.0,-1.7108,-1.8534,-1.8508,-2.0546,-2.2343,-2.3221,-2.4311,-2.4894,-2.4675,-2.5065,-2.5337,-2.5336,-2.5551,-2.5707,-2.5707,-2.5707,-2.571,-2.5695,-2.569,-2.5694,-2.5703,-2.5695,-2.5707,-2.5707,-2.5707,-2.569,-2.5695,-2.571,-2.571,-2.5694,-2.5696,-2.5696,-2.5695,-2.5699,-2.5698,-2.5694,-2.5683,-2.5664,-2.5664,-2.5684,-2.5703,-2.5702,-2.5702,-2.5702,-2.5701,-2.5701,-2.5701,-2.57,-2.5697,-2.5696,-2.5695,-2.5693,-2.5692,-2.5691,-2.5709,-2.569,-2.5691,-2.5709,-2.569,-2.5692,-2.5692,-2.5692,-2.5692,-2.5692,-2.5692,-2.5615,-2.5387,-2.5349,-2.5251,-2.5017,-2.4997,-2.4998,-2.4998,-2.4432,-2.4041,-2.4062,-2.3281,-2.2539,-2.1953,-2.168,-2.0625,-1.8496,-1.8125,-1.7617,-1.6738,-1.623,-1.5684,-1.5059,-1.3633,-1.2773,0.0,0.0,0.0,0.0,0.0,0.0,0.0,0.0,0.0,0.0,0.0,0.0,0.0,0.0,0.0,0.0,0.0,0.0,0.0,0.0,0.0,0.0,-1.9764,-2.1012,-2.1385,-2.2712,-2.3979,-2.4834,-2.5399,-2.5708,-2.5702,-2.5705,-2.5705,-2.5701,-2.5705,-2.5707,-2.5707,-2.6156,-2.6409,-2.6409,-2.6663,-2.678,-2.678,-2.6058,-2.5707,-2.5707,-2.5707,-2.5707,-2.5707,-2.5707,-2.5709,-2.5693,-2.5693,-2.5692,-2.5691,-2.5695,-2.5693,-2.5708,0.0,0.0,0.0,0.0,-2.57,-2.57,-2.57,-2.57,-2.57,-2.5698,-2.5698,-2.5697,-2.5693,-2.5691,-2.569,-2.5708,-2.5707,-2.5707,-2.5707,-2.5707,-2.5707,-2.5707,-2.5707,-2.5707,-2.5707,-2.5707,-2.5707,-2.5707,-2.5707,0.0,-2.5695,-2.5696,-2.5696,-2.5698,-2.5698,-2.5698,-2.57,-2.525,-2.4938,-2.494,-2.4158,-2.3456,-2.2988,-2.2304,0.0,0.0,0.0,-1.7831,-1.621,-1.6152,0.0,0.0,0.0,0.0,0.0,0.0,0.0,0.0,-1.3343,-1.3132,0.0,0.0,0.0,0.0,0.0,0.0,0.0,0.0,0.0,0.0,0.0,0.0,0.0,0.0,0.0,0.0,-2.222,-2.3544,-2.4423,-2.4559,-2.4832,-2.5614,-2.5708,-2.5702,-2.569,-2.5699,-2.5741,-2.5849,-2.5858,-2.5883,-2.6,-2.6955,0.0,0.0,0.0,-2.8323,-2.8381,-2.6859,-2.6058,-2.6,-2.6,-2.6019,-2.6078,-2.6078,-2.6058,-2.6,-2.6,-2.6,-2.6,-2.6,-2.5941,-2.5845,-2.5736,-2.5698,-2.5696,-2.5698,-2.5699,-2.5699,-2.5699,0.0,0.0,-2.5694,-2.5693,-2.5692,-2.5708,-2.5707,-2.5707,-2.5707,-2.5707,-2.5707,-2.5707,-2.5707,-2.5707,-2.5707,-2.5707,-2.5707,-2.5707,-2.5707,-2.5707,-2.5707,-2.5707,-2.5707,-2.5707,-2.5707,-2.5708,-2.5693,-2.5693,-2.5695,-2.5699,-2.5699,-2.5699,-2.57,-2.5016,0.0,-2.4411,-2.3043,-2.2066,-2.1774,-2.0211,-1.8258,-1.5934,-1.5836,-1.5835,-1.5835,-1.5716,-1.6391,-1.789,-1.7887,-1.7907,-1.7886,-1.5524,-1.524,0.0,0.0,0.0,0.0,0.0,0.0,0.0,0.0,0.0,0.0,0.0,0.0,0.0,0.0,0.0,-2.2317,-2.3483,-2.4458,-2.5337,-2.5447,-2.5519,-2.5676,-2.5694,-2.5693,-2.571,-2.5692,-2.599,-2.67,-2.6741,-2.7055,-2.7756,-2.801,-2.8126,-2.8126,-2.8244,-2.8518,-2.8947,-2.8615,-2.8225,-2.7795,-2.7795,0.0,-2.844,-2.844,-2.8205,-2.7795,-2.7795,-2.7795,-2.7795,-2.7795,-2.7386,-2.6684,-2.5964,-2.571,-2.5709,-2.569,-2.569,-2.569,-2.569,-2.569,-2.569,-2.5709,-2.5708,-2.5708,-2.5707,-2.5707,0.0,-2.5707,-2.5707,-2.5707,-2.5707,-2.5707,-2.5707,-2.5707,-2.5707,-2.5707,-2.5707,-2.5707,-2.5707,-2.5707,-2.5707,-2.5707,-2.5707,-2.5707,-2.5707,-2.5708,-2.5708,-2.569,-2.5694,-2.5693,-2.5694,-2.57,-2.5541,-2.5169,-2.4469,-2.4098,-2.3043,-2.0973,-1.9879,-1.9078,-1.857,-1.8481,-1.8472,-1.8472,-1.7725,-1.7506,-1.7824,-1.7829,-1.8169,-1.8825,-1.7619,-1.7239,0.0,0.0,0.0,0.0,0.0,0.0,0.0,0.0,0.0,0.0,0.0,-1.8516,-2.0234,0.0,-2.2413,-2.4128,-2.477,-2.5197,-2.5641,-2.5699,-2.5697,-2.569,-2.571,-2.5686,-2.5657,-2.6073,-2.6529,-2.6966,-2.7376,-2.7808,-2.8263,-2.8713,-2.8947,-2.8947,-2.9338,-2.9689,-2.9943,-2.9552,-2.9221,-2.8947,-2.8518,-2.844,-2.8693,-2.8693,-2.8557,-2.8303,-2.8303,-2.8303,-2.8303,-2.8303,-2.8049,-2.76,-2.7171,-2.6468,-2.5805,-2.6683,-2.6722,-2.6411,-2.6859,-2.6995,-2.6995,-2.6995,-2.6995,-2.6995,-2.6995,-2.6995,-2.6917,-2.6469,-2.6352,-2.6254,-2.5805,-2.5707,-2.5707,-2.5707,-2.5707,-2.5707,-2.5707,-2.5707,-2.5707,-2.5707,-2.5707,-2.5707,-2.5707,-2.5707,-2.5707,-2.5707,-2.5707,-2.5708,-2.569,-2.5708,-2.5709,-2.5694,-2.5693,-2.5516,-2.5089,-2.4659,-2.3484,-2.1347,-2.0798,-2.0149,-1.9237,-1.9163,-1.9153,-1.9153,-1.8699,-1.8651,-1.9048,-1.9043,-1.9278,-1.9701,-1.968,-1.9436,0.0,0.0,0.0,0.0,0.0,0.0,0.0,-1.7183,-1.7947,-1.9685,-2.0176,-2.0914,-2.2966,-2.3489,-2.407,-2.5473,-2.5705,-2.5702,-2.5694,-2.5697,-2.5698,-2.569,-2.571,-2.5743,-2.5862,-2.6532,-2.7126,-2.7486,-2.8088,-2.8541,-2.877,-2.9455,-2.9827,-2.9827,-3.047,-3.08,-3.08,-3.0157,-2.9827,-2.9827,-2.9123,-2.8791,-2.8791,-2.8791,-2.8791,-2.8791,-2.8791,-2.8791,-2.8791,-2.8791,-2.8693,-2.8576,-2.8713,-2.7737,-2.6371,-2.7776,-2.7854,-2.7348,-2.8069,-2.8303,-2.8303,-2.8303,-2.8303,-2.8303,-2.8303,-2.8303,-2.8127,-2.725,-2.6996,-2.6801,-2.5922,-2.5707,-2.5707,-2.5707,-2.5707,-2.5707,-2.5707,-2.5707,-2.5707,-2.5707,-2.5707,-2.5707,-2.5707,-2.5707,-2.5707,-2.5707,-2.5707,-2.5707,-2.5708,-2.5707,-2.5707,-2.5708,-2.5707,-2.5707,-2.5707,-2.4882,-2.3779,-2.2371,-2.2107,-2.1364,-1.99,-1.985,-1.9844,-1.9844,-1.966,-1.9962,-2.0785,-2.063,-2.0618,-2.0788,-2.1446,-2.1312,-1.3618,-1.4501,-1.562,-1.7187,-1.7129,-1.7656,0.0,-2.115,-2.0642,-2.2322,-2.3296,-2.3917,-2.419,-2.489,-2.5473,-2.5668,-2.5699,-2.5696,-2.5704,-2.5647,-2.5634,-2.5689,-2.571,-2.6001,-2.6778,-2.688,-2.7589,-2.9199,-2.9343,-2.9692,-3.0488,-3.0605,-3.0664,-3.0664,-3.0742,-3.08,-3.08,-3.0703,-3.0664,-3.0664,-3.0566,-3.0527,-3.0527,-3.0527,-3.0527,-3.0527,-3.0527,-3.0527,-3.0527,-3.0527,-3.0099,-2.9534,-3.0235,-2.9493,-2.803,-2.8225,-2.8244,-2.8166,-2.8264,-2.8303,-2.8303,-2.8303,-2.8303,-2.8303,-2.8303,-2.8303,-2.8127,-2.725,-2.6996,-2.6801,-2.5922,-2.5707,-2.5707,-2.5707,-2.5707,-2.5707,-2.5707,-2.5707,-2.5707,-2.5707,-2.5707,-2.5707,-2.5707,-2.5707,-2.5707,-2.5707,-2.5707,-2.5708,-2.5693,-2.571,-2.5709,-2.5693,-2.5709,-2.5707,-2.5707,-2.4847,-2.4222,-2.4023,-2.3237,-2.2696,-2.2475,-2.2466,-2.2474,-2.2474,-2.166,-2.1659,-2.2521,-2.1747,-2.1763,-2.2528,-2.2605,-2.2197,-1.7363,-1.8516,-1.9238,-1.9451,-2.0349,-2.1521,-2.2809,-2.2944,-2.3158,-2.4352,-2.4894,-2.5163,-2.5166,-2.5451,-2.5698,-2.5698,-2.5693,-2.5689,-2.5645,-2.5648,-2.5671,-2.571,-2.5697,-2.5835,-2.6217,-2.7105,-2.7989,-2.877,-2.9715,-3.0414,-3.0781,-3.08,-3.08,-3.08,-3.08,-3.08,-3.08,-3.08,-3.08,-3.08,-3.08,-3.08,-3.08,-3.08,-3.08,-3.08,-3.08,-3.08,-3.08,-3.08,-3.0606,-3.0333,-3.0664,-3.0371,-2.9746,-2.9746,-2.9455,-2.9123,-2.9591,-2.9746,-2.9746,-2.9746,-2.9746,-2.9746,-2.9746,-2.9746,-2.9572,-2.8753,-2.8148,-2.7561,-2.6684,-2.6078,-2.5707,-2.5707,-2.5707,-2.5707,-2.5707,-2.5707,-2.5707,-2.5707,-2.5707,-2.5707,-2.5707,-2.5707,-2.5707,-2.5707,-2.5707,-2.5708,-2.571,-2.5708,-2.5708,-2.571,-2.5708,-2.5707,-2.5707,-2.5291,-2.4832,-2.4338,-2.3908,-2.342,-2.2852,-2.2844,-2.2844,-2.2844,-2.2468,-2.2451,-2.2797,-2.2427,-2.2447,-2.2816,-2.3317,-2.3355,-1.9782,-2.1031,-2.1771,-2.1381,-2.2865,-2.4291,-2.3919,-2.4307,-2.4931,-2.558,-2.5693,-2.5708,-2.5691,-2.5701,-2.5692,-2.5694,-2.5884,-2.5935,-2.5676,-2.5888,-2.5974,-2.5735,-2.5703,-2.5704,-2.5696,-2.7015,-2.8093,-2.8614,-2.9773,-3.0551,-3.0781,-3.08,-3.08,-3.08,-3.08,-3.08,-3.08,-3.08,-3.08,-3.08,-3.08,-3.08,-3.08,-3.08,-3.08,-3.08,-3.08,-3.08,-3.08,-3.08,-3.08,-3.08,-3.08,-3.08,-3.08,-3.08,-3.0431,-3.0001,-3.0606,-3.08,-3.08,-3.08,-3.08,-3.08,-3.08,-3.08,-3.0626,-2.9827,-2.9138,-2.8427,-2.757,-2.6859,-2.6307,-2.6083,-2.6027,-2.5971,-2.5744,-2.5707,-2.5707,-2.5707,-2.5707,-2.5707,-2.5707,-2.5707,-2.5707,-2.5707,-2.5707,-2.5707,-2.5707,-2.5707,-2.5707,-2.5707,-2.5707,-2.5684,-2.5679,-2.5607,-2.5309,-2.4648,-2.4536,-2.4191,-2.3528,-2.3485,-2.3485,-2.3485,-2.3278,-2.3278,-2.3485,-2.3278,-2.3278,-2.3505,-2.4144,-2.4432,-1.9523,-2.0555,-2.1995,-2.2818,-2.3716,-2.4613,-2.5434,-2.5648,-2.5668,-2.5687,-2.5707,-2.5707,-2.5707,-2.5698,-2.5694,-2.5705,-2.6349,-2.6593,-2.58,-2.6438,-2.6649,-2.5802,-2.5707,-2.5707,-2.5707,-2.6512,-2.774,-2.9435,-2.9557,-2.9905,-3.0742,-3.08,-3.08,-3.08,-3.08,-3.08,-3.08,-3.08,-3.08,-3.08,-3.08,-3.08,-3.08,-3.08,-3.08,-3.08,-3.08,-3.08,-3.08,-3.08,-3.08,-3.08,-3.08,-3.08,-3.08,-3.08,-3.0781,-3.0761,-3.0781,-3.08,-3.08,-3.08,-3.08,-3.08,-3.08,-3.08,-3.0626,-2.9827,-2.9531,-2.9262,-2.8381,-2.8107,-2.7822,-2.7045,-2.6862,-2.664,-2.5877,-2.5707,-2.5707,-2.5707,-2.5707,-2.5707,-2.5707,-2.5707,-2.5707,-2.5707,-2.5707,-2.5707,-2.5707,-2.5707,-2.5707,-2.5707,-2.5707,-2.5677,-2.5605,-2.5539,-2.5457,-2.536,-2.5311,-2.525,-2.5231,-2.5231,-2.5231,-2.5231,-2.4452,-2.4432,-2.5231,-2.4432,-2.4471,-2.5231,-2.525,-2.5269,-2.1319,-2.2518,-2.3449,-2.3696,-2.4445,-2.5223,-2.5566,-2.5636,-2.5647,-2.5684,-2.5707,-2.5707,-2.5707,-2.5698,-2.5692,-2.5696,-2.6409,-2.685,-2.6536,-2.7243,-2.7483,-2.6667,-2.7039,-2.7142,-2.6605,-2.6836,-2.7479,-2.8654,-2.9256,-2.9938,-3.0761,-3.08,-3.08,-3.08,-3.08,-3.08,-3.08,-3.08,-3.08,-3.08,-3.08,-3.08,-3.08,-3.08,-3.08,-3.08,-3.08,-3.08,-3.08,-3.08,-3.08,-3.08,-3.08,-3.08,-3.08,-3.08,-3.08,-3.08,-3.08,-3.08,-3.08,-3.08,-3.08,-3.08,-3.08,-3.08,-3.0739,-3.0425,-2.9959,-2.9468,-2.9046,-2.8581,-2.8149,-2.7838,-2.7351,-2.6887,-2.6623,-2.6117,-2.5707,-2.5707,-2.5707,-2.5707,-2.5707,-2.5707,-2.5707,-2.5707,-2.5707,-2.5707,-2.5707,-2.5707,-2.5707,-2.5707,-2.5707,-2.5677,-2.5603,-2.5537,-2.5473,-2.5395,-2.5345,-2.5308,-2.5308,-2.5308,-2.5308,-2.5308,-2.5019,-2.5019,-2.5308,-2.5019,-2.5038,-2.5308,-2.5308,-2.5308,-2.282,-2.3751,-2.4264,-2.4539,-2.5071,-2.5551,-2.5585,-2.5595,-2.5531,-2.5281,-2.5249,-2.5135,-2.4823,-2.4777,-2.487,-2.5187,-2.6238,-2.6971,-2.6936,-2.7948,-2.8385,-2.7539,-2.7914,-2.802,-2.7503,-2.7465,-2.7836,-2.8693,-2.928,-2.9944,-3.0761,-3.08,-3.08,-3.08,-3.08,-3.08,-3.08,-3.08,-3.08,-3.08,-3.08,-3.08,-3.08,-3.08,-3.08,-3.08,-3.08,-3.08,-3.08,-3.08,-3.08,-3.08,-3.08,-3.08,-3.08,-3.08,-3.08,-3.08,-3.08,-3.08,-3.08,-3.08,-3.08,-3.0799,-3.077,-3.0774,-3.0773,-3.0682,-3.0314,-2.9929,-2.976,-2.9389,-2.8963,-2.8631,-2.817,-2.7667,-2.7095,-2.6541,-2.6078,-2.5765,-2.5707,-2.5707,-2.5707,-2.5707,-2.5707,-2.5707,-2.5707,-2.5707,-2.5707,-2.5707,-2.5707,-2.5707,-2.568,-2.5642,-2.5561,-2.5504,-2.5432,-2.537,-2.5322,-2.5308,-2.5308,-2.5308,-2.5308,-2.5308,-2.5308,-2.5308,-2.5308,-2.5308,-2.5308,-2.5308,-2.5308,-2.5308,-2.3876,-2.4167,-2.4464,-2.5293,-2.5547,-2.5593,-2.5595,-2.5559,-2.5305,-2.4491,-2.429,-2.4009,-2.3132,-2.3032,-2.3366,-2.4199,-2.5832,-2.7014,-2.7067,-2.8527,-2.9255,-2.8361,-2.8352,-2.8418,-2.838,-2.8399,-2.877,-2.9591,-2.9612,-2.9944,-3.0761,-3.08,-3.08,-3.08,-3.08,-3.08,-3.08,-3.08,-3.08,-3.08,-3.08,-3.08,-3.08,-3.08,-3.08,-3.08,-3.08,-3.08,-3.08,-3.08,-3.08,-3.08,-3.08,-3.08,-3.08,-3.08,-3.08,-3.08,-3.08,-3.08,-3.08,-3.08,-3.08,-3.0796,-3.0722,-3.0737,-3.0767,-3.063,-3.0593,-3.0575,-3.0519,-3.0441,-3.0219,-2.9443,-2.928,-2.8871,-2.7296,-2.6973,-2.6741,-2.5863,-2.5707,-2.5707,-2.5707,-2.5707,-2.5707,-2.5707,-2.5706,-2.5706,-2.5707,-2.5706,-2.5685,-2.5685,-2.5621,-2.5578,-2.5501,-2.5436,-2.5374,-2.5293,-2.5308,-2.5308,-2.5308,-2.5308,-2.5308,-2.5308,-2.5308,-2.5308,-2.5308,-2.5308,-2.5308,-2.5308,-2.5308,-2.5308,-2.3801,-2.4507,-2.5074,-2.5356,-2.543,-2.5466,-2.552,-2.5052,-2.4409,-2.3593,-2.2911,-2.2195,-2.1311,-2.2228,-2.3166,-2.3398,-2.5431,-2.7204,-2.7811,-2.884,-2.9435,-2.9196,-2.9753,-2.9909,-2.926,-2.9788,-3.0258,-3.0474,-2.9938,-2.9944,-3.0761,-3.08,-3.08,-3.08,-3.08,-3.08,-3.08,-3.08,-3.08,-3.08,-3.08,-3.08,-3.08,-3.08,-3.08,-3.08,-3.08,-3.08,-3.08,-3.08,-3.08,-3.08,-3.08,-3.08,-3.08,-3.08,-3.08,-3.08,-3.08,-3.08,-3.08,-3.08,-3.08,-3.0796,-3.0722,-3.0717,-3.0706,-3.0568,-3.0568,-3.0564,-3.0465,-3.0496,-3.0481,-3.0239,-2.973,-2.9046,-2.8075,-2.7377,-2.6674,-2.5859,-2.5707,-2.5707,-2.5707,-2.5707,-2.5707,-2.5707,-2.5651,-2.5645,-2.5685,-2.5651,-2.5636,-2.5636,-2.5578,-2.5501,-2.5429,-2.5403,-2.5374,-2.5293,-2.5308,-2.5308,-2.5308,-2.5308,-2.5308,-2.5308,-2.5308,-2.5308,-2.5308,-2.5308,-2.5308,-2.5308,-2.5308,-2.5308,-2.4346,-2.4947,-2.536,-2.5436,-2.5461,-2.5304,-2.4571,-2.4042,-2.3181,-2.1214,-2.0726,-2.0172,-1.8553,-2.0291,-2.1973,-2.2,-2.4499,-2.6835,-2.8032,-2.8955,-2.9642,-3.0022,-3.0496,-3.0611,-3.0117,-3.0519,-3.0954,-3.1344,-3.0599,-3.0313,-3.0781,-3.08,-3.08,-3.08,-3.08,-3.08,-3.08,-3.08,-3.08,-3.08,-3.1192,-3.1368,-3.1387,-3.1776,-3.1932,-3.1932,-3.1932,-3.1718,-3.1368,-3.1368,-3.1153,-3.08,-3.08,-3.08,-3.08,-3.08,-3.08,-3.08,-3.08,-3.08,-3.08,-3.08,-3.0773,-3.0735,-3.0669,-3.0653,-3.0626,-3.0492,-3.0537,-3.0576,-3.0428,-3.0496,-3.0575,-3.0524,-3.0211,-2.9691,-2.8902,-2.8398,-2.7737,-2.6505,-2.6274,-2.6156,-2.5765,-2.5707,-2.5707,-2.5707,-2.5644,-2.5609,-2.5648,-2.56,-2.5549,-2.5549,-2.5498,-2.5439,-2.5395,-2.5374,-2.535,-2.5308,-2.5308,-2.5308,-2.5308,-2.5308,-2.5308,-2.5308,-2.5308,-2.5308,-2.5308,-2.5308,-2.5308,-2.5308,-2.5308,-2.5308,-2.5095,-2.5361,-2.5427,-2.5495,-2.5567,-2.5135,-2.3409,-2.2826,-2.1736,-1.8414,-1.8238,-1.7983,-1.5659,-1.8021,-2.039,-2.0568,-2.3373,-2.6154,-2.7945,-2.8844,-2.9694,-3.0687,-3.0796,-3.0796,-3.0801,-3.0802,-3.1106,-3.187,-3.1339,-3.1015,-3.1132,-3.1152,-3.1152,-3.1152,-3.1152,-3.1152,-3.1152,-3.1152,-3.1152,-3.1152,-3.1914,-3.2265,-3.2304,-3.3064,-3.3396,-3.3396,-3.3396,-3.2968,-3.2265,-3.2265,-3.1758,-3.0976,-3.0976,-3.0898,-3.08,-3.08,-3.08,-3.08,-3.08,-3.08,-3.08,-3.0796,-3.0758,-3.0699,-3.0607,-3.0586,-3.0564,-3.0455,-3.0506,-3.0564,-3.0465,-3.0519,-3.0598,-3.0542,-3.0597,-3.0446,-2.9591,-2.9414,-2.8987,-2.7465,-2.7074,-2.6762,-2.6,-2.5785,-2.5706,-2.5683,-2.5637,-2.557,-2.5563,-2.5524,-2.5489,-2.5489,-2.5425,-2.5394,-2.5394,-2.5336,-2.5308,-2.5308,-2.5308,-2.5308,-2.5308,-2.5308,-2.5308,-2.5308,-2.5308,-2.5308,-2.5308,-2.5308,-2.5308,-2.5308,-2.5308,-2.5308,-2.5317,-2.5382,-2.544,-2.5544,-2.5595,-2.5135,-2.3409,-2.193,0.0,-1.7387,-1.642,-1.5696,-1.4541,-1.7115,-1.9674,-2.0408,-2.2824,-2.5451,-2.7866,-2.833,-2.9014,-3.0609,-3.0742,-3.0737,-3.0799,-3.0804,-3.0856,-3.1012,-3.1555,-3.2187,-3.2908,-3.2947,-3.2947,-3.2947,-3.2947,-3.2947,-3.2947,-3.2947,-3.2947,-3.2947,-3.3103,-3.3162,-3.3182,-3.3338,-3.3396,-3.3396,-3.3396,-3.3318,-3.3162,-3.3162,-3.2656,-3.1875,-3.1875,-3.1426,-3.08,-3.08,-3.08,-3.08,-3.08,-3.08,-3.0798,-3.0732,-3.0715,-3.0672,-3.0556,-3.056,-3.0575,-3.0506,-3.0539,-3.059,-3.056,-3.0575,-3.0593,-3.0598,-3.0597,-3.0396,-2.9584,-2.8945,-2.844,-2.8127,-2.7484,-2.6957,-2.6801,-2.6175,-2.5681,-2.5636,-2.5554,-2.5498,-2.5439,-2.5421,-2.5414,-2.5414,-2.5352,-2.5313,-2.5313,-2.5317,-2.5308,-2.5308,-2.5308,-2.5308,-2.5308,-2.5308,-2.5308,-2.5308,-2.5308,-2.5308,-2.5308,-2.5308,-2.5308,-2.5308,-2.5308,-2.5308,-2.536,-2.5432,-2.548,-2.5583,-2.5601,-2.4902,-2.2296,0.0,0.0,-1.5349,-1.4315,-1.3783,-1.2909,-1.5532,-1.8144,-1.9042,-2.1352,-2.3938,-2.65,-2.7238,-2.8164,-2.9924,-3.0464,-3.0704,-3.0739,-3.0786,-3.1159,-3.2032,-3.2526,-3.2753,-3.2734,-3.3143,-3.3396,-3.3396,-3.3396,-3.3396,-3.3396,-3.3396,-3.3396,-3.3416,-3.3866,-3.4081,-3.4081,-3.4548,-3.4743,-3.4743,-3.4743,-3.4509,-3.4081,-3.4081,-3.3554,-3.2734,-3.2285,-3.1836,-3.1426,-3.0976,-3.08,-3.08,-3.08,-3.08,-3.0796,-3.0724,-3.0709,-3.068,-3.062,-3.0597,-3.0586,-3.0568,-3.0597,-3.0642,-3.0603,-3.0647,-3.0704,-3.0656,-3.0672,-3.0598,-3.0209,-2.9854,-2.9474,-2.9064,-2.8636,-2.805,-2.7152,-2.6645,-2.6211,-2.5729,-2.5576,-2.5492,-2.5457,-2.5398,-2.5359,-2.5359,-2.5317,-2.5308,-2.5308,-2.5308,-2.5308,-2.5308,-2.5308,-2.5308,-2.5308,-2.5308,-2.5308,-2.5308,-2.5308,-2.5308,-2.5308,-2.5308,-2.5308,-2.5308,-2.5308,-2.5308,-2.5393,-2.5452,-2.5513,-2.5586,-2.5465,-2.4472,-2.1245,-1.9541,-1.7523,-1.3602,-1.2658,-1.2376,-1.1861,-1.4284,-1.6757,-1.8052,-2.0083,-2.2487,-2.5229,-2.6357,-2.7546,-2.9271,-3.0202,-3.0697,-3.0704,-3.0748,-3.1405,-3.2922,-3.3441,-3.3456,-3.2968,-3.3572,-3.3962,-3.3962,-3.3962,-3.3962,-3.3962,-3.3962,-3.3962,-3.3962,-3.4647,-3.4979,-3.4998,-3.568,-3.5992,-3.5992,-3.5992,-3.5602,-3.4979,-3.4979,-3.4452,-3.3591,-3.2714,-3.2265,-3.1992,-3.1114,-3.08,-3.08,-3.08,-3.08,-3.0798,-3.0734,-3.0717,-3.0709,-3.0677,-3.065,-3.062,-3.062,-3.0664,-3.0715,-3.065,-3.0722,-3.0795,-3.0732,-3.0765,-3.08,-3.08,-3.08,-3.0606,-2.9982,-2.9729,-2.9163,-2.7797,-2.7406,-2.7033,-2.6344,-2.5985,-2.5788,-2.5761,-2.5491,-2.5313,-2.5308,-2.5308,-2.5308,-2.5308,-2.5308,-2.5308,-2.5308,-2.5308,-2.5308,-2.5308,-2.5308,-2.5308,-2.5308,-2.5308,-2.5308,-2.5308,-2.5308,-2.5308,-2.5308,-2.5308,-2.5308,-2.5406,-2.5452,-2.5513,-2.5586,-2.4996,-2.3731,-2.1109,0.0,-1.6067,-1.3368,-1.2162,-1.1842,-1.2554,-1.423,-1.63,-1.8707,-1.9942,-2.18,-2.5126,-2.6345,-2.7518,-2.9201,-3.0169,-3.0704,-3.0694,-3.0703,-3.1137,-3.2138,-3.3682,-3.4881,-3.5602,-3.5719,-3.5758,-3.5758,-3.5758,-3.5758,-3.5758,-3.5758,-3.5758,-3.5758,-3.5836,-3.5875,-3.5875,-3.5953,-3.5992,-3.5992,-3.5992,-3.5953,-3.5875,-3.5875,-3.5368,-3.4491,-3.3611,-3.2792,-3.1992,-3.1114,-3.08,-3.08,-3.08,-3.08,-3.08,-3.0798,-3.0758,-3.0682,-3.0626,-3.0645,-3.0682,-3.0682,-3.0734,-3.0796,-3.0774,-3.0796,-3.08,-3.0798,-3.0799,-3.08,-3.08,-3.08,-3.0781,-3.0703,-3.0099,-2.9553,-2.9397,-2.8693,-2.814,-2.7994,-2.7281,-2.6739,-2.6602,-2.5882,-2.5365,-2.5317,-2.5308,-2.5308,-2.5308,-2.5308,-2.5308,-2.5308,-2.5308,-2.5308,-2.5308,-2.5308,-2.5308,-2.5308,-2.5308,-2.5308,-2.5308,-2.5308,-2.5308,-2.5308,-2.5308,-2.5308,-2.5121,-2.5484,-2.5573,-2.5595,-2.4938,-2.3634,-2.107,-1.8472,-1.5875,-1.333,-1.169,-1.1134,-1.2533,-1.3368,-1.4677,-1.7261,-1.7951,-1.9184,-2.2118,-2.3709,-2.5371,-2.7624,-2.9097,-3.0114,-3.0652,-3.0691,-3.1312,-3.2766,-3.4452,-3.5593,-3.5973,-3.5992,-3.5992,-3.5992,-3.5992,-3.5992,-3.5992,-3.5992,-3.5992,-3.5992,-3.5992,-3.5992,-3.5992,-3.5992,-3.5992,-3.5992,-3.5992,-3.5992,-3.5992,-3.5992,-3.5797,-3.5348,-3.3943,-3.3515,-3.3437,-3.1504,-3.1133,-3.1582,-3.1582,-3.1582,-3.1582,-3.1582,-3.1556,-3.1446,-3.0882,-3.0732,-3.0764,-3.0764,-3.0773,-3.08,-3.08,-3.08,-3.08,-3.08,-3.08,-3.08,-3.08,-3.08,-3.08,-3.08,-3.0548,-3.0177,-2.967,-2.9319,-2.8906,-2.8348,-2.792,-2.766,-2.7601,-2.7228,-2.6745,-2.6208,-2.564,-2.5308,-2.5308,-2.5308,-2.5308,-2.5308,-2.5308,-2.5308,-2.5308,-2.5308,-2.5308,-2.5308,-2.5308,-2.5308,-2.5308,-2.5308,-2.5308,-2.5308,-2.5308,-2.5308,-2.4652,-2.532,-2.5601,-2.5601,-2.4744,-2.3326,-2.1012,-1.8278,-1.5562,-1.3271,-1.1413,-1.0739,-1.2488,-1.2798,-1.3656,-1.6258,-1.685,-1.7909,-2.0517,-2.2338,-2.4252,-2.6614,-2.8146,-2.9369,-3.0224,-3.0782,-3.1624,-3.2914,-3.4599,-3.5566,-3.5602,-3.5856,-3.5992,-3.5992,-3.5992,-3.5992,-3.5992,-3.5992,-3.5992,-3.5992,-3.5992,-3.5992,-3.5992,-3.5992,-3.5992,-3.5992,-3.5992,-3.5992,-3.5992,-3.5992,-3.5992,-3.5856,-3.4353,-3.4159,-3.4452,-3.2342,-3.1797,-3.215,-3.2402,-3.2324,-3.215,-3.2402,-3.2304,-3.2031,-3.1679,-3.121,-3.08,-3.08,-3.08,-3.08,-3.08,-3.08,-3.08,-3.08,-3.08,-3.08,-3.08,-3.08,-3.08,-3.08,-3.08,-3.0626,-3.004,-2.9943,-2.9747,-2.9123,-2.8795,-2.8603,-2.8591,-2.8252,-2.7795,-2.7156,-2.6482,-2.5865,-2.5346,-2.5308,-2.5308,-2.5308,-2.5308,-2.5308,-2.5308,-2.5308,-2.5308,-2.5308,-2.5308,-2.5308,-2.5308,-2.5308,-2.5308,-2.5308,-2.5308,-2.5308,-2.3986,-2.4882,-2.5601,-2.5601,-2.43,-2.2571,-2.0876,-1.781,-1.4842,-1.3155,-1.1413,-1.0736,-1.2477,-1.2791,-1.3633,-1.6183,-1.7317,-1.8809,-2.1411,-2.3222,-2.4938,-2.6692,-2.7618,-2.8453,-2.9331,-3.0963,-3.2027,-3.2111,-3.3737,-3.4711,-3.4705,-3.5524,-3.5992,-3.5992,-3.5992,-3.5992,-3.5992,-3.5992,-3.5992,-3.5992,-3.5992,-3.5992,-3.5992,-3.5992,-3.5992,-3.5992,-3.5992,-3.5992,-3.5992,-3.5992,-3.5992,-3.5914,-3.5037,-3.4686,-3.4588,-3.3709,-3.2831,-3.2226,-3.3084,-3.2812,-3.2246,-3.3103,-3.2792,-3.2265,-3.3103,-3.2167,-3.08,-3.08,-3.08,-3.08,-3.08,-3.08,-3.08,-3.08,-3.08,-3.08,-3.08,-3.08,-3.08,-3.08,-3.08,-3.08,-3.0781,-3.0781,-3.0781,-3.0781,-3.0099,-2.9564,-2.9494,-2.8677,-2.808,-2.7992,-2.7928,-2.7178,-2.5442,-2.5308,-2.5308,-2.5308,-2.5308,-2.5308,-2.5308,-2.5308,-2.5308,-2.5308,-2.5308,-2.5308,-2.5308,-2.5308,-2.5308,-2.5308,-2.5308,-2.5308,-2.0323,-2.1405,-2.1966,-2.1367,-2.0806,-2.0104,-1.8975,-1.6528,-1.416,-1.3038,-1.1406,-1.0726,-1.2475,-1.2806,-1.3823,-1.6981,-1.7716,-1.8804,-2.1433,-2.3232,-2.4955,-2.6692,-2.8651,-2.9991,-3.0263,-3.187,-3.2678,-3.2148,-3.3675,-3.4653,-3.4704,-3.4959,-3.5389,-3.5973,-3.5992,-3.5992,-3.5992,-3.5992,-3.5992,-3.5992,-3.5992,-3.5992,-3.5992,-3.5992,-3.5992,-3.5992,-3.5992,-3.5992,-3.5992,-3.5992,-3.5992,-3.5914,-3.5037,-3.5057,-3.5407,-3.3943,-3.3593,-3.3925,-3.4198,-3.41,-3.3925,-3.4198,-3.41,-3.3827,-3.3494,-3.2597,-3.1699,-3.1699,-3.1699,-3.1543,-3.0956,-3.08,-3.08,-3.08,-3.08,-3.08,-3.08,-3.08,-3.08,-3.08,-3.08,-3.08,-3.08,-3.08,-3.08,-3.08,-3.0587,-3.0409,-3.0381,-3.0041,-2.9596,-2.9019,-2.8816,-2.828,-2.7178,-2.7082,-2.6813,-2.6231,-2.6192,-2.5923,-2.5327,-2.5308,-2.5308,-2.5308,-2.5308,-2.5308,-2.5308,-2.5308,-2.5615,-2.6192,-2.6192,-2.6505,-1.7922,-1.9301,-1.9966,-1.9735,-1.9191,-1.8472,-1.7618,-1.5442,-1.3365,-1.2493,-1.1188,-1.0721,-1.2475,-1.2805,-1.3705,-1.6498,-1.7485,-1.8704,-2.0986,-2.3038,-2.5068,-2.7116,-2.9039,-3.0205,-3.0205,-3.1501,-3.2114,-3.1658,-3.2876,-3.3676,-3.3728,-3.4022,-3.4608,-3.5485,-3.5836,-3.5992,-3.5992,-3.5992,-3.5992,-3.5992,-3.5992,-3.5992,-3.5992,-3.5992,-3.5992,-3.5992,-3.5992,-3.5992,0.0,-3.5992,-3.5992,-3.5953,-3.5408,-3.5524,-3.5875,-3.4782,-3.453,-3.4744,-3.5076,-3.4979,-3.4744,-3.5076,-3.5193,-3.5037,-3.4159,-3.328,-3.2597,-3.2597,-3.2343,-3.1973,-3.1426,-3.1055,-3.08,-3.08,-3.08,-3.08,-3.08,-3.08,-3.08,-3.08,-3.08,-3.08,-3.08,-3.08,-3.08,-3.08,-3.08,-3.08,-3.08,-3.0711,-3.0441,-2.9938,-2.9739,-2.9422,-2.8921,-2.8282,-2.7659,-2.7121,-2.7082,-2.6851,-2.6288,-2.6269,-2.6269,-2.6269,-2.6269,-2.6269,-2.6269,-2.6269,-2.6563,-2.7082,-2.7082,-2.7371,0.0,-1.8084,-1.8919,-1.9674,-1.8684,-1.7326,-1.6514,-1.4457,0.0,-1.1675,-1.0818,-1.0779,-1.2629,-1.2921,-1.3548,-1.5527,-1.7144,-1.8787,-2.0532,-2.2967,-2.5498,-2.7987,-2.8997,-2.9486,-2.9489,-3.0276,-3.0792,-3.0801,-3.1605,-3.2093,-3.2109,-3.2871,-3.3749,-3.4666,-3.5485,-3.5934,-3.5992,-3.5992,-3.5992,-3.5992,-3.5992,-3.5992,-3.5992,-3.5992,-3.5992,-3.5992,-3.5992,-3.5992,-3.5992,-3.5992,-3.5992,-3.5992,-3.5992,-3.5992,-3.5992,-3.5992,-3.5485,-3.4901,-3.5719,-3.5465,-3.494,-3.5738,-3.5992,-3.5856,-3.5037,-3.4237,-3.3552,-3.3435,-3.2812,-3.2189,-3.213,-3.1446,-3.082,-3.0878,-3.0859,-3.08,-3.08,-3.08,-3.08,-3.08,-3.08,-3.08,-3.08,-3.08,-3.08,-3.08,-3.08,-3.08,-3.08,-3.0735,-3.0709,-3.0709,-3.0571,-3.0501,-3.0501,-2.9017,-2.8049,-2.7992,-2.7992,-2.7953,-2.7895,-2.7895,-2.7895,-2.7895,-2.7895,-2.7895,-2.7895,-2.7895,-2.7934,-2.7992,-2.7992,-2.803,-1.2548,0.0,-1.4183,-1.3733,-1.3812,-1.393,0.0,-1.2706,-1.1753,-1.1539,-1.0818,-1.1127,-1.4142,-1.4219,-1.5191,-1.9526,-2.0553,-2.1425,-2.3156,-2.5598,-2.7929,-2.9855,-3.0263,-3.0393,-3.0396,-3.1183,-3.1446,-3.0847,-3.1613,-3.2093,-3.2109,-3.2285,-3.3105,-3.4647,-3.4901,-3.533,-3.5992,-3.5992,-3.5992,-3.5992,-3.5992,-3.5992,-3.5992,-3.5992,-3.5992,-3.5992,-3.5992,-3.5992,-3.5992,-3.5992,-3.5992,-3.5992,-3.5992,-3.5992,-3.5992,-3.5992,-3.5875,-3.5719,-3.5934,-3.5875,-3.5738,-3.5934,-3.5992,-3.5953,-3.5758,-3.5543,-3.5114,-3.3787,-3.324,-3.2949,-3.2265,-3.1446,-3.0976,-3.1641,-3.1289,-3.08,-3.08,-3.08,-3.08,-3.08,-3.08,-3.08,-3.08,-3.08,-3.08,-3.08,-3.08,-3.08,-3.08,-3.0735,-3.0709,-3.0709,-3.0571,-3.0501,-3.0501,-3.0072,-2.9525,-2.8857,-2.8819,-2.8549,-2.7934,-2.7895,-2.7895,-2.7895,-2.7895,-2.7895,-2.7895,-2.7895,-2.8222,-2.8819,-2.8819,-2.9179,-1.0779,-1.2121,-1.3365,-1.3268,-1.3327,-1.3404,-1.3404,-1.2413,-1.15,-1.15,-1.1442,-1.2198,-1.4821,-1.5269,-1.6413,-1.9968,-2.1189,-2.2588,-2.5135,-2.6997,-2.8745,-3.0499,-3.0694,-3.0701,-3.0698,-3.1153,-3.1278,-3.0839,-3.1248,-3.1495,-3.1504,-3.1504,-3.2129,-3.3456,-3.3886,-3.4704,-3.5992,-3.5992,-3.5992,-3.5992,-3.5992,-3.5992,-3.5992,-3.5992,-3.5992,-3.5992,-3.5992,-3.5992,-3.5992,-3.5992,-3.5992,-3.5992,-3.5992,-3.5992,-3.5992,-3.5992,-3.5992,-3.5992,-3.5992,-3.5992,-3.5992,-3.5992,-3.5992,-3.5992,-3.5992,-3.5992,-3.5797,-3.486,-3.4294,-3.3886,-3.3417,-3.2656,-3.201,-3.207,-3.1738,-3.1289,-3.0898,-3.08,-3.08,-3.08,-3.08,-3.08,-3.08,-3.08,-3.08,-3.08,-3.08,-3.08,-3.08,-3.0768,-3.0757,-3.0757,-3.0647,-3.0591,-3.0552,-3.0472,-3.0235,-2.9723,-2.9698,-2.9506,-2.9063,-2.9044,-2.9044,-2.9044,-2.9044,-2.9044,-2.9044,-2.9044,-2.9275,-2.9698,-2.9698,-2.9948,-1.0525,-1.2391,-1.4353,-1.4646,-1.4413,-1.4062,-1.3926,0.0,0.0,0.0,0.0,-1.3736,-1.5561,-1.6493,-1.7602,-1.9485,-2.1192,-2.3464,-2.6808,-2.7874,-2.89,-3.0519,-3.0694,-3.0694,-3.0701,-3.0748,-3.0799,-3.0806,-3.0803,-3.0799,-3.08,-3.08,-3.127,-3.2265,-3.3007,-3.4236,-3.5973,-3.5992,-3.5992,-3.5992,-3.5992,-3.5992,-3.5992,-3.5992,-3.5992,-3.5992,-3.5992,-3.5992,-3.5992,-3.5992,-3.5992,-3.5992,-3.5992,-3.5992,-3.5992,-3.5992,-3.5992,-3.5992,-3.5992,-3.5992,-3.5992,-3.5992,-3.5992,-3.5992,-3.5992,-3.5992,-3.5992,-3.5992,-3.5369,-3.4705,-3.4705,-3.4042,-3.324,-3.2636,-3.2402,-3.2051,-3.1192,-3.0995,-3.0995,-3.0995,-3.0898,-3.0839,-3.0976,-3.0898,-3.08,-3.08,-3.08,-3.08,-3.08,-3.08,-3.08,-3.08,-3.0734,-3.0672,-3.0617,-3.0543,-3.0482,-3.0419,-3.0416,-3.0404,-3.0404,-3.0404,-3.0404,-3.0404,-3.0404,-3.0404,-3.0404,-3.0404,-3.0404,-3.0404,-3.0404,-3.0404,-1.2007,-1.3734,-1.4626,-1.2588,-1.3092,-1.3906,-1.3173,-1.3365,0.0,0.0,0.0,0.0,-1.8144,-1.8708,-1.9582,-2.203,-2.3872,-2.5931,-2.8631,-2.9117,-2.9564,-3.0577,-3.0694,-3.0704,-3.0694,-3.0703,-3.075,-3.079,-3.0799,-3.0807,-3.08,-3.08,-3.1542,-3.3143,-3.3338,-3.4236,-3.5973,-3.5992,-3.5992,-3.5992,-3.5992,-3.5992,-3.5992,-3.5992,-3.5992,-3.5992,-3.5992,-3.5992,-3.5992,-3.5992,-3.5992,-3.5992,-3.5992,-3.5992,-3.5992,-3.5992,-3.5992,-3.5992,-3.5992,-3.5992,-3.5992,-3.5992,-3.5992,-3.5992,-3.5992,-3.5992,-3.5992,-3.5992,-3.5369,-3.4705,-3.4705,-3.4042,-3.3552,-3.4159,-3.3749,-3.2967,-3.209,-3.1895,-3.1895,-3.1895,-3.1309,-3.1036,-3.1777,-3.1289,-3.08,-3.08,-3.08,-3.08,-3.08,-3.08,-3.08,-3.08,-3.0734,-3.0706,-3.0699,-3.0579,-3.0492,-3.0496,-3.0422,-3.0404,-3.0404,-3.0404,-3.0404,-3.0404,-3.0404,-3.0404,-3.0404,-3.0404,-3.0404,-3.0404,-3.0404,-3.0404,-1.1188,-1.2995,-1.4374,-1.3208,-1.4898,-1.6744,-1.6357,-1.6571,0.0,0.0,0.0,0.0,0.0,-2.0939,-2.2107,-2.4691,-2.5779,-2.7039,-2.9117,-2.9408,-2.9719,-3.0597,-3.0711,-3.0698,-3.0698,-3.0725,-3.075,-3.074,-3.0774,-3.0804,-3.0792,-3.0804,-3.1175,-3.1964,-3.2909,-3.377,-3.4521,-3.5486,-3.5963,-3.5992,-3.5992,-3.5992,-3.5992,-3.5992,-3.5992,-3.5992,-3.5992,-3.5992,-3.5992,-3.5992,-3.5992,-3.5992,-3.5992,-3.5992,-3.5992,-3.5992,-3.5992,-3.5992,-3.5992,-3.5992,-3.5992,-3.5992,-3.5992,-3.5992,-3.5992,-3.5992,-3.5992,-3.5992,-3.5719,-3.5408,-3.5408,-3.5114,-3.4782,-3.4725,-3.4393,-3.3866,-3.2988,-3.2792,-3.2792,-3.2792,-3.2109,-3.1621,-3.2032,-3.1387,-3.08,-3.08,-3.08,-3.08,-3.08,-3.08,-3.08,-3.08,-3.077,-3.0734,-3.0691,-3.0607,-3.0513,-3.0455,-3.0414,-3.0404,-3.0404,-3.0404,-3.0404,-3.0404,-3.0404,-3.0404,-3.0404,-3.0404,-3.0404,-3.0404,-3.0404,-3.0404,-1.0702,-1.2411,-1.4197,-1.4588,0.0,-1.8708,-1.9116,-1.9193,-1.931,0.0,0.0,0.0,-2.1889,-2.2726,-2.4164,-2.6767,-2.7174,-2.7777,-2.9467,-2.97,-2.9952,-3.0616,-3.0695,-3.0701,-3.0697,-3.0758,-3.0756,-3.0703,-3.0742,-3.0774,-3.0801,-3.08,-3.0899,-3.1096,-3.2398,-3.3161,-3.33,-3.4846,-3.574,-3.5986,-3.5991,-3.5992,-3.5992,-3.5992,-3.5992,-3.5992,-3.5992,-3.5992,-3.5992,-3.5992,-3.5992,-3.5992,-3.5992,-3.5992,-3.5992,-3.5992,-3.5992,-3.5992,-3.5992,-3.5992,-3.5992,-3.5992,-3.5992,-3.5992,-3.5992,-3.5992,-3.5992,-3.5992,-3.5992,-3.5992,-3.5992,-3.5992,-3.5836,-3.5154,-3.4998,-3.4764,-3.3884,-3.3709,-3.3709,-3.3709,-3.2831,-3.2169,-3.2363,-3.1504,-3.08,-3.08,-3.08,-3.08,-3.08,-3.08,-3.08,-3.08,-3.08,-3.077,-3.0713,-3.0636,-3.0552,-3.0422,-3.0402,-3.0404,-3.0404,-3.0404,-3.0404,-3.0404,-3.0404,-3.0404,-3.0404,-3.0404,-3.0404,-3.0404,-3.0404,-3.0404,-1.2162,-1.3346,-1.4469,-1.6029,-1.6611,-1.7214,-1.8824,-1.9193,0.0,-2.1189,0.0,0.0,-2.2904,-2.3617,-2.5035,-2.7599,-2.8006,-2.8628,-3.0364,-3.0616,-3.0635,-3.0694,-3.0694,-3.0697,-3.0694,-3.0697,-3.0711,-3.07,-3.0703,-3.0737,-3.0799,-3.0801,-3.1174,-3.1975,-3.2133,-3.2545,-3.3285,-3.4285,-3.5151,-3.591,-3.5965,-3.5992,-3.5992,-3.5992,-3.5992,-3.5992,-3.5992,-3.5992,-3.5992,-3.5992,-3.5992,-3.5992,-3.5992,-3.5992,-3.5992,-3.5992,-3.5992,-3.5992,-3.5992,-3.5992,-3.5992,-3.5992,-3.5992,-3.5992,-3.5992,-3.5992,-3.5992,-3.5992,-3.5992,-3.5992,-3.5992,-3.5992,-3.5973,-3.5914,-3.5914,-3.566,-3.4783,-3.4608,-3.4608,-3.4608,-3.3241,-3.2363,-3.3162,-3.1913,-3.08,-3.08,-3.08,-3.08,-3.08,-3.08,-3.08,-3.08,-3.08,-3.077,-3.0713,-3.0636,-3.0576,-3.0496,-3.0428,-3.0404,-3.0404,-3.0404,-3.0404,-3.0404,-3.0404,-3.0404,-3.0404,-3.0404,-3.0404,-3.0404,-3.0404,-3.0404,-1.0994,-1.2975,-1.4995,-1.5638,-1.7424,0.0,0.0,-2.1597,-2.2704,-2.387,-2.4397,0.0,-2.461,-2.4882,-2.5773,-2.7773,-2.81,-2.8706,-3.0461,-3.0694,-3.0694,-3.0694,-3.0691,-3.0698,-3.0694,-3.0749,-3.0742,-3.0695,-3.0691,-3.0719,-3.073,-3.0748,-3.0887,-3.1222,-3.1763,-3.2183,-3.2497,-3.3383,-3.4003,-3.4345,-3.4911,-3.5193,-3.5193,-3.5193,-3.5485,-3.5992,-3.5992,-3.5992,-3.5992,-3.5992,-3.5992,-3.5992,-3.5992,-3.5992,-3.5992,-3.5992,-3.5992,-3.5992,-3.5992,-3.5992,-3.5992,-3.5992,-3.5992,-3.5992,-3.5992,-3.5992,-3.5992,-3.5992,-3.5992,-3.5992,-3.5992,-3.5992,-3.5992,-3.5992,-3.5992,-3.5914,-3.5582,-3.5504,-3.5504,-3.5504,-3.4549,-3.3651,-3.3435,-3.2402,-3.1426,-3.0878,-3.08,-3.08,-3.08,-3.08,-3.08,-3.08,-3.08,-3.077,-3.0713,-3.0636,-3.056,-3.0506,-3.0433,-3.0404,-3.0404,-3.0404,-3.0404,-3.0404,-3.0404,-3.0404,-3.0404,-3.0404,-3.0404,-3.0404,-3.0404,-3.0404,-1.0604,-1.2721,-1.5054,-1.558,0.0,0.0,-2.1794,-2.3034,-2.4219,-2.5368,-2.5601,-2.5757,-2.6297,-2.6184,-2.6553,-2.824,-2.8511,-2.9016,-3.0499,-3.0694,-3.0694,-3.0694,-3.0695,-3.0698,-3.0694,-3.0742,-3.0751,-3.0697,-3.0704,-3.0707,-3.0694,-3.0695,-3.0698,-3.0694,-3.1271,-3.1598,-3.1598,-3.2474,-3.2812,-3.259,-3.3742,-3.4432,-3.4705,-3.4979,-3.5446,-3.5992,-3.5992,-3.5992,-3.5992,-3.5992,-3.5992,-3.5992,-3.5992,-3.5992,-3.5992,-3.5992,-3.5992,-3.5992,-3.5992,-3.5992,-3.5992,-3.5992,-3.5992,-3.5992,-3.5992,-3.5992,-3.5992,-3.5992,-3.5992,-3.5992,-3.5992,-3.5992,-3.5992,-3.5992,-3.5992,-3.5992,-3.5992,-3.5992,-3.5992,-3.5992,-3.5291,-3.451,-3.3905,-3.3085,-3.2304,-3.1718,-3.1386,-3.1309,-3.1581,-3.1386,-3.1328,-3.1581,-3.162,-3.1594,-3.1551,-3.1485,-3.1416,-3.1368,-3.1304,-3.1014,-3.0423,-3.0404,-3.0404,-3.0404,-3.0404,-3.0404,-3.0404,-3.0404,-3.0404,-3.0404,-3.0404,-3.0404,-1.15,-1.2781,-1.4529,-1.6203,0.0,0.0,-2.2438,-2.302,-2.3503,-2.5251,-2.5621,-2.6123,-2.7793,-2.7446,-2.7469,-2.9136,-2.9408,-2.9719,-3.0577,-3.0694,-3.0694,-3.0694,-3.0694,-3.0694,-3.0694,-3.0704,-3.071,-3.0697,-3.0704,-3.0707,-3.0694,-3.0694,-3.0694,-3.0694,-3.0704,-3.0703,-3.0703,-3.1614,-3.1656,-3.0819,-3.2552,-3.3846,-3.4725,-3.5582,-3.5992,-3.5992,-3.5992,-3.5992,-3.5992,-3.5992,-3.5992,-3.5992,-3.5992,-3.5992,-3.5992,-3.5992,-3.5992,-3.5992,-3.5992,-3.5992,-3.5992,-3.5992,-3.5992,-3.5992,-3.5992,-3.5992,-3.5992,-3.5992,-3.5992,-3.5992,-3.5992,-3.5992,-3.5992,-3.5992,-3.5992,-3.5992,-3.5992,-3.5992,-3.5992,-3.5992,-3.5291,-3.4705,-3.4705,-3.3983,-3.3416,-3.3396,-3.2675,-3.2422,-3.3299,-3.2656,-3.2441,-3.3318,-3.3396,-3.3396,-3.3396,-3.3349,-3.3259,-3.3204,-3.3207,-3.2359,-3.0493,-3.0404,-3.0404,-3.0404,-3.0404,-3.0404,-3.0404,-3.0404,-3.0404,-3.0404,-3.0404,-3.0404,-1.15,-1.3637,-1.6124,-1.7249,0.0,0.0,0.0,-2.3908,0.0,0.0,-2.6517,-2.6844,-2.7909,-2.7909,-2.8104,-2.9214,-2.9447,-2.9765,-3.0581,-3.0695,-3.0707,-3.0707,-3.0707,-3.0716,-3.0776,-3.0764,-3.0759,-3.0691,-3.0697,-3.0707,-3.0694,-3.0694,-3.0704,-3.0707,-3.0697,-3.0723,-3.078,-3.1046,-3.1058,-3.0815,-3.1952,-3.2949,-3.3826,-3.4686,-3.5428,-3.5992,-3.5992,-3.5992,-3.5992,-3.5992,-3.5992,-3.5992,-3.5992,-3.5992,-3.5992,-3.5992,-3.5992,-3.5992,-3.5992,-3.5992,-3.5992,-3.5992,-3.5992,-3.5992,-3.5992,-3.5992,-3.5992,-3.5992,-3.5992,-3.5992,-3.5992,-3.5992,-3.5992,-3.5992,-3.5992,-3.5992,-3.5992,-3.5992,-3.5992,-3.5992,-3.5797,-3.5428,-3.4803,-3.4491,-3.412,-3.3494,-3.3182,-3.3103,-3.3377,-3.3162,-3.3103,-3.3377,-3.3396,-3.3396,-3.3396,-3.3349,-3.3298,-3.3259,-3.3223,-3.263,-3.1358,-3.1367,-3.1063,-3.0404,-3.0404,-3.0404,-3.0404,-3.0404,-3.0404,-3.0404,-3.0404,-3.0431,-1.2824,-1.5022,-1.7493,-1.9036,-2.1617,-2.395,-2.4663,0.0,0.0,-2.7057,-2.7148,-2.7352,-2.8864,-2.8842,-2.8907,-2.9775,-2.9949,-3.0155,-3.0675,-3.0748,-3.0739,-3.0739,-3.0728,-3.0728,-3.0764,-3.0767,-3.0734,-3.0704,-3.0694,-3.0707,-3.0694,-3.0707,-3.0701,-3.07,-3.0725,-3.0752,-3.0798,-3.0804,-3.0792,-3.08,-3.168,-3.2383,-3.291,-3.3788,-3.4666,-3.5504,-3.5856,-3.5992,-3.5992,-3.5992,-3.5992,-3.5992,-3.5992,-3.5992,-3.5992,-3.5992,-3.5992,-3.5992,-3.5992,-3.5992,-3.5992,-3.5992,-3.5992,-3.5992,-3.5992,-3.5992,-3.5992,-3.5992,-3.5992,-3.5992,-3.5992,-3.5992,-3.5992,-3.5992,-3.5992,-3.5992,-3.5992,-3.5992,-3.5992,-3.5992,-3.5992,-3.5836,-3.531,-3.5213,-3.5037,-3.4509,-3.4431,-3.4177,-3.3494,-3.4001,-3.4431,-3.4431,-3.4431,-3.4431,-3.4431,-3.4396,-3.4365,-3.4365,-3.434,-3.4017,-3.3355,-3.271,-3.2081,-3.1526,-3.1506,-3.15,-3.1466,-3.15,-3.15,-3.1466,-3.15,-3.1521,-1.4754,-1.6529,-1.8518,-2.1063,-2.2479,-2.3652,-2.5236,-2.559,-2.6062,-2.7743,-2.7512,-2.7744,-3.0134,-2.9994,-2.9787,-3.0561,-3.0703,-3.0734,-3.0796,-3.0804,-3.0804,-3.0804,-3.0745,-3.0712,-3.0714,-3.0709,-3.0716,-3.0711,-3.0707,-3.0707,-3.0704,-3.0707,-3.0706,-3.0712,-3.0778,-3.0799,-3.0801,-3.0795,-3.08,-3.08,-3.1602,-3.1973,-3.2012,-3.2968,-3.3886,-3.4744,-3.5543,-3.5934,-3.5992,-3.5992,-3.5992,-3.5992,-3.5992,-3.5992,-3.5992,-3.5992,-3.5992,-3.5992,-3.5992,-3.5992,-3.5992,-3.5992,-3.5992,-3.5992,-3.5992,-3.5992,-3.5992,-3.5992,-3.5992,-3.5992,-3.5992,-3.5992,-3.5992,-3.5992,-3.5992,-3.5992,-3.5992,-3.5992,-3.5992,-3.5992,-3.5992,-3.5992,-3.5992,-3.5992,-3.5992,-3.5992,-3.5992,-3.5426,-3.3845,-3.5016,-3.5992,-3.5992,-3.5992,-3.5992,-3.5992,-3.5992,-3.5992,-3.5992,-3.5992,-3.5955,-3.5816,-3.4202,-3.328,-3.3195,-3.3195,-3.3168,-3.3098,-3.3168,-3.3168,-3.3103,-3.3172,-3.3199,-1.4074,-1.6123,0.0,-2.1148,-2.3419,-2.5141,-2.5511,-2.5591,-2.5899,-2.6955,-2.7578,-2.8279,-2.9466,-3.0089,-3.0471,-3.0678,-3.0739,-3.0774,-3.0799,-3.08,-3.0792,-3.0792,-3.0788,-3.0771,-3.0785,-3.0776,-3.0779,-3.0778,-3.0725,-3.0724,-3.0784,-3.0731,-3.0723,-3.0784,-3.0794,-3.0804,-3.0796,-3.0799,-3.08,-3.08,-3.0995,-3.1075,-3.1133,-3.2694,-3.3886,-3.4705,-3.4901,-3.5369,-3.5992,-3.5992,-3.5992,-3.5992,-3.5992,-3.5992,-3.5992,-3.5992,-3.5992,-3.5992,-3.5992,-3.5992,-3.5992,-3.5992,-3.5992,-3.5992,-3.5992,-3.5992,-3.5992,-3.5992,-3.5992,-3.5992,-3.5992,-3.5992,-3.5992,-3.5992,-3.5992,-3.5992,-3.5992,-3.5992,-3.5992,-3.5992,-3.5992,-3.5992,-3.5992,-3.5992,-3.5992,-3.5992,-3.5992,-3.5856,-3.5485,-3.5778,-3.5992,-3.5992,-3.5992,-3.5992,-3.5992,-3.5992,-3.5992,-3.5992,-3.5992,-3.5988,-3.5958,-3.4891,-3.3952,-3.3215,-3.3195,-3.3168,-3.3098,-3.3168,-3.3168,-3.3103,-3.3172,-3.3226,-1.4785,-1.693,0.0,-2.2765,0.0,-2.5644,-2.5653,-2.5642,-2.5783,-2.6232,-2.6987,-2.7958,-2.9223,-2.9814,-3.0264,-3.0682,-3.0774,-3.0804,-3.0794,-3.0804,-3.0791,-3.0791,-3.0803,-3.0801,-3.0791,-3.0774,-3.075,-3.0745,-3.0713,-3.0714,-3.0742,-3.0742,-3.0762,-3.0798,-3.0806,-3.0794,-3.08,-3.08,-3.08,-3.08,-3.08,-3.08,-3.0839,-3.2168,-3.3241,-3.41,-3.451,-3.5193,-3.5992,-3.5992,-3.5992,-3.5992,-3.5992,-3.5992,-3.5992,-3.5992,-3.5992,-3.5992,-3.5992,-3.5992,-3.5992,-3.5992,-3.5992,-3.5992,-3.5992,-3.5992,-3.5992,-3.5992,-3.5992,-3.5992,-3.5992,-3.5992,-3.5992,-3.5992,-3.5992,-3.5992,-3.5992,-3.5992,-3.5992,-3.5992,-3.5992,-3.5992,-3.5992,-3.5992,-3.5992,-3.5992,-3.5992,-3.5992,-3.5992,-3.5992,-3.5992,-3.5992,-3.5992,-3.5992,-3.5992,-3.5992,-3.5992,-3.5992,-3.5992,-3.5992,-3.5992,-3.5529,-3.5041,-3.455,-3.455,-3.4519,-3.4443,-3.4519,-3.4516,-3.4443,-3.4503,-3.4562,-1.5221,-1.7695,-2.0384,-2.4397,-2.5542,0.0,-2.571,-2.5699,-2.5707,-2.5707,-2.6349,-2.7359,-2.8799,-2.9186,-2.9503,-3.0228,-3.0485,-3.059,-3.0584,-3.0703,-3.08,-3.08,-3.0791,-3.0803,-3.0803,-3.0747,-3.0717,-3.0717,-3.073,-3.0724,-3.0717,-3.0777,-3.08,-3.0803,-3.0795,-3.08,-3.08,-3.08,-3.08,-3.08,-3.08,-3.08,-3.082,-3.1543,-3.2422,-3.3435,-3.4159,-3.5057,-3.5992,-3.5992,-3.5992,-3.5992,-3.5992,-3.5992,-3.5992,-3.5992,-3.5992,-3.5992,-3.5992,-3.5992,-3.5992,-3.5992,-3.5992,-3.5992,-3.5992,-3.5992,-3.5992,-3.5992,-3.5992,-3.5992,-3.5992,-3.5992,-3.5992,-3.5992,-3.5992,-3.5992,-3.5992,-3.5992,-3.5992,-3.5992,-3.5992,-3.5992,-3.5992,-3.5992,-3.5992,-3.5992,-3.5992,-3.5992,-3.5992,-3.5992,-3.5992,-3.5992,-3.5992,-3.5992,-3.5992,-3.5992,-3.5992,-3.5992,-3.5992,-3.5992,-3.5992,-3.5992,-3.5992,-3.5992,-3.5992,-3.5976,-3.5908,-3.5976,-3.5974,-3.5892,-3.5976,-3.5992,-1.3012,0.0,-2.1018,0.0,-2.512,-2.571,-2.571,-2.5699,-2.5707,-2.5707,-2.6397,-2.7064,-2.7298,-2.7907,-2.8409,-2.853,-2.9177,-2.9691,-2.9746,-3.0353,-3.08,-3.08,-3.0799,-3.0798,-3.0798,-3.0783,-3.079,-3.079,-3.0786,-3.0784,-3.0788,-3.0792,-3.0803,-3.0798,-3.08,-3.08,-3.08,-3.08,-3.08,-3.08,-3.08,-3.08,-3.08,-3.0917,-3.1854,-3.3416,-3.3513,-3.4509,-3.5992,-3.5992,-3.5992,-3.5992,-3.5992,-3.5992,-3.5992,-3.5992,-3.5992,-3.5992,-3.5992,-3.5992,-3.5992,-3.5992,-3.5992,-3.5992,-3.5992,-3.5992,-3.5992,-3.5992,-3.5992,-3.5992,-3.5992,-3.5992,-3.5992,-3.5992,-3.5992,-3.5992,-3.5992,-3.5992,-3.5992,-3.5992,-3.5992,-3.5992,-3.5992,-3.5992,-3.5992,-3.5992,-3.5992,-3.5992,-3.5992,-3.5992,-3.5992,-3.5992,-3.5992,-3.5992,-3.5992,-3.5992,-3.5992,-3.5992,-3.5992,-3.5992,-3.5992,-3.5992,-3.5992,-3.5992,-3.5992,-3.5976,-3.5908,-3.5976,-3.5974,-3.5892,-3.5976,-3.5992,-1.4242,-1.7364,-2.0564,0.0,-2.4683,-2.5094,-2.5582,-2.5704,-2.5707,-2.5707,-2.5994,-2.642,-2.6908,-2.7293,-2.768,-2.8176,-2.8586,-2.8842,-2.8868,-2.9591,-3.0138,-3.0138,-3.0528,-3.08,-3.08,-3.0807,-3.0798,-3.0798,-3.0795,-3.0793,-3.0798,-3.0798,-3.0806,-3.08,-3.08,-3.08,-3.08,-3.08,-3.08,-3.08,-3.08,-3.08,-3.08,-3.08,-3.1485,-3.2695,-3.3182,-3.4118,-3.531,-3.5797,-3.5992,-3.5992,-3.5992,-3.5992,-3.5992,-3.5992,-3.5992,-3.5992,-3.5992,-3.5992,-3.5992,-3.5992,-3.5992,-3.5992,-3.5992,-3.5992,-3.5992,-3.5992,-3.5992,-3.5992,-3.5992,-3.5992,-3.5992,-3.5992,-3.5992,-3.5992,-3.5992,-3.5992,-3.5992,-3.5992,-3.5992,-3.5992,-3.5992,-3.5992,-3.5992,-3.5992,-3.5992,-3.5992,-3.5992,-3.5992,-3.5992,-3.5992,-3.5992,-3.5992,-3.5992,-3.5992,-3.5992,-3.5992,-3.5992,-3.5992,-3.5992,-3.5992,-3.5992,-3.5992,-3.5992,-3.5985,-3.5968,-3.5986,-3.5985,-3.597,-3.5986,-3.5992,-1.4731,0.0,-1.9089,-2.2309,-2.3441,-2.4047,-2.512,-2.5374,-2.5434,-2.5648,-2.5707,-2.5902,-2.6547,-2.6664,-2.6879,-2.7522,-2.7835,-2.7971,-2.7971,-2.8713,-2.9358,-2.9573,-3.0138,-3.0587,-3.0781,-3.0792,-3.0803,-3.0799,-3.0808,-3.0806,-3.0798,-3.0803,-3.0791,-3.08,-3.08,-3.08,-3.08,-3.08,-3.08,-3.08,-3.08,-3.08,-3.08,-3.08,-3.1153,-3.1836,-3.2928,-3.3886,-3.4764,-3.5641,-3.5992,-3.5992,-3.5992,-3.5992,-3.5992,-3.5992,-3.5992,-3.5992,-3.5992,-3.5992,-3.5992,-3.5992,-3.5992,-3.5992,-3.5992,-3.5992,-3.5992,-3.5992,-3.5992,-3.5992,-3.5992,-3.5992,-3.5992,-3.5992,-3.5992,-3.5992,-3.5992,-3.5992,-3.5992,-3.5992,-3.5992,-3.5992,-3.5992,-3.5992,-3.5992,-3.5992,-3.5992,-3.5992,-3.5992,-3.5992,-3.5992,-3.5992,-3.5992,-3.5992,-3.5992,-3.5992,-3.5992,-3.5992,-3.5992,-3.5992,-3.5992,-3.5992,-3.5992,-3.5992,-3.5992,-3.5992,-3.5992,-3.5992,-3.5992,-3.5992,-3.5992,-3.5992,0.0,-1.4328,0.0,-1.8894,-2.0807,-2.2465,-2.4104,-2.4475,-2.4691,-2.5531,-2.5707,-2.5707,-2.5765,-2.5765,-2.5785,-2.5824,-2.6528,-2.7074,-2.7074,-2.7815,-2.8674,-2.9495,-2.9631,-2.9962,-3.0722,-3.08,-3.0795,-3.0799,-3.0792,-3.0794,-3.0799,-3.0792,-3.08,-3.08,-3.08,-3.08,-3.08,-3.08,-3.08,-3.08,-3.08,-3.08,-3.08,-3.08,-3.082,-3.0956,-3.2655,-3.3886,-3.4764,-3.5641,-3.5992,-3.5992,-3.5992,-3.5992,-3.5992,-3.5992,-3.5992,-3.5992,-3.5992,-3.5992,-3.5992,-3.5992,-3.5992,-3.5992,-3.5992,-3.5992,-3.5992,-3.5992,-3.5992,-3.5992,-3.5992,-3.5992,-3.5992,-3.5992,-3.5992,-3.5992,-3.5992,-3.5992,-3.5992,-3.5992,-3.5992,-3.5992,-3.5992,-3.5992,-3.5992,-3.5992,-3.5992,-3.5992,-3.5992,-3.5992,-3.5992,-3.5992,-3.5992,-3.5992,-3.5992,-3.5992,-3.5992,-3.5992,-3.5992,-3.5992,-3.5992,-3.5992,-3.5992,-3.5992,-3.5992,-3.5992,-3.5992,-3.5992,-3.5992,-3.5992,-3.5992,-3.5992,0.0,0.0,0.0,-1.6982,-1.8933,-2.0534,-2.1705,-2.3227,-2.4495,-2.4808,-2.5316,-2.5707,-2.5707,-2.5707,-2.5707,-2.5707,-2.5961,-2.6175,-2.6175,-2.6918,-2.7582,-2.7894,-2.8421,-2.8889,-2.9162,-2.92,-2.9199,-2.9194,-2.9706,-3.0039,-3.0034,-3.0526,-3.08,-3.08,-3.08,-3.08,-3.08,-3.08,-3.08,-3.08,-3.08,-3.08,-3.08,-3.08,-3.08,-3.0878,-3.2051,-3.3066,-3.3925,-3.4803,-3.5504,-3.5992,-3.5992,-3.5992,-3.5992,-3.5992,-3.5992,-3.5992,-3.5992,-3.5992,-3.5992,-3.5992,-3.5992,-3.5992,-3.5992,-3.5992,-3.5992,-3.5992,-3.5992,-3.5992,-3.5992,-3.5992,-3.5992,-3.5992,-3.5992,-3.5992,-3.5992,-3.5992,-3.5992,-3.5992,-3.5992,-3.5992,-3.5992,-3.5992,-3.5992,-3.5992,-3.5992,-3.5992,-3.5992,-3.5992,-3.5992,-3.5992,-3.5992,-3.5992,-3.5992,-3.5992,-3.5992,-3.5992,-3.5992,-3.5992,-3.5992,-3.5992,-3.5992,-3.5992,-3.5992,-3.5992,-3.5992,-3.5992,-3.5992,-3.5992,-3.5992,-3.5992,-1.1712,0.0,0.0,0.0,-1.6903,-1.8172,-2.0495,-2.188,-2.3011,-2.4163,-2.4867,-2.5355,-2.5648,-2.5707,-2.5707,-2.5707,-2.5707,-2.5707,-2.5707,-2.6196,-2.6664,-2.6977,-2.7504,-2.7971,-2.8264,-2.8303,-2.8303,-2.8303,-2.883,-2.9163,-2.9163,-2.9669,-3.0099,-3.0392,-3.0664,-3.08,-3.08,-3.08,-3.08,-3.08,-3.08,-3.08,-3.08,-3.08,-3.08,-3.0839,-3.1407,-3.2324,-3.3474,-3.4334,-3.5213,-3.5992,-3.5992,-3.5992,-3.5992,-3.5992,-3.5992,-3.5992,-3.5992,-3.5992,-3.5992,-3.5992,-3.5992,-3.5992,-3.5992,-3.5992,-3.5992,-3.5992,-3.5992,-3.5992,-3.5992,-3.5992,-3.5992,-3.5992,-3.5992,-3.5992,-3.5992,-3.5992,-3.5992,-3.5992,-3.5992,-3.5992,-3.5992,-3.5992,-3.5992,-3.5992,-3.5992,-3.5992,-3.5992,-3.5992,-3.5992,-3.5992,-3.5992,-3.5992,-3.5992,-3.5992,-3.5992,-3.5992,-3.5992,-3.5992,-3.5992,-3.5992,-3.5992,-3.5992,-3.5992,-3.5992,-3.5992,-3.5992,-3.5992,-3.5992,-3.5992,-3.5992,0.0,0.0,0.0,-1.4641,-1.466,-1.5381,-2.0475,-2.0377,-2.0182,-2.3558,-2.428,-2.4593,-2.5492,-2.5687,-2.5707,-2.5707,-2.5707,-2.5707,-2.5707,-2.5707,-2.6019,-2.686,-2.6957,-2.7289,-2.8147,-2.8225,-2.8225,-2.8225,-2.8244,-2.8264,-2.8264,-2.8283,-2.8693,-2.9573,-3.0353,-3.0781,-3.08,-3.08,-3.08,-3.08,-3.08,-3.08,-3.08,-3.08,-3.08,-3.08,-3.08,-3.1776,-3.3435,-3.4295,-3.5174,-3.5953,-3.5992,-3.5992,-3.5992,-3.5992,-3.5992,-3.5992,-3.5992,-3.5992,-3.5992,-3.5992,-3.5992,-3.5992,-3.5992,-3.5992,-3.5992,-3.5992,-3.5992,-3.5992,-3.5992,-3.5992,-3.5992,-3.5992,-3.5992,-3.5992,-3.5992,-3.5992,-3.5992,-3.5992,-3.5992,-3.5992,-3.5992,-3.5992,-3.5992,-3.5992,-3.5992,-3.5992,-3.5992,-3.5992,-3.5992,-3.5992,-3.5992,-3.5992,-3.5992,-3.5992,-3.5992,-3.5992,-3.5992,-3.5992,-3.5992,-3.5992,-3.5992,-3.5992,-3.5992,-3.5992,-3.5992,-3.5992,-3.5992,-3.5992,-3.5992,-3.5992,-1.0461,0.0,0.0,0.0,0.0,0.0,-1.505,-1.6435,-1.8055,-2.026,-2.1704,-2.3031,-2.4496,-2.5277,-2.5707,-2.5707,-2.5707,-2.5707,-2.5707,-2.5707,-2.5785,-2.6039,-2.6058,-2.6156,-2.641,-2.6429,-2.6429,-2.6429,-2.6996,-2.7367,-2.7367,-2.7952,-2.8693,-2.9573,-2.9827,-3.0216,-3.0781,-3.08,-3.08,-3.08,-3.08,-3.08,-3.08,-3.08,-3.08,-3.08,-3.08,-3.1426,-3.2539,-3.3398,-3.4276,-3.5115,-3.5758,-3.5992,-3.5992,-3.5992,-3.5992,-3.5992,-3.5992,-3.5992,-3.5992,-3.5992,-3.5992,-3.5992,-3.5992,-3.5992,-3.5992,-3.5992,-3.5992,-3.5992,-3.5992,-3.5992,-3.5992,-3.5992,-3.5992,-3.5992,-3.5992,-3.5992,-3.5992,-3.5992,-3.5992,-3.5992,-3.5992,-3.5992,-3.5992,-3.5992,-3.5992,-3.5992,-3.5992,-3.5992,-3.5992,-3.5992,-3.5992,-3.5992,-3.5992,-3.5992,-3.5992,-3.5992,-3.5992,-3.5992,-3.5992,-3.5992,-3.5992,-3.5992,-3.5992,-3.5992,-3.5992,-3.5992,-3.5992,-3.5992,-3.5992,-3.5992,-1.1614,-1.1751,0.0,-1.2375,0.0,0.0,-1.4621,-1.5323,-1.6318,-1.8796,-2.0397,-2.1763,-2.3109,-2.4047,-2.4731,-2.5101,-2.5159,-2.5277,-2.5648,-2.5707,-2.5707,-2.5707,-2.5707,-2.5707,-2.5707,-2.5707,-2.5707,-2.5707,-2.6175,-2.6469,-2.6469,-2.7289,-2.8166,-2.9025,-2.9417,-2.9982,-3.0781,-3.08,-3.08,-3.08,-3.08,-3.08,-3.08,-3.08,-3.08,-3.08,-3.08,-3.1094,-3.1621,-3.25,-3.3593,-3.4783,-3.566,-3.5992,-3.5992,-3.5992,-3.5992,-3.5992,-3.5992,-3.5992,-3.5992,-3.5992,-3.5992,-3.5992,-3.5992,-3.5992,-3.5992,-3.5992,-3.5992,-3.5992,-3.5992,-3.5992,-3.5992,-3.5992,-3.5992,-3.5992,-3.5992,-3.5992,-3.5992,-3.5992,-3.6001,-3.6005,-3.5995,-3.5992,-3.5992,-3.5992,-3.5992,-3.5992,-3.5992,-3.5992,-3.5992,-3.5992,-3.5992,-3.5992,-3.5992,-3.5992,-3.5992,-3.5992,-3.5992,-3.5992,-3.5992,-3.5992,-3.5992,-3.5992,-3.5992,-3.5992,-3.5992,-3.5992,-3.5992,-3.5992,-3.5992,-3.5992,-1.3411,-1.3314,0.0,-1.4953,-1.3762,0.0,-1.6651,-1.5772,-1.5108,-1.8094,-1.9422,-2.032,-2.1295,-2.2135,-2.2955,-2.3832,-2.4124,-2.4593,-2.5551,-2.5707,-2.5707,-2.5707,-2.5707,-2.5707,-2.5707,-2.5707,-2.5707,-2.5707,-2.5707,-2.5706,-2.5705,-2.6429,-2.7269,-2.8127,-2.9007,-2.9845,-3.0664,-3.0761,-3.08,-3.08,-3.08,-3.08,-3.08,-3.08,-3.08,-3.08,-3.08,-3.08,-3.0878,-3.1738,-3.3066,-3.4647,-3.5524,-3.5914,-3.5992,-3.5992,-3.5992,-3.5992,-3.5992,-3.5992,-3.5992,-3.5992,-3.5992,-3.5992,-3.5992,-3.5992,-3.5992,-3.5992,-3.5992,-3.5992,-3.5992,-3.5992,-3.5992,-3.5992,-3.5992,-3.5992,-3.5992,-3.5992,-3.5994,-3.5996,-3.5991,-3.5994,-3.5996,-3.5992,-3.5992,-3.5992,-3.5992,-3.5992,-3.5992,-3.5992,-3.5992,-3.5992,-3.5992,-3.5992,-3.5992,-3.5992,-3.5992,-3.5992,-3.5992,-3.5992,-3.5992,-3.5992,-3.5992,-3.5992,-3.5992,-3.5992,-3.5992,-3.5992,-3.5992,-3.5992,-3.5992,-3.5992,-1.5343,-1.5948,-1.6573,-1.4796,-1.5557,0.0,-1.4329,-1.4543,-1.5148,-1.5127,-1.5811,-1.6905,-1.8466,-1.9461,-2.0338,-2.1198,-2.2467,-2.3892,-2.5473,-2.5707,-2.5707,-2.5707,-2.5707,-2.5707,-2.5707,-2.5707,-2.5707,-2.5707,-2.5707,-2.5704,-2.5694,-2.5859,-2.6351,-2.723,-2.8108,-2.8967,-2.9827,-3.0489,-3.08,-3.08,-3.08,-3.08,-3.08,-3.08,-3.08,-3.08,-3.08,-3.08,-3.0878,-3.1738,-3.2714,-3.3748,-3.4608,-3.5389,-3.5992,-3.5992,-3.5992,-3.5992,-3.5992,-3.5992,-3.5992,-3.5992,-3.5992,-3.5992,-3.5992,-3.5992,-3.5992,-3.5992,-3.5992,-3.5992,-3.5992,-3.5992,-3.5992,-3.5992,-3.5992,-3.5992,-3.5992,-3.5992,-3.5999,-3.5994,-3.6009,-3.5999,-3.5994,-3.5992,-3.5992,-3.5992,-3.5992,-3.5992,-3.5992,-3.5992,-3.5992,-3.5992,-3.5992,-3.5992,-3.5992,-3.5992,-3.5992,-3.5992,-3.5992,-3.5992,-3.5992,-3.5992,-3.5992,-3.5992,-3.5992,-3.5992,-3.5992,-3.5992,-3.5992,-3.5992,-3.5992,-3.5992,-1.7178,-1.7334,-1.7783,-1.6903,-1.7021,0.0,0.0,-1.5733,-1.5656,-1.6513,-1.6357,-1.6572,-1.8329,-1.9011,-1.9597,-2.0457,-2.1666,-2.2817,-2.3676,-2.4907,-2.5707,-2.5707,-2.5707,-2.5707,-2.5707,-2.5707,-2.5707,-2.5707,-2.5707,-2.5705,-2.5699,-2.5704,-2.6097,-2.6977,-2.7854,-2.8713,-2.9592,-3.0392,-3.08,-3.08,-3.08,-3.08,-3.08,-3.08,-3.08,-3.08,-3.08,-3.08,-3.0839,-3.127,-3.2226,-3.3494,-3.4354,-3.5232,-3.5992,-3.5992,-3.5992,-3.5992,-3.5992,-3.5992,-3.5992,-3.5992,-3.5992,-3.5992,-3.5992,-3.5992,-3.5992,-3.5992,-3.5992,-3.5992,-3.5992,-3.5992,-3.5992,-3.5992,-3.5992,-3.5996,-3.6008,-3.6009,-3.5992,-3.5996,-3.5994,-3.6009,-3.6009,-3.6009,-3.6009,-3.6009,-3.6009,-3.6006,-3.5994,-3.5992,-3.5992,-3.5992,-3.5992,-3.5992,-3.5992,-3.5992,-3.5992,-3.5992,-3.5992,-3.5992,-3.5992,-3.5992,-3.5992,-3.5992,-3.5992,-3.5992,-3.5992,-3.5992,-3.5992,-3.5992,-3.5992,-3.5992,-1.9403,-1.9091,-1.9285,-1.9499,-1.8855,-1.8347,0.0,0.0,0.0,-1.8465,-1.7684,-1.7137,-1.8543,-1.866,-1.8836,-1.9715,-2.0729,-2.1334,-2.1178,-2.3208,-2.479,-2.4926,-2.5102,-2.5278,-2.5434,-2.5296,-2.5334,-2.5665,-2.5393,-2.5354,-2.5684,-2.5706,-2.6019,-2.6723,-2.76,-2.8479,-2.9339,-3.0157,-3.0645,-3.08,-3.08,-3.08,-3.08,-3.08,-3.08,-3.08,-3.08,-3.08,-3.08,-3.08,-3.1737,-3.324,-3.412,-3.5076,-3.5992,-3.5992,-3.5992,-3.5992,-3.5992,-3.5992,-3.5992,-3.5992,-3.5992,-3.5992,-3.5992,-3.5992,-3.5992,-3.5992,-3.5992,-3.5992,-3.5992,-3.5992,-3.5992,-3.5992,-3.5992,-3.6,-3.5995,-3.5996,-3.5996,-3.5996,-3.5996,-3.5996,-3.5996,-3.5996,-3.5996,-3.5996,-3.5996,-3.5995,-3.5996,-3.5992,-3.5992,-3.5992,-3.5992,-3.5992,-3.5992,-3.5992,-3.5992,-3.5992,-3.5992,-3.5992,-3.5992,-3.5992,-3.5992,-3.5992,-3.5992,-3.5992,-3.5992,-3.5992,-3.5992,-3.5992,-3.5992,-3.5992,-2.2779,-2.3071,-2.3149,-2.0983,-2.1997,-2.2583,-1.8973,0.0,-1.9442,-1.7411,0.0,-1.6766,-1.6962,0.0,0.0,-1.7001,-1.8523,-1.9323,-1.8544,-2.0028,-2.1432,-2.2154,-2.2916,-2.3696,-2.4476,-2.3846,-2.4036,-2.5575,-2.427,-2.4075,-2.5614,-2.5702,-2.5746,-2.5844,-2.6684,-2.7562,-2.844,-2.9298,-3.0099,-3.08,-3.08,-3.08,-3.08,-3.08,-3.08,-3.08,-3.08,-3.08,-3.08,-3.08,-3.1368,-3.2324,-3.3202,-3.4548,-3.5992,-3.5992,-3.5992,-3.5992,-3.5992,-3.5992,-3.5992,-3.5992,-3.5992,-3.5992,-3.5992,-3.5992,-3.5992,-3.5992,-3.5992,-3.5992,-3.5992,-3.5992,-3.5992,-3.5992,-3.5992,-3.6,-3.5995,-3.5996,-3.5996,-3.5996,-3.5996,-3.5996,-3.5996,-3.5996,-3.5996,-3.5996,-3.5996,-3.5995,-3.5996,-3.5992,-3.5992,-3.5992,-3.5992,-3.5992,-3.5992,-3.5992,-3.5992,-3.5992,-3.5992,-3.5992,-3.5992,-3.5992,-3.5992,-3.5992,-3.5992,-3.5992,-3.5992,-3.5992,-3.5992,-3.5992,-3.5992,-3.5992,-2.3345,-2.3365,-2.3384,-2.2311,-2.2505,-2.2485,-2.067,-2.0046,-1.9811,-1.9733,0.0,0.0,0.0,0.0,0.0,0.0,-1.8075,-1.8056,-1.669,-1.7568,-1.9031,-2.0886,-2.0983,-2.1431,-2.2816,-2.2577,-2.2868,-2.41,-2.351,-2.3647,-2.488,-2.5431,-2.5707,-2.5707,-2.6547,-2.7426,-2.8283,-2.9163,-3.0001,-3.08,-3.08,-3.08,-3.08,-3.08,-3.08,-3.08,-3.08,-3.08,-3.08,-3.08,-3.1309,-3.2187,-3.3064,-3.4157,-3.531,-3.5817,-3.5992,-3.5992,-3.5992,-3.5992,-3.5992,-3.5992,-3.5992,-3.5992,-3.5992,-3.5992,-3.5992,-3.5992,-3.5992,-3.5992,-3.5992,-3.5992,-3.5992,-3.5992,-3.6004,-3.5993,-3.5996,-3.5996,-3.5996,-3.5996,-3.5996,-3.5996,-3.5996,-3.5996,-3.5996,-3.5996,-3.5996,-3.5995,-3.5996,-3.5992,-3.5992,-3.5992,-3.5992,-3.5992,-3.5992,-3.5992,-3.5992,-3.5992,-3.5992,-3.5992,-3.5992,-3.5992,-3.5992,-3.5992,-3.5992,-3.5992,-3.5992,-3.5992,-3.5992,-3.5992,-3.5992,-3.5992,-2.3989,-2.3814,-2.3696,-2.3228,-2.2662,-2.2115,-2.1646,-2.0748,-2.0299,-2.1334,-2.0222,0.0,0.0,0.0,0.0,0.0,0.0,-1.7393,-1.5656,-1.5733,-1.6787,-1.8915,-1.9223,-1.9765,-2.1049,-2.0909,-2.1282,-2.2637,-2.2321,-2.2732,-2.4319,-2.5003,-2.5453,-2.5687,-2.6313,-2.7172,-2.8283,-2.8928,-2.9767,-3.08,-3.08,-3.08,-3.08,-3.08,-3.08,-3.08,-3.08,-3.08,-3.08,-3.08,-3.1172,-3.1856,-3.2967,-3.3787,-3.4471,-3.5582,-3.5992,-3.5992,-3.5992,-3.5992,-3.5992,-3.5992,-3.5992,-3.5992,-3.5992,-3.5992,-3.5992,-3.5992,-3.5992,-3.5992,-3.5992,-3.5995,-3.5998,-3.6002,-3.5993,-3.5996,-3.5996,-3.5996,-3.5996,-3.5996,-3.5996,-3.5996,-3.5996,-3.5996,-3.5996,-3.5996,-3.5996,-3.5995,-3.6005,-3.6003,-3.6003,-3.6003,-3.6003,-3.6003,-3.6003,-3.6003,-3.6003,-3.6003,-3.6003,-3.6003,-3.6003,-3.5996,-3.5992,-3.5992,-3.5992,-3.5992,-3.5992,-3.5992,-3.5992,-3.5992,-3.5992,-3.5992,-2.5629,-2.5629,-2.5219,-2.3521,-2.3072,-2.2642,-2.1004,-2.1257,-2.1588,-2.0808,-2.1257,-2.1529,-2.075,0.0,0.0,0.0,0.0,0.0,0.0,-1.4699,-1.4522,-1.546,-1.7711,-1.9233,-1.9285,-1.8514,-1.9092,-2.1641,-2.0344,-2.0878,-2.4222,-2.4436,-2.4828,-2.5668,-2.5726,-2.6566,-2.8283,-2.8323,-2.9162,-3.08,-3.08,-3.08,-3.08,-3.08,-3.08,-3.08,-3.08,-3.08,-3.08,-3.08,-3.082,-3.1015,-3.2733,-3.3416,-3.365,-3.5368,-3.5992,-3.5992,-3.5992,-3.5992,-3.5992,-3.5992,-3.5992,-3.5992,-3.5992,-3.5992,-3.5992,-3.5992,-3.5992,-3.5992,-3.5992,-3.6,-3.6009,-3.5996,-3.5996,-3.5996,-3.5996,-3.5996,-3.5996,-3.5996,-3.5996,-3.5996,-3.5996,-3.5996,-3.5996,-3.5996,-3.5996,-3.5996,-3.5996,-3.5996,-3.5996,-3.5996,-3.5996,-3.5996,-3.5996,-3.5996,-3.5996,-3.5996,-3.5996,-3.5996,-3.5996,-3.6005,-3.5992,-3.5992,-3.5992,-3.5992,-3.5992,-3.5992,-3.5992,-3.5992,-3.5992,-3.5992,-2.5707,-2.5707,-2.5414,-2.4242,-2.3521,-2.2818,-2.1705,-2.1685,-2.1646,-2.0789,-2.1257,-2.1588,-2.075,0.0,0.0,0.0,0.0,0.0,0.0,-1.3791,-1.3324,-1.3582,-1.5389,-1.6646,-1.6687,-1.6898,-1.7652,-1.918,-1.9784,-2.1093,-2.3422,-2.4632,-2.5395,-2.5687,-2.5707,-2.6546,-2.8283,-2.8303,-2.9141,-3.08,-3.08,-3.08,-3.08,-3.08,-3.08,-3.08,-3.08,-3.08,-3.08,-3.08,-3.1133,-3.1777,-3.2947,-3.3748,-3.4393,-3.5563,-3.5992,-3.5992,-3.5992,-3.5992,-3.5992,-3.5992,-3.5992,-3.5992,-3.5992,-3.5992,-3.5992,-3.5992,-3.5992,-3.5992,-3.5992,-3.6002,-3.5991,-3.5993,-3.5995,-3.5996,-3.5996,-3.5996,-3.5996,-3.5996,-3.5996,-3.5996,-3.5996,-3.5996,-3.5996,-3.5996,-3.5996,-3.5996,-3.5996,-3.5996,-3.5996,-3.5996,-3.5996,-3.5996,-3.5996,-3.5996,-3.5996,-3.5996,-3.5996,-3.5996,-3.5996,-3.5995,-3.5993,-3.5993,-3.5993,-3.6009,-3.5992,-3.6002,-3.6002,-3.5992,-3.5992,-3.5992,-2.5707,-2.5707,-2.5492,-2.4613,-2.3988,-2.3266,-2.2154,-2.2115,-2.2095,-2.1237,-2.1451,-2.1744,-2.153,0.0,0.0,0.0,0.0,0.0,0.0,-1.36,-1.3213,-1.3163,-1.4421,-1.5327,-1.536,-1.5556,-1.62,-1.7442,-1.8536,-2.0178,-2.2505,-2.4009,-2.5063,-2.5687,-2.5707,-2.639,-2.7815,-2.8147,-2.9006,-3.0372,-3.0664,-3.08,-3.08,-3.08,-3.08,-3.08,-3.08,-3.08,-3.08,-3.08,-3.1309,-3.2187,-3.3064,-3.3925,-3.4803,-3.568,-3.5992,-3.5992,-3.5992,-3.5992,-3.5992,-3.5992,-3.5992,-3.5992,-3.5992,-3.5992,-3.5992,-3.5992,-3.5995,-3.5996,-3.5994,-3.6004,-3.5992,-3.5992,-3.5995,-3.5996,-3.5996,-3.5996,-3.5996,-3.5996,-3.5996,-3.5996,-3.5996,-3.5996,-3.5996,-3.5996,-3.5996,-3.5996,-3.5996,-3.5996,-3.5996,-3.5996,-3.5996,-3.5996,-3.5996,-3.5996,-3.5996,-3.5996,-3.5996,-3.5996,-3.5996,-3.5996,-3.5996,-3.5996,-3.5996,-3.5995,-3.6006,-3.5992,-3.6009,-3.5992,-3.5992,-3.5992]},{"header":{"parameterUnit":"m.s-1","parameterCategory":1,"la1":30.6,"la2":29.2853,"lo1":-89.7004,"lo2":-87.6739,"dy":0.0162,"dx":0.0183,"nx":112,"ny":82,"refTime":"2024-07-25T06:00:00:Z","depth":0,"parameterNumber":3,"parameterNumberName":"V-component_of_WINDS"},"data":[0.0,0.0,0.0,0.0,0.0,0.0,0.0,0.0,0.0,0.0,0.0,0.0,0.0,0.0,0.0,0.0,0.0,0.0,0.0,0.0,0.0,0.0,0.0,0.0,0.0,0.0,0.0,0.0,0.0,0.0,0.0,0.0,0.0,0.0,0.0,0.0,0.0,0.0,0.0,0.0,0.0,0.0,0.0,0.0,0.0,0.0,0.0,0.0,0.0,0.0,0.0,0.0,0.0,0.0,0.0,0.0,0.0,0.0,0.0,0.0,0.0,0.0,0.0,0.0,0.0,0.0,0.0,0.0,0.0,0.0,0.0,0.0,0.0,0.0,0.0,0.0,0.0,0.0,0.0,0.0,0.0,0.0,0.0,0.0,0.0,0.0,0.0,0.0,0.0,0.0,0.6731,0.8399,1.027,1.1365,1.1267,1.1583,1.1091,0.9448,0.0,0.0,0.0,0.0,0.0,0.0,0.0,0.0,0.0,0.0,0.0,0.0,0.0,0.0,0.0,0.0,0.0,0.0,0.0,0.0,0.0,0.0,0.0,0.0,0.0,0.0,0.0,0.0,0.0,0.0,0.0,0.0,0.0,0.0,0.0,0.0,0.0,0.0,0.0,0.0,0.0,0.0,0.0,0.0,0.0,0.0,0.0,0.0,0.0,0.0,0.0,0.0,0.0,0.0,0.0,0.0,0.0,0.0,0.0,0.0,0.0,0.0,0.0,0.0,0.0,0.0,0.0,0.0,0.0,0.0,0.0,0.0,0.0,0.0,0.0,0.0,0.0,0.0,0.0,0.0,0.0,0.0,0.0,0.0,0.0,0.0,0.0,0.0,0.0,0.0,0.0,0.0,0.0,0.0,0.0,0.0,0.0,0.0,0.0,0.0,0.0,0.0,0.0,0.0,0.693,0.9104,1.0573,1.1406,1.145,1.0803,1.0156,0.9585,0.0,0.0,0.0,0.0,0.0,0.0,0.0,0.0,0.0,0.0,0.0,0.0,0.0,0.0,0.0,0.0,0.0,0.0,0.0,0.0,0.0,0.0,0.0,0.0,0.0,0.0,0.0,0.0,0.0,0.0,0.0,0.0,0.0,0.0,0.0,0.0,0.0,0.0,0.0,0.0,0.0,0.0,0.0,0.0,0.0,0.0,0.0,0.0,0.0,0.0,0.0,0.0,0.0,0.0,0.0,0.0,0.0,0.0,0.0,0.0,0.0,0.0,0.0,0.0,0.0,0.0,0.0,0.0,0.0,0.0,0.0,0.0,0.0,0.0,0.0,0.0,0.0,0.0,0.0,0.0,0.0,0.0,0.0,0.0,0.0,0.0,0.0,0.0,0.0,0.0,0.0,0.0,0.0,0.0,0.0,0.0,0.0,0.0,0.0,0.0,0.0,0.0,0.0,0.6443,0.7619,0.9219,1.0342,1.1061,1.1317,1.0513,0.9804,0.935,0.8639,0.0,0.0,0.0,0.0,0.0,0.0,0.0,0.0,0.0,0.0,0.0,0.0,0.0,0.0,0.0,0.0,0.0,0.0,0.0,0.0,0.0,0.0,0.0,0.0,0.0,0.0,0.0,0.0,0.0,0.0,0.0,0.0,0.0,0.0,0.0,0.0,0.0,0.0,0.0,0.0,0.0,0.0,0.0,0.0,0.0,0.0,0.0,0.0,0.0,0.0,0.0,0.0,0.0,0.0,0.0,0.0,0.0,0.0,0.0,0.0,0.0,0.0,0.0,0.0,0.0,0.0,0.0,0.0,0.0,0.0,0.0,0.0,0.0,0.0,0.0,0.0,0.0,0.0,0.0,0.0,0.0,0.0,0.0,0.0,0.0,0.0,0.0,0.0,0.0,0.0,0.0,0.0,0.0,0.0,0.0,0.0,0.0,0.0,0.0,0.0,0.0,0.0,0.7199,0.8115,0.893,0.9866,1.0582,1.1023,1.0147,0.9425,0.912,0.757,0.0,0.0,0.0,0.0,0.0,0.0,0.0,0.0,0.0,0.0,0.0,0.0,0.0,0.0,0.0,0.0,0.0,0.0,0.0,0.0,0.0,0.0,0.0,0.0,0.0,0.0,0.0,0.0,0.0,0.0,0.0,0.0,0.0,0.0,0.0,0.0,0.0,0.0,0.0,0.0,0.0,0.0,0.0,0.0,0.0,0.0,0.0,0.0,0.0,0.0,0.0,0.0,0.0,0.0,0.0,0.0,0.0,0.0,0.0,0.0,0.0,0.0,0.0,0.0,0.0,0.0,0.0,0.0,0.0,0.0,0.0,0.0,0.0,0.0,0.0,0.0,0.0,0.0,0.0,0.0,0.0,0.0,0.0,0.0,0.0,0.0,0.0,0.0,0.0,0.0,0.0,0.0,0.0,0.0,0.0,0.0,0.0,0.0,0.0,0.0,0.0,0.0,0.699,0.7899,0.8148,0.9179,1.006,1.0602,0.9392,0.8743,0.9083,0.6788,0.0,0.0,0.0,0.0,0.0,0.0,0.0,0.0,0.0,0.0,0.0,0.0,0.0,0.0,0.0,0.0,0.0,0.0,0.0,0.0,0.0,0.0,0.0,0.0,0.0,0.0,0.0,0.0,0.0,0.0,0.0,0.0,0.0,0.0,0.0,0.0,0.0,0.0,0.0,0.0,0.0,0.0,0.0,0.0,0.0,0.0,0.0,0.0,0.0,0.0,0.0,0.0,0.0,0.0,0.0,0.0,0.0,0.0,0.0,0.0,0.0,0.0,0.0,0.0,0.0,0.0,0.0,0.0,0.0,0.0,0.0,0.0,0.0,0.0,0.0,0.0,0.0,0.0,0.0,0.0,0.0,0.0,0.0,0.0,0.0,0.0,0.0,0.0,0.0,0.0,0.0,0.0,0.0,0.0,0.0,0.0,0.0,0.0,0.0,0.0,0.0,0.0,0.6521,0.7399,0.7808,0.8613,0.933,0.9873,0.9007,0.8396,0.8305,0.0,0.0,0.0,0.0,0.0,0.0,0.0,0.0,0.0,0.0,0.0,0.0,0.0,0.0,0.0,0.0,0.0,0.0,0.0,0.0,0.0,0.0,0.0,0.0,0.0,0.0,0.0,0.0,0.0,0.0,0.0,0.0,0.0,0.0,0.0,0.0,0.0,0.0,0.0,0.0,0.0,0.0,0.0,0.0,0.0,0.0,0.0,0.0,0.0,0.0,0.0,0.0,0.0,0.0,0.0,0.0,0.0,0.0,0.0,0.0,0.0,0.0,0.0,0.0,0.0,0.0,0.0,0.0,0.0,0.0,0.0,0.0,0.0,0.0,0.0,0.0,0.0,0.0,0.0,0.0,0.0,0.0,0.0,0.0,0.0,0.0,0.0,0.0,0.0,0.0,0.0,0.0,0.0,0.0,0.0,0.0,0.0,0.0,0.0,0.0,0.0,0.0,0.495,0.6014,0.6866,0.733,0.8033,0.8614,0.8985,0.8325,0.7772,0.7505,0.0,0.0,0.0,0.0,0.0,0.0,0.0,0.0,0.0,0.0,0.0,0.0,0.0,0.0,0.0,0.0,0.0,0.0,0.0,0.0,0.0,0.0,0.0,0.0,0.0,0.0,0.0,0.0,0.0,0.0,0.0,0.0,0.0,0.0,0.0,0.0,0.0,0.0,0.0,0.0,0.0,0.0,0.0,0.0,0.0,0.0,0.0,0.0,0.0,0.0,0.0,0.0,0.0,0.0,0.0,0.0,0.0,0.0,0.0,0.0,0.0,0.0,0.0,0.0,0.0,0.0,0.0,0.0,0.0,0.0,0.0,0.0,0.0,0.0,0.0,0.0,0.0,0.0,0.0,0.0,0.0,0.0,0.0,0.0,0.0,0.0,0.0,0.0,0.0,0.0,0.0,0.0,0.0,0.0,0.0,0.0,0.0,0.0,0.0,0.0,0.0,0.0,0.4483,0.5517,0.6316,0.6647,0.7395,0.7919,0.7972,0.7252,0.6797,0.0,0.0,0.0,0.0,0.0,0.0,0.0,0.0,0.0,0.0,0.0,0.0,0.0,0.0,0.0,0.0,0.0,0.0,0.0,0.0,0.0,0.0,0.0,0.0,0.0,0.0,0.0,0.0,0.0,0.0,0.0,0.0,0.0,0.0,0.0,0.0,0.0,0.0,0.0,0.0,0.0,0.0,0.0,0.0,0.0,0.0,0.0,0.0,0.0,0.0,0.0,0.0,0.0,0.0,0.0,0.0,0.0,0.0,0.0,0.0,0.0,0.0,0.0,0.0,0.0,0.0,0.0,0.0,0.0,0.0,0.0,0.0,0.0,0.0,0.0,0.0,0.0,0.0,0.0,0.0,0.0,0.0,0.0,0.0,0.0,0.0,0.0,0.0,0.0,0.0,0.0,0.0,0.0,0.0,0.0,0.0,0.0,0.0,0.0,0.0,0.0,0.0,0.0,0.3939,0.4883,0.5528,0.5621,0.6487,0.6997,0.6889,0.6734,0.6503,0.6127,0.0,0.0,0.0,0.0,0.0,0.0,0.0,0.0,0.0,0.0,0.0,0.0,0.0,0.0,0.0,0.0,0.0,0.0,0.0,0.0,0.0,0.0,0.0,0.0,0.0,0.0,0.0,0.0,0.0,0.0,0.0,0.0,0.0,0.0,0.0,0.0,0.0,0.0,0.0,0.0,0.0,0.0,0.0,0.0,0.0,0.0,0.0,0.0,0.0,0.0,0.0,0.0,0.0,0.0,0.0,0.0,0.0,0.0,0.0,0.0,0.0,0.0,0.0,0.0,0.0,0.0,0.0,0.0,0.0,0.0,0.0,0.0,0.0,0.0,0.0,0.0,0.0,0.0,0.0,0.0,0.0,0.0,0.0,0.0,0.0,0.0,0.0,0.0,0.0,0.0,0.0,0.0,0.0,0.0,0.0,0.0,0.0,0.0,0.0,0.0,0.0,0.0,0.3435,0.4244,0.4816,0.4947,0.5714,0.6097,0.5832,0.5927,0.5711,0.5039,0.0,0.0,0.0,0.0,0.0,0.0,0.0,0.0,0.0,0.0,0.0,0.0,0.0,0.0,0.0,0.0,0.0,0.0,0.0,0.0,0.0,0.0,0.0,0.0,0.0,0.0,0.0,0.0,0.0,0.0,0.0,0.0,0.0,0.0,0.0,0.0,0.0,0.0,0.0,0.0,0.0,0.0,0.0,0.0,0.0,0.0,0.0,0.0,0.0,0.0,0.0,0.0,0.0,0.0,0.0,0.0,0.0,0.0,0.0,0.0,0.0,0.0,0.0,0.0,0.0,0.0,0.0,0.0,0.0,0.0,0.0,0.0,0.0,0.0,0.0,0.0,0.0,0.0,0.0,0.0,0.0,0.0,0.0,0.0,0.0,0.0,0.0,0.0,0.0,0.0,0.0,0.0,0.0,0.0,0.0,0.0,0.0,0.0,0.0,0.0,0.0,0.0,0.2977,0.3639,0.4161,0.4471,0.5065,0.5246,0.4844,0.4966,0.4682,0.3832,0.0,0.0,0.0,0.0,0.0,0.0,0.0,0.0,0.0,0.0,0.0,0.0,0.0,0.0,0.0,0.0,0.0,0.0,0.0,0.0,0.0,0.0,0.0,0.0,0.0,0.0,0.0,0.0,0.0,0.0,0.0,0.0,0.0,0.0,0.0,0.0,0.0,0.0,0.0,0.0,0.0,0.0,0.0,0.0,0.0,0.0,0.0,0.0,0.0,0.0,0.0,0.0,0.0,0.0,0.0,0.0,0.0,0.0,0.0,0.0,0.4489,0.451,0.0,0.0,0.0,0.0,0.0,0.0,0.0,0.0,0.0,0.0,0.0,0.0,0.0,0.0,0.0,0.0,0.0,0.0,0.0,0.0,0.0,0.0,0.0,0.0,0.0,0.0,0.0,0.0,0.0,0.0,0.0,0.0,0.0,0.0,0.0,0.0,0.0,0.0,0.0,0.0,0.2703,0.323,0.3641,0.3866,0.443,0.4623,0.4227,0.4508,0.4403,0.3688,0.3286,0.0,0.0,0.0,0.0,0.0,0.0,0.0,0.0,0.0,0.0,0.0,0.0,0.0,0.0,0.0,0.0,0.0,0.0,0.0,0.0,0.0,0.0,0.0,0.0,0.0,0.0,0.0,0.0,0.0,0.0,0.0,0.0,0.0,0.0,0.0,0.0,0.0,0.0,0.0,0.0,0.0,0.0,0.0,0.0,0.0,0.0,0.0,0.0,0.0,0.0,0.0,0.0,0.0,0.0,0.0,0.0,0.0,0.0,0.0,0.4397,0.444,0.0,0.0,0.0,0.0,0.0,0.0,0.0,0.0,0.0,0.0,0.0,0.0,0.0,0.0,0.0,0.0,0.0,0.0,0.0,0.0,0.0,0.0,0.0,0.0,0.0,0.0,0.0,0.0,0.0,0.0,0.0,0.0,0.0,0.0,0.0,0.0,0.0,0.0,0.0,0.0,0.1975,0.2331,0.2685,0.308,0.347,0.3673,0.3668,0.3847,0.3751,0.3207,0.3002,0.0,0.0,0.0,0.0,0.0,0.0,0.0,0.0,0.0,0.0,0.0,0.0,0.0,0.0,0.0,0.0,0.0,0.0,0.0,0.0,0.0,0.0,0.0,0.0,0.0,0.0,0.0,0.0,0.0,0.0,0.0,0.0,0.0,0.0,0.0,0.0,0.0,0.0,0.0,0.0,0.0,0.0,0.0,0.0,0.0,0.0,0.0,0.0,0.0,0.0,0.0,0.0,0.0,0.418,0.4213,0.4315,0.4315,0.4262,0.4156,0.4164,0.4189,0.4188,0.386,0.0,0.0,0.0,0.0,0.0,0.0,0.0,0.0,0.0,0.0,0.0,0.0,0.0,0.0,0.0,0.0,0.0,0.0,0.0,0.0,0.0,0.0,0.0517,0.0414,0.0333,0.039,0.0705,0.0,0.0,0.0,0.0,0.0,0.0,0.0,0.0,0.0,0.0,0.0,0.1262,0.147,0.1795,0.2319,0.2469,0.2679,0.2968,0.3021,0.2863,0.251,0.2597,0.2487,0.0,0.0,0.0,0.0,0.0,0.0,0.0,0.0,0.0,0.0,0.0,0.0,0.0,0.0,0.0,0.0,0.0,0.0,0.0,0.0,0.0,0.0,0.0,0.0,0.0,0.0,0.0,0.0,0.0,0.0,0.0,0.0,0.402,0.3838,0.0,0.0,0.0,0.0,0.0,0.0,0.0,0.0,0.0,0.0,0.0,0.0,0.0,0.3462,0.389,0.3688,0.3643,0.3707,0.4157,0.4365,0.4378,0.4378,0.4365,0.436,0.4126,0.0,0.3832,0.3261,0.0,0.0,0.0,0.0,0.0,0.0,0.0,0.0,0.0,0.0,0.0,0.0,0.0,0.0,0.0,0.0,0.0,0.0,0.0,0.0,0.0,0.0,0.0329,0.0319,0.0314,0.0309,0.0294,0.0311,0.0322,0.0256,0.0185,0.0131,0.0,0.0,0.0,0.0,0.0,0.0,0.1263,0.1486,0.1671,0.1873,0.1912,0.1883,0.1836,0.1883,0.1829,0.166,0.1934,0.2082,0.2015,0.2036,0.0,0.0,0.0,0.0,0.0,0.0,0.0,0.0,0.0,0.0,0.0,0.0,0.0,0.0,0.0,0.0,0.0,0.0,0.0,0.0,0.0,0.0,0.0,0.0,0.0,0.0,0.0,0.0,0.0,0.4024,0.4321,0.4017,0.4293,0.4311,0.0,0.0,0.0,0.0,0.0,0.0,0.0,0.0,0.0,0.276,0.3001,0.3278,0.3594,0.36,0.36,0.36,0.3839,0.4031,0.4161,0.4161,0.4161,0.4187,0.4244,0.4144,0.3872,0.3458,0.3194,0.3019,0.0,0.0,0.0,0.0,0.234,0.2462,0.2121,0.1818,0.1523,0.1237,0.0,0.0,0.0,0.0,0.0,0.0,0.0,0.03,0.021,0.0178,0.0188,0.0147,0.0122,0.0121,0.0098,0.0115,0.0125,0.0146,0.0122,0.0098,0.0107,0.0096,0.0,0.0,0.0,0.0419,0.0602,0.0666,0.0854,0.1246,0.1297,0.1385,0.158,0.1629,0.158,0.1406,0.1529,0.1578,0.1491,0.1527,0.1454,0.0,0.0,0.0,0.0,0.0,0.0,0.0,0.0,0.0,0.0,0.0,0.0,0.0,0.0,0.0,0.0,0.0,0.0,0.0,0.0,0.0,0.0,0.0,0.0,0.0,0.0,0.0,0.0,0.3791,0.3929,0.3712,0.3618,0.346,0.0,0.0,0.0,0.0,0.0,0.0,0.2159,0.2311,0.2414,0.2473,0.2703,0.2925,0.3132,0.3137,0.3137,0.3137,0.3456,0.3699,0.3885,0.3885,0.3885,0.3885,0.3514,0.3206,0.3019,0.3417,0.3446,0.3189,0.2846,0.2521,0.2217,0.1916,0.1773,0.1702,0.158,0.1327,0.1007,0.0889,0.0601,0.0303,0.0213,0.0,0.0,0.0,0.0,0.0154,0.0046,0.0048,0.005,-0.0026,-0.0026,0.0,0.0,0.0,0.0025,0.0064,0.0083,0.0078,0.0081,0.0066,0.0,0.0077,0.0034,0.0019,0.006,0.0021,0.0173,0.0625,0.0672,0.0818,0.1157,0.1205,0.1157,0.1005,0.1097,0.1132,0.1024,0.1128,0.106,0.0808,0.0,0.0,0.0,0.0,0.0,0.0,0.0,0.0,0.0,0.0,0.0,0.0,0.0,0.0,0.0,0.0,0.0,0.0,0.0,0.0,0.0,0.0,0.0,0.0,0.0,0.0,0.0,0.0,0.0,0.2283,0.2023,0.0,0.0,0.0,0.0,0.1109,0.0981,0.0928,0.099,0.0985,0.1521,0.2652,0.2444,0.2203,0.188,0.1881,0.1881,0.1909,0.3042,0.3599,0.361,0.361,0.361,0.3499,0.1203,0.0224,0.0364,0.2666,0.3597,0.3583,0.3558,0.2837,0.1873,0.2241,0.1878,0.1236,0.1164,0.1107,0.1011,0.0574,0.0411,0.0347,0.0167,0.0184,0.0,0.0,0.0095,0.0048,-0.013,-0.0079,-0.0027,-0.0166,-0.0084,0.0,0.0,0.0,0.0,0.0,0.0,0.0,0.0,0.0,0.0,0.0,0.0,0.0,0.0,0.0,0.0022,0.0045,0.0045,0.0045,0.009,0.0129,0.0165,0.0157,0.058,0.0818,0.0822,0.0996,0.1097,0.1086,0.0711,0.0,0.0,0.0,0.0,0.0,0.0,0.0,0.0,0.0,0.0,0.0,0.0,0.0,0.0,0.0,0.0,0.0,0.0,0.0,0.0,0.0,0.0,0.0,0.0,0.0,0.0,0.0,0.0,0.1699,0.1511,0.0,0.1157,0.1049,0.0966,0.093,0.0849,0.0797,0.0775,0.0963,0.1225,0.1529,0.2197,0.2324,0.1797,0.1797,0.1403,0.0645,0.1091,0.1287,0.1287,0.1287,0.1287,0.1231,0.0364,0.0224,0.0643,0.1648,0.2209,0.2434,0.2434,0.2181,0.173,0.1099,0.0683,0.0437,0.0406,0.0405,0.0378,0.0187,0.013,0.0101,-0.0051,-0.0051,-0.0051,-0.0184,-0.0213,-0.024,-0.0301,-0.0303,-0.0276,-0.0307,-0.028,-0.0252,-0.0252,-0.025,-0.0246,-0.0267,-0.0128,0.0,0.0,0.0,0.0,0.0,0.0,0.0,0.0,0.0,0.0,0.0,0.0,0.0,0.0,0.0022,0.0043,0.0039,0.0193,0.0276,0.0287,0.0362,0.0393,0.0392,0.0257,0.0182,0.0,0.0,0.0,0.0,0.0,0.0,0.0,0.0,0.0,0.0,0.0,0.0,0.0,0.0,0.0,0.0,0.0,0.0,0.0,0.0,0.0,0.0,0.0,0.0,0.0,0.1528,0.1295,0.1178,0.0862,0.0625,0.0502,0.0421,0.0336,0.0296,0.025,0.0206,0.0162,0.0379,0.0519,0.0588,0.1176,0.1597,0.1797,0.1206,0.0477,-0.0308,-0.0308,-0.0196,0.0,-0.0224,-0.0308,-0.0308,-0.0224,0.0028,0.0419,0.0587,0.0811,0.1119,0.1595,0.1706,0.1482,0.0616,0.0168,0.0,0.0,0.0,0.0,-0.0055,-0.008,-0.0105,-0.0215,-0.0271,-0.03,-0.0362,-0.0393,-0.0421,-0.0477,-0.0449,-0.0421,-0.0477,-0.0449,-0.0393,-0.0393,-0.0393,-0.0393,-0.0393,-0.0243,-0.0128,-0.0145,-0.0124,-0.0126,-0.0071,-0.0073,-0.005,0.0,0.0,0.0,0.0,0.0,0.0,0.0,0.0,0.0,0.0,0.0,0.0,0.0,0.0,0.0,0.0,0.0,0.0,0.0,0.0,0.0,0.0,0.0,0.0,0.0,0.0,0.0,0.0,0.0,0.0,0.0,0.0,0.0,0.0,0.0,0.0,0.0,0.0,0.0,0.0,0.0,0.0,0.1645,0.0851,0.03,0.0627,0.0024,-0.0424,-0.0506,-0.0641,-0.0773,-0.088,-0.0908,-0.0898,-0.0898,-0.0898,-0.0645,-0.0056,-0.0589,-0.0056,0.1713,-0.0028,-0.0898,-0.0898,-0.0898,-0.0589,-0.0056,-0.0645,-0.0898,-0.087,-0.0673,-0.0589,-0.0589,-0.0449,-0.0393,-0.028,0.1175,0.1482,0.1118,0.0925,0.0477,0.0,0.0,0.0,-0.0028,-0.0168,-0.0196,-0.0224,-0.0364,-0.0421,-0.0421,-0.0421,-0.0421,-0.0449,-0.0645,-0.0561,-0.0477,-0.0673,-0.0561,-0.0421,-0.0421,-0.0421,-0.0421,-0.0421,-0.0421,-0.0416,-0.0402,-0.04,-0.0369,-0.0229,-0.0202,0.0,-0.0025,0.0,0.0,0.0,0.0,0.0,0.0,0.0,0.0,0.0,0.0,0.0,0.0,0.0,0.0,0.0,0.0,0.0,0.0,0.0,0.0,0.0,0.0,0.0,0.0,0.0,0.0,0.0,0.0,0.0,0.0,0.0,0.0,0.0,0.0,0.0,0.0,0.0,0.0,0.0,0.0224,0.0162,0.0525,0.0157,-0.0195,-0.0304,-0.0504,-0.0652,-0.0781,-0.0821,-0.0857,-0.0885,-0.0892,-0.0898,-0.0898,-0.0898,-0.0814,-0.0645,-0.0813,-0.0673,-0.0168,-0.0645,-0.0898,-0.0898,-0.0898,-0.0813,-0.0645,-0.0814,-0.0814,-0.0673,-0.0617,-0.0617,-0.0645,-0.0477,-0.0533,-0.0701,-0.0056,0.014,0.0028,-0.0028,-0.014,-0.028,-0.028,-0.028,-0.0308,-0.0336,-0.0336,-0.0393,-0.0561,-0.0617,-0.0645,-0.0729,-0.0757,-0.0785,-0.0842,-0.0813,-0.0785,-0.0842,-0.0813,-0.0757,-0.0757,-0.0757,-0.0757,-0.0757,-0.0757,-0.0699,-0.0443,-0.0387,-0.0386,-0.0355,-0.0355,-0.0327,-0.03,-0.0293,-0.0262,-0.0157,-0.0152,-0.0098,0.0,0.0,0.0,0.0,0.0,0.0,0.0,0.0,0.0,0.0,0.0,-0.0028,0.0,0.0,0.0,0.0,0.0,0.0,0.0,0.0,0.0,0.0,0.0,0.0,0.0,0.0,0.0,0.0,0.0,0.0,0.0,0.0,0.0,0.0,-0.0237,-0.0367,-0.0257,-0.0372,-0.0523,-0.0677,-0.0748,-0.087,-0.1038,-0.0954,-0.0954,-0.1066,-0.0954,-0.0898,-0.0898,-0.0913,-0.0951,-0.0951,-0.0931,-0.0935,-0.0935,-0.091,-0.0898,-0.0898,-0.0898,-0.0898,-0.0898,-0.0898,-0.0842,-0.0729,-0.0729,-0.0757,-0.0785,-0.0645,-0.0729,-0.087,0.0,0.0,0.0,0.0,-0.0393,-0.0393,-0.0393,-0.0393,-0.0421,-0.0505,-0.0533,-0.0561,-0.0729,-0.0785,-0.0813,-0.087,-0.0898,-0.0898,-0.0898,-0.0898,-0.0898,-0.0898,-0.0898,-0.0898,-0.0898,-0.0898,-0.0898,-0.0898,-0.0898,0.0,-0.0645,-0.0617,-0.0589,-0.0533,-0.0533,-0.0505,-0.0421,-0.0413,-0.0381,-0.0299,-0.029,-0.0256,-0.0176,-0.017,0.0,0.0,0.0,-0.0156,-0.0124,-0.0123,0.0,0.0,0.0,0.0,0.0,0.0,0.0,0.0,-0.0977,-0.1163,0.0,0.0,0.0,0.0,0.0,0.0,0.0,0.0,0.0,0.0,0.0,0.0,0.0,0.0,0.0,0.0,-0.0558,-0.0719,-0.072,-0.075,-0.0759,-0.0755,-0.087,-0.1038,-0.129,-0.1094,-0.1039,-0.1242,-0.1044,-0.0904,-0.0908,-0.0971,0.0,0.0,0.0,-0.0989,-0.0991,-0.0938,-0.091,-0.0908,-0.0908,-0.0909,-0.0911,-0.0911,-0.091,-0.0908,-0.0908,-0.0908,-0.0908,-0.0908,-0.0906,-0.0874,-0.0562,-0.0533,-0.0617,-0.0505,-0.0449,-0.0449,-0.0449,0.0,0.0,-0.0673,-0.0729,-0.0757,-0.087,-0.0898,-0.0898,-0.0898,-0.0898,-0.0898,-0.0898,-0.0898,-0.0898,-0.0898,-0.0898,-0.0898,-0.0898,-0.0898,-0.0898,-0.0898,-0.0898,-0.0898,-0.0898,-0.0898,-0.087,-0.0729,-0.0729,-0.0645,-0.0449,-0.0449,-0.0449,-0.0393,-0.0409,0.0,-0.0399,-0.0402,-0.0409,-0.0404,-0.0397,-0.0378,-0.0313,-0.0363,-0.0397,-0.0397,-0.0446,-0.0716,-0.1192,-0.1231,-0.1488,-0.1919,-0.194,-0.2006,0.0,0.0,0.0,0.0,0.0,0.0,0.0,0.0,0.0,0.0,0.0,0.0,0.0,0.0,0.0,-0.0584,-0.0769,-0.0854,-0.0857,-0.1055,-0.1198,-0.1177,-0.1206,-0.1234,-0.1291,-0.1262,-0.1163,-0.0991,-0.0934,-0.0915,-0.0969,-0.0978,-0.1013,-0.1013,-0.0986,-0.0996,-0.1011,-0.0999,-0.0986,-0.0971,-0.0971,0.0,-0.0993,-0.0993,-0.0985,-0.0971,-0.0971,-0.0971,-0.0971,-0.0971,-0.0956,-0.0903,-0.0822,-0.0814,-0.0842,-0.0813,-0.0813,-0.0813,-0.0813,-0.0813,-0.0813,-0.0842,-0.087,-0.087,-0.0898,-0.0898,0.0,-0.0898,-0.0898,-0.0898,-0.0898,-0.0898,-0.0898,-0.0898,-0.0898,-0.0898,-0.0898,-0.0898,-0.0898,-0.0898,-0.0898,-0.0898,-0.0898,-0.0898,-0.0898,-0.087,-0.087,-0.0813,-0.0673,-0.0729,-0.0701,-0.0421,-0.0557,-0.0577,-0.0427,-0.0394,-0.0402,-0.0389,-0.039,-0.0395,-0.0385,-0.0746,-0.0948,-0.0948,-0.1317,-0.1589,-0.1755,-0.2071,-0.2352,-0.2604,-0.2339,-0.2231,0.0,0.0,0.0,0.0,0.0,0.0,0.0,0.0,0.0,0.0,0.0,0.002,-0.0088,0.0,-0.0611,-0.0764,-0.0865,-0.0935,-0.1091,-0.1094,-0.115,-0.129,-0.1291,-0.1374,-0.1541,-0.1452,-0.1332,-0.1177,-0.1195,-0.1153,-0.1018,-0.1003,-0.1011,-0.1011,-0.1024,-0.1037,-0.1046,-0.1032,-0.0989,-0.1011,-0.0996,-0.0993,-0.1002,-0.1002,-0.0997,-0.0988,-0.0988,-0.0988,-0.0988,-0.0988,-0.098,-0.0964,-0.0949,-0.0924,-0.0901,-0.0932,-0.0933,-0.0893,-0.0938,-0.0943,-0.0943,-0.0943,-0.0943,-0.0943,-0.0943,-0.0943,-0.094,-0.0895,-0.0891,-0.0888,-0.0901,-0.0898,-0.0898,-0.0898,-0.0898,-0.0898,-0.0898,-0.0898,-0.0898,-0.0898,-0.0898,-0.0898,-0.0898,-0.0898,-0.0898,-0.0898,-0.0898,-0.087,-0.0813,-0.087,-0.0842,-0.0673,-0.0729,-0.0752,-0.0657,-0.0646,-0.0743,-0.0932,-0.0954,-0.1034,-0.124,-0.1466,-0.1591,-0.1591,-0.1842,-0.2104,-0.2402,-0.2592,-0.2881,-0.3209,-0.3095,-0.3013,0.0,0.0,0.0,0.0,0.0,0.0,0.0,0.0394,0.0255,0.0322,-0.0044,-0.0388,-0.0376,-0.0564,-0.0762,-0.089,-0.0954,-0.1038,-0.1206,-0.115,-0.1122,-0.129,-0.1291,-0.1405,-0.1695,-0.1623,-0.1511,-0.135,-0.1441,-0.1371,-0.1036,-0.1029,-0.1009,-0.1009,-0.1064,-0.1109,-0.1109,-0.1053,-0.1009,-0.1009,-0.1017,-0.1005,-0.1005,-0.1005,-0.1005,-0.1005,-0.1005,-0.1005,-0.1005,-0.1005,-0.1002,-0.0998,-0.1003,-0.0969,-0.0921,-0.097,-0.0973,-0.0925,-0.098,-0.0988,-0.0988,-0.0988,-0.0988,-0.0988,-0.0988,-0.0988,-0.0982,-0.0922,-0.0913,-0.0907,-0.0905,-0.0898,-0.0898,-0.0898,-0.0898,-0.0898,-0.0898,-0.0898,-0.0898,-0.0898,-0.0898,-0.0898,-0.0898,-0.0898,-0.0898,-0.0898,-0.0898,-0.0898,-0.087,-0.0898,-0.0898,-0.087,-0.0898,-0.0898,-0.0898,-0.1005,-0.1194,-0.1515,-0.1643,-0.1869,-0.2179,-0.2284,-0.2327,-0.2327,-0.2392,-0.265,-0.3106,-0.3083,-0.3289,-0.3689,-0.3782,-0.3758,0.0639,0.0554,0.0375,0.0019,-0.0037,-0.0039,0.0,-0.03,-0.0315,-0.0292,-0.0483,-0.0652,-0.066,-0.0788,-0.089,-0.0896,-0.1094,-0.1178,-0.0982,-0.1372,-0.1596,-0.1318,-0.1291,-0.1334,-0.1433,-0.1703,-0.1627,-0.1083,-0.1377,-0.1426,-0.1098,-0.1102,-0.1104,-0.1104,-0.1107,-0.1109,-0.1109,-0.1106,-0.1104,-0.1104,-0.1101,-0.1099,-0.1099,-0.1099,-0.1099,-0.1099,-0.1099,-0.1099,-0.1099,-0.1099,-0.1051,-0.0999,-0.1056,-0.1062,-0.0979,-0.0986,-0.0986,-0.0984,-0.0987,-0.0988,-0.0988,-0.0988,-0.0988,-0.0988,-0.0988,-0.0988,-0.0982,-0.0922,-0.0913,-0.0907,-0.0905,-0.0898,-0.0898,-0.0898,-0.0898,-0.0898,-0.0898,-0.0898,-0.0898,-0.0898,-0.0898,-0.0898,-0.0898,-0.0898,-0.0898,-0.0898,-0.0898,-0.087,-0.0729,-0.0814,-0.0842,-0.0729,-0.0842,-0.0898,-0.0898,-0.1329,-0.1641,-0.168,-0.2186,-0.2486,-0.2536,-0.2933,-0.3159,-0.3159,-0.3455,-0.3697,-0.387,-0.3761,-0.3788,-0.3947,-0.396,-0.3914,0.0076,-0.002,-0.0105,-0.0276,-0.0289,-0.0305,-0.0373,-0.0501,-0.0531,-0.0425,-0.0625,-0.0796,-0.0714,-0.0944,-0.1122,-0.1122,-0.1234,-0.1318,-0.14,-0.1344,-0.1289,-0.1291,-0.115,-0.1128,-0.1317,-0.1539,-0.1467,-0.1036,-0.1362,-0.1461,-0.1109,-0.1109,-0.1109,-0.1109,-0.1109,-0.1109,-0.1109,-0.1109,-0.1109,-0.1109,-0.1109,-0.1109,-0.1109,-0.1109,-0.1109,-0.1109,-0.1109,-0.1109,-0.1109,-0.1109,-0.1069,-0.1059,-0.1104,-0.1094,-0.1071,-0.1071,-0.1029,-0.1017,-0.1033,-0.1071,-0.1071,-0.1071,-0.1071,-0.1071,-0.1071,-0.1071,-0.1033,-0.0973,-0.0952,-0.0962,-0.0903,-0.0911,-0.0898,-0.0898,-0.0898,-0.0898,-0.0898,-0.0898,-0.0898,-0.0898,-0.0898,-0.0898,-0.0898,-0.0898,-0.0898,-0.0898,-0.0898,-0.087,-0.0814,-0.087,-0.087,-0.0814,-0.087,-0.0898,-0.0898,-0.1436,-0.1873,-0.2156,-0.2724,-0.3161,-0.3415,-0.3593,-0.372,-0.372,-0.3835,-0.3933,-0.3994,-0.3955,-0.3958,-0.3998,-0.4085,-0.4092,-0.0324,-0.0436,-0.0523,-0.0513,-0.0524,-0.053,-0.0548,-0.0663,-0.0707,-0.0558,-0.0729,-0.087,-0.0785,-0.1066,-0.1262,-0.1206,-0.1328,-0.1473,-0.1542,-0.1243,-0.1077,-0.118,-0.101,-0.0982,-0.1178,-0.1386,-0.1349,-0.103,-0.1365,-0.1467,-0.1109,-0.1109,-0.1109,-0.1109,-0.1109,-0.1109,-0.1109,-0.1109,-0.1109,-0.1109,-0.1109,-0.1109,-0.1109,-0.1109,-0.1109,-0.1109,-0.1109,-0.1109,-0.1109,-0.1109,-0.1109,-0.1109,-0.1109,-0.1109,-0.1109,-0.1109,-0.1063,-0.1048,-0.1069,-0.1109,-0.1109,-0.1109,-0.1109,-0.1109,-0.1109,-0.1109,-0.1069,-0.1009,-0.1145,-0.1303,-0.1234,-0.1378,-0.1465,-0.1253,-0.1193,-0.1134,-0.0955,-0.0898,-0.0898,-0.0898,-0.0898,-0.0898,-0.0898,-0.0898,-0.0898,-0.0898,-0.0898,-0.0898,-0.0898,-0.0898,-0.0898,-0.0898,-0.0898,-0.0981,-0.1121,-0.1706,-0.227,-0.2781,-0.3366,-0.3831,-0.4122,-0.4141,-0.4141,-0.4141,-0.4078,-0.4078,-0.4141,-0.4078,-0.4078,-0.4144,-0.423,-0.4281,-0.0554,-0.0695,-0.0864,-0.0797,-0.0828,-0.0886,-0.0888,-0.0896,-0.0896,-0.0897,-0.0898,-0.0898,-0.0898,-0.1122,-0.1206,-0.0954,-0.141,-0.1597,-0.1014,-0.1183,-0.128,-0.0957,-0.0898,-0.0898,-0.0898,-0.1273,-0.1363,-0.1028,-0.1387,-0.1469,-0.1107,-0.1109,-0.1109,-0.1109,-0.1109,-0.1109,-0.1109,-0.1109,-0.1109,-0.1109,-0.1109,-0.1109,-0.1109,-0.1109,-0.1109,-0.1109,-0.1109,-0.1109,-0.1109,-0.1109,-0.1109,-0.1109,-0.1109,-0.1109,-0.1109,-0.1109,-0.1109,-0.1108,-0.1109,-0.1109,-0.1109,-0.1109,-0.1109,-0.1109,-0.1109,-0.1109,-0.1069,-0.1009,-0.1515,-0.2078,-0.2078,-0.2552,-0.2863,-0.2129,-0.1967,-0.1775,-0.1045,-0.0898,-0.0898,-0.0898,-0.0898,-0.0898,-0.0898,-0.0898,-0.0898,-0.0898,-0.0898,-0.0898,-0.0898,-0.0898,-0.0898,-0.0898,-0.0898,-0.1149,-0.1734,-0.2319,-0.2929,-0.3536,-0.4122,-0.4481,-0.4477,-0.4477,-0.4477,-0.4477,-0.4284,-0.4281,-0.4477,-0.4281,-0.4287,-0.4477,-0.4481,-0.4484,-0.1935,-0.2119,-0.2232,-0.2308,-0.2273,-0.2124,-0.1732,-0.1568,-0.1372,-0.0981,-0.0898,-0.0898,-0.0898,-0.1122,-0.1262,-0.1178,-0.1384,-0.1554,-0.1565,-0.1517,-0.141,-0.131,-0.1299,-0.1185,-0.0929,-0.1025,-0.108,-0.1001,-0.1118,-0.1176,-0.1108,-0.1109,-0.1109,-0.1109,-0.1109,-0.1109,-0.1109,-0.1109,-0.1109,-0.1109,-0.1109,-0.1109,-0.1109,-0.1109,-0.1109,-0.1109,-0.1109,-0.1109,-0.1109,-0.1109,-0.1109,-0.1109,-0.1109,-0.1109,-0.1109,-0.1109,-0.1109,-0.1109,-0.1109,-0.1109,-0.1109,-0.1109,-0.1109,-0.1109,-0.1109,-0.1109,-0.1174,-0.1628,-0.157,-0.1609,-0.2573,-0.2281,-0.1752,-0.2008,-0.1673,-0.1203,-0.0959,-0.0912,-0.0898,-0.0898,-0.0898,-0.0898,-0.0898,-0.0898,-0.0898,-0.0898,-0.0898,-0.0898,-0.0898,-0.0898,-0.0898,-0.0898,-0.0898,-0.1149,-0.1762,-0.2347,-0.2959,-0.3569,-0.4156,-0.4491,-0.4491,-0.4491,-0.4491,-0.4491,-0.444,-0.444,-0.4491,-0.444,-0.4443,-0.4491,-0.4491,-0.4491,-0.2777,-0.289,-0.2872,-0.2877,-0.269,-0.2404,-0.2014,-0.1874,-0.1673,-0.127,-0.1102,-0.1042,-0.1002,-0.1163,-0.1276,-0.1182,-0.1289,-0.1473,-0.1736,-0.1495,-0.1363,-0.1473,-0.1402,-0.1223,-0.096,-0.0929,-0.0942,-0.1002,-0.0991,-0.1013,-0.1108,-0.1109,-0.1109,-0.1109,-0.1109,-0.1109,-0.1109,-0.1109,-0.1109,-0.1109,-0.1109,-0.1109,-0.1109,-0.1109,-0.1109,-0.1109,-0.1109,-0.1109,-0.1109,-0.1109,-0.1109,-0.1109,-0.1109,-0.1109,-0.1109,-0.1109,-0.1109,-0.1109,-0.1109,-0.1109,-0.1109,-0.1109,-0.1109,-0.1143,-0.1377,-0.1276,-0.131,-0.2213,-0.2153,-0.206,-0.3292,-0.3089,-0.2629,-0.282,-0.2279,-0.1632,-0.1361,-0.1072,-0.0911,-0.09,-0.0898,-0.0898,-0.0898,-0.0898,-0.0898,-0.0898,-0.0898,-0.0898,-0.0898,-0.0898,-0.0898,-0.0898,-0.1093,-0.1456,-0.2068,-0.2681,-0.3292,-0.3876,-0.4294,-0.4491,-0.4491,-0.4491,-0.4491,-0.4491,-0.4491,-0.4491,-0.4491,-0.4491,-0.4491,-0.4491,-0.4491,-0.4491,-0.3143,-0.3021,-0.2841,-0.2631,-0.2235,-0.1902,-0.1874,-0.1843,-0.1825,-0.1713,-0.1486,-0.1284,-0.1212,-0.1257,-0.1225,-0.0977,-0.1184,-0.1416,-0.1507,-0.1246,-0.1149,-0.1455,-0.1238,-0.1054,-0.1022,-0.1023,-0.1036,-0.1033,-0.1002,-0.1013,-0.1108,-0.1109,-0.1109,-0.1109,-0.1109,-0.1109,-0.1109,-0.1109,-0.1109,-0.1109,-0.1109,-0.1109,-0.1109,-0.1109,-0.1109,-0.1109,-0.1109,-0.1109,-0.1109,-0.1109,-0.1109,-0.1109,-0.1109,-0.1109,-0.1109,-0.1109,-0.1109,-0.1109,-0.1109,-0.1109,-0.1109,-0.1109,-0.1109,-0.121,-0.1913,-0.1644,-0.1444,-0.2848,-0.3215,-0.3382,-0.4154,-0.4821,-0.5091,-0.4368,-0.3692,-0.2971,-0.2178,-0.1443,-0.0934,-0.0903,-0.0898,-0.0898,-0.0898,-0.0898,-0.0898,-0.0898,-0.0926,-0.0926,-0.0898,-0.0926,-0.0953,-0.0953,-0.1483,-0.2097,-0.2708,-0.3264,-0.3849,-0.446,-0.4491,-0.4491,-0.4491,-0.4491,-0.4491,-0.4491,-0.4491,-0.4491,-0.4491,-0.4491,-0.4491,-0.4491,-0.4491,-0.4491,-0.4036,-0.4074,-0.3999,-0.3705,-0.3461,-0.3183,-0.271,-0.2495,-0.2243,-0.1676,-0.1326,-0.1187,-0.1257,-0.1287,-0.1315,-0.1354,-0.1388,-0.1515,-0.1823,-0.1638,-0.1478,-0.1562,-0.1755,-0.1764,-0.1469,-0.1463,-0.1453,-0.143,-0.1176,-0.1013,-0.1108,-0.1109,-0.1109,-0.1109,-0.1109,-0.1109,-0.1109,-0.1109,-0.1109,-0.1109,-0.1109,-0.1109,-0.1109,-0.1109,-0.1109,-0.1109,-0.1109,-0.1109,-0.1109,-0.1109,-0.1109,-0.1109,-0.1109,-0.1109,-0.1109,-0.1109,-0.1109,-0.1109,-0.1109,-0.1109,-0.1109,-0.1109,-0.1109,-0.121,-0.1913,-0.198,-0.2147,-0.3618,-0.3618,-0.3482,-0.4791,-0.4456,-0.3844,-0.4183,-0.3716,-0.2989,-0.224,-0.1884,-0.1544,-0.1016,-0.0898,-0.0898,-0.0898,-0.0898,-0.0898,-0.0898,-0.1288,-0.14,-0.0953,-0.1288,-0.1568,-0.1568,-0.2097,-0.2708,-0.332,-0.3514,-0.3849,-0.446,-0.4491,-0.4491,-0.4491,-0.4491,-0.4491,-0.4491,-0.4491,-0.4491,-0.4491,-0.4491,-0.4491,-0.4491,-0.4491,-0.4491,-0.454,-0.4399,-0.4187,-0.383,-0.3522,-0.3219,-0.2772,-0.258,-0.236,-0.1786,-0.1517,-0.1322,-0.1236,-0.1286,-0.1296,-0.1177,-0.1257,-0.1465,-0.1745,-0.1676,-0.1651,-0.1836,-0.2066,-0.2107,-0.1875,-0.17,-0.1622,-0.1643,-0.1269,-0.1059,-0.1109,-0.1109,-0.1109,-0.1109,-0.1109,-0.1109,-0.1109,-0.1109,-0.1109,-0.1109,-0.1089,-0.1095,-0.1096,-0.1144,-0.115,-0.115,-0.115,-0.1142,-0.1095,-0.1095,-0.1088,-0.1109,-0.1109,-0.1109,-0.1109,-0.1109,-0.1109,-0.1109,-0.1109,-0.1109,-0.1109,-0.1109,-0.131,-0.1678,-0.238,-0.2581,-0.2882,-0.4353,-0.402,-0.3551,-0.5024,-0.432,-0.3382,-0.412,-0.3475,-0.2598,-0.218,-0.183,-0.1423,-0.0983,-0.0889,-0.0913,-0.09,-0.0898,-0.0898,-0.0898,-0.1428,-0.1679,-0.1344,-0.1818,-0.2207,-0.2207,-0.2736,-0.3236,-0.3569,-0.3849,-0.4128,-0.4491,-0.4491,-0.4491,-0.4491,-0.4491,-0.4491,-0.4491,-0.4491,-0.4491,-0.4491,-0.4491,-0.4491,-0.4491,-0.4491,-0.4491,-0.4679,-0.4301,-0.3885,-0.3413,-0.2998,-0.2642,-0.2435,-0.2374,-0.2285,-0.1935,-0.1736,-0.1514,-0.1181,-0.128,-0.1269,-0.0853,-0.1097,-0.1399,-0.1556,-0.1575,-0.1751,-0.2146,-0.2255,-0.2255,-0.2188,-0.1884,-0.1698,-0.167,-0.1334,-0.1117,-0.1121,-0.1122,-0.1122,-0.1122,-0.1122,-0.1122,-0.1122,-0.1122,-0.1122,-0.1122,-0.1114,-0.1127,-0.1128,-0.1191,-0.1203,-0.1203,-0.1203,-0.1151,-0.1127,-0.1127,-0.1109,-0.1116,-0.1116,-0.1113,-0.1109,-0.1109,-0.1109,-0.1109,-0.1109,-0.1109,-0.1109,-0.121,-0.1612,-0.2248,-0.3082,-0.3282,-0.3482,-0.4858,-0.4253,-0.3482,-0.4791,-0.4154,-0.3351,-0.3987,-0.3182,-0.2229,-0.2134,-0.1509,-0.0981,-0.0929,-0.0916,-0.0905,-0.0908,-0.09,-0.0926,-0.1009,-0.154,-0.1956,-0.204,-0.2486,-0.282,-0.282,-0.3347,-0.371,-0.371,-0.4211,-0.4491,-0.4491,-0.4491,-0.4491,-0.4491,-0.4491,-0.4491,-0.4491,-0.4491,-0.4491,-0.4491,-0.4491,-0.4491,-0.4491,-0.4491,-0.4491,-0.4322,-0.4049,-0.3802,-0.3023,-0.2747,-0.2642,-0.2435,-0.2305,0.0,-0.1808,-0.1455,-0.1201,-0.1192,-0.1347,-0.144,-0.1293,-0.1471,-0.1696,-0.1887,-0.1671,-0.1679,-0.214,-0.2453,-0.252,-0.2221,-0.2154,-0.1955,-0.1625,-0.1309,-0.1124,-0.1185,-0.1187,-0.1187,-0.1187,-0.1187,-0.1187,-0.1187,-0.1187,-0.1187,-0.1187,-0.1192,-0.1194,-0.1195,-0.1201,-0.1203,-0.1203,-0.1203,-0.12,-0.1194,-0.1194,-0.114,-0.1113,-0.1113,-0.1097,-0.1109,-0.1109,-0.1109,-0.1109,-0.1109,-0.1109,-0.1176,-0.1745,-0.2013,-0.2347,-0.3718,-0.3685,-0.3382,-0.4253,-0.3851,-0.3249,-0.3516,-0.3382,-0.3215,-0.3351,-0.3182,-0.2826,-0.2231,-0.1517,-0.0993,-0.0982,-0.093,-0.0912,-0.0907,-0.0914,-0.1065,-0.1568,-0.2151,-0.2736,-0.3236,-0.3375,-0.343,-0.343,-0.3987,-0.4349,-0.4349,-0.4436,-0.4491,-0.4491,-0.4491,-0.4491,-0.4491,-0.4491,-0.4491,-0.4491,-0.4491,-0.4491,-0.4491,-0.4491,-0.4491,-0.4491,-0.4491,-0.4491,-0.4187,-0.3858,-0.3524,-0.2858,-0.2691,-0.2617,-0.2368,0.0,0.0,-0.1579,-0.1315,-0.1115,-0.1016,-0.1291,-0.1468,-0.1227,-0.1517,-0.1779,-0.1824,-0.1905,-0.2093,-0.2388,-0.2732,-0.2889,-0.2723,-0.2389,-0.2111,-0.1924,-0.1456,-0.1144,-0.1143,-0.1194,-0.1203,-0.1203,-0.1203,-0.1203,-0.1203,-0.1203,-0.1203,-0.1203,-0.1183,-0.119,-0.119,-0.1244,-0.1251,-0.1251,-0.1251,-0.1243,-0.119,-0.119,-0.1172,-0.1143,-0.1127,-0.1112,-0.1097,-0.1116,-0.1109,-0.1109,-0.1109,-0.1109,-0.121,-0.1879,-0.2114,-0.2246,-0.2948,-0.3182,-0.3282,-0.3618,-0.3182,-0.2714,-0.3115,-0.2648,-0.2181,-0.2547,-0.2347,-0.2006,-0.1649,-0.1303,-0.1029,-0.1015,-0.0969,-0.0949,-0.0919,-0.0901,-0.1001,-0.1292,-0.2125,-0.2792,-0.3098,-0.3683,-0.4073,-0.4073,-0.4322,-0.4491,-0.4491,-0.4491,-0.4491,-0.4491,-0.4491,-0.4491,-0.4491,-0.4491,-0.4491,-0.4491,-0.4491,-0.4491,-0.4491,-0.4491,-0.4491,-0.4491,-0.4491,-0.4491,-0.4107,-0.3719,-0.3274,-0.283,-0.2676,-0.2599,-0.228,-0.2054,-0.1822,-0.1385,-0.1205,-0.1069,-0.0894,-0.1218,-0.1411,-0.1104,-0.147,-0.1794,-0.1792,-0.2161,-0.247,-0.269,-0.3008,-0.3159,-0.3092,-0.2622,-0.223,-0.2086,-0.1533,-0.1168,-0.1151,-0.1209,-0.1223,-0.1223,-0.1223,-0.1223,-0.1223,-0.1223,-0.1223,-0.1223,-0.121,-0.1221,-0.1222,-0.1285,-0.1296,-0.1296,-0.1296,-0.1282,-0.1221,-0.1221,-0.1203,-0.121,-0.1142,-0.1127,-0.1117,-0.1087,-0.1109,-0.1109,-0.1109,-0.1109,-0.1176,-0.1712,-0.198,-0.2114,-0.228,-0.2614,-0.2948,-0.2948,-0.2447,-0.2013,-0.2614,-0.1913,-0.1244,-0.1745,-0.1478,-0.1109,-0.1109,-0.1109,-0.1069,-0.1047,-0.1006,-0.0987,-0.094,-0.0927,-0.0974,-0.1093,-0.1903,-0.2597,-0.285,-0.3724,-0.4349,-0.4491,-0.4491,-0.4491,-0.4491,-0.4491,-0.4491,-0.4491,-0.4491,-0.4491,-0.4491,-0.4491,-0.4491,-0.4491,-0.4491,-0.4491,-0.4491,-0.4491,-0.4491,-0.4491,-0.4491,-0.4491,-0.4024,-0.3719,-0.3274,-0.283,-0.2655,-0.2547,-0.2265,0.0,-0.1653,-0.1361,-0.1051,-0.088,-0.1043,-0.1167,-0.1247,-0.1267,-0.1526,-0.1811,-0.2115,-0.2305,-0.2559,-0.3005,-0.3138,-0.3092,-0.2787,-0.2686,-0.2416,-0.179,-0.1397,-0.1218,-0.1282,-0.1286,-0.1288,-0.1288,-0.1288,-0.1288,-0.1288,-0.1288,-0.1288,-0.1288,-0.1291,-0.1292,-0.1292,-0.1295,-0.1296,-0.1296,-0.1296,-0.1295,-0.1292,-0.1292,-0.1274,-0.1204,-0.121,-0.1145,-0.1117,-0.1087,-0.1109,-0.1109,-0.1109,-0.1109,-0.1109,-0.1176,-0.1612,-0.2213,-0.2882,-0.2681,-0.2213,-0.2213,-0.1712,-0.121,-0.1276,-0.121,-0.1109,-0.1176,-0.1143,-0.1109,-0.1109,-0.1109,-0.1109,-0.1106,-0.1051,-0.1,-0.0994,-0.1002,-0.1167,-0.1712,-0.1848,-0.2281,-0.3384,-0.3609,-0.3904,-0.4436,-0.4491,-0.4491,-0.4491,-0.4491,-0.4491,-0.4491,-0.4491,-0.4491,-0.4491,-0.4491,-0.4491,-0.4491,-0.4491,-0.4491,-0.4491,-0.4491,-0.4491,-0.4491,-0.4491,-0.4491,-0.3951,-0.3497,-0.2942,-0.2747,-0.2649,-0.2536,-0.2261,-0.1942,-0.1616,-0.1357,-0.1061,-0.0913,-0.1069,-0.1155,-0.1203,-0.1226,-0.1432,-0.1678,-0.1984,-0.2179,-0.2443,-0.2873,-0.3058,-0.3099,-0.3019,-0.282,-0.243,-0.1753,-0.1655,-0.1515,-0.1295,-0.1296,-0.1296,-0.1296,-0.1296,-0.1296,-0.1296,-0.1296,-0.1296,-0.1296,-0.1296,-0.1296,-0.1296,-0.1296,-0.1296,-0.1296,-0.1296,-0.1296,-0.1296,-0.1296,-0.1289,-0.1273,-0.1222,-0.117,-0.1168,-0.11,-0.1087,-0.1103,-0.1103,-0.1103,-0.1103,-0.1103,-0.1274,-0.1545,-0.1855,-0.1745,-0.1511,-0.1511,-0.131,-0.1109,-0.1109,-0.1109,-0.1109,-0.1109,-0.1109,-0.1109,-0.1109,-0.1109,-0.1109,-0.1109,-0.1067,-0.1054,-0.1004,-0.0992,-0.1073,-0.1331,-0.1647,-0.2025,-0.2506,-0.3253,-0.3788,-0.3946,-0.4291,-0.4491,-0.4491,-0.4491,-0.4491,-0.4491,-0.4491,-0.4491,-0.4491,-0.4491,-0.4491,-0.4491,-0.4491,-0.4491,-0.4491,-0.4491,-0.4491,-0.4491,-0.4491,-0.4491,-0.3657,-0.3249,-0.2691,-0.2691,-0.2628,-0.2477,-0.2255,-0.1921,-0.1601,-0.1351,-0.1086,-0.0951,-0.1134,-0.1176,-0.1225,-0.128,-0.1474,-0.1685,-0.1908,-0.2151,-0.2442,-0.2768,-0.2958,-0.3087,-0.3177,-0.2896,-0.2454,-0.1905,-0.1851,-0.1669,-0.1282,-0.1291,-0.1296,-0.1296,-0.1296,-0.1296,-0.1296,-0.1296,-0.1296,-0.1296,-0.1296,-0.1296,-0.1296,-0.1296,-0.1296,-0.1296,-0.1296,-0.1296,-0.1296,-0.1296,-0.1296,-0.1291,-0.1237,-0.1193,-0.1203,-0.1165,-0.111,-0.1088,-0.1132,-0.1129,-0.1088,-0.1132,-0.1128,-0.1119,-0.1141,-0.1124,-0.1109,-0.1109,-0.1109,-0.1109,-0.1109,-0.1109,-0.1109,-0.1109,-0.1109,-0.1109,-0.1109,-0.1109,-0.1109,-0.1109,-0.1109,-0.1069,-0.1049,-0.1046,-0.1039,-0.1017,-0.1383,-0.1687,-0.1874,-0.2876,-0.3598,-0.3666,-0.4224,-0.459,-0.4498,-0.4491,-0.4491,-0.4491,-0.4491,-0.4491,-0.4491,-0.4491,-0.4491,-0.4491,-0.4491,-0.4491,-0.4491,-0.4491,-0.4491,-0.4491,-0.4491,-0.4491,-0.3051,-0.2972,-0.2691,-0.2691,-0.2554,-0.2372,-0.224,-0.1892,-0.1544,-0.1339,-0.1086,-0.0986,-0.1243,-0.1246,-0.1268,-0.1469,-0.1725,-0.1915,-0.1991,-0.2338,-0.2649,-0.2776,-0.2933,-0.3022,-0.3083,-0.2845,-0.2556,-0.221,-0.1879,-0.1553,-0.1212,-0.1279,-0.1296,-0.1296,-0.1296,-0.1296,-0.1296,-0.1296,-0.1296,-0.1296,-0.1296,-0.1296,-0.1296,-0.1296,-0.1296,-0.1296,-0.1296,-0.1296,-0.1296,-0.1296,-0.1296,-0.1293,-0.1224,-0.1211,-0.1208,-0.1214,-0.1147,-0.1125,-0.1191,-0.1146,-0.1126,-0.1192,-0.1145,-0.1127,-0.1192,-0.1158,-0.1109,-0.1109,-0.1109,-0.1109,-0.1109,-0.1109,-0.1109,-0.1109,-0.1109,-0.1109,-0.1109,-0.1109,-0.1109,-0.1109,-0.1109,-0.1109,-0.1109,-0.1109,-0.1109,-0.1109,-0.1051,-0.1226,-0.1836,-0.254,-0.3199,-0.3747,-0.4455,-0.4792,-0.4515,-0.4491,-0.4491,-0.4491,-0.4491,-0.4491,-0.4491,-0.4491,-0.4491,-0.4491,-0.4491,-0.4491,-0.4491,-0.4491,-0.4491,-0.4491,-0.4491,-0.4491,-0.2743,-0.2604,-0.2333,-0.2246,-0.2164,-0.2113,-0.2015,-0.1755,-0.1488,-0.1327,-0.1161,-0.1092,-0.127,-0.129,-0.1331,-0.1542,-0.1647,-0.1769,-0.1969,-0.2237,-0.2485,-0.2776,-0.3011,-0.3152,-0.3181,-0.3209,-0.2967,-0.2248,-0.2244,-0.193,-0.125,-0.1221,-0.1236,-0.1295,-0.1296,-0.1296,-0.1296,-0.1296,-0.1296,-0.1296,-0.1296,-0.1296,-0.1296,-0.1296,-0.1296,-0.1296,-0.1296,-0.1296,-0.1296,-0.1296,-0.1296,-0.1293,-0.1224,-0.1224,-0.1275,-0.1222,-0.1173,-0.1185,-0.1194,-0.1191,-0.1185,-0.1194,-0.1191,-0.1181,-0.1206,-0.1138,-0.1107,-0.1107,-0.1107,-0.1102,-0.1115,-0.1109,-0.1109,-0.1109,-0.1109,-0.1109,-0.1109,-0.1109,-0.1109,-0.1109,-0.1109,-0.1109,-0.1109,-0.1109,-0.1109,-0.1109,-0.1068,-0.1128,-0.1326,-0.2397,-0.3176,-0.3242,-0.4339,-0.4955,-0.4792,-0.4775,-0.4728,-0.4655,-0.4648,-0.46,-0.4494,-0.4491,-0.4491,-0.4491,-0.4491,-0.4491,-0.4491,-0.4491,-0.4545,-0.4648,-0.4648,-0.4674,-0.228,-0.2263,-0.2121,-0.2074,-0.2017,-0.1942,-0.1852,-0.1623,-0.139,-0.1285,-0.1176,-0.1139,-0.127,-0.1303,-0.1335,-0.1462,-0.1607,-0.178,-0.1928,-0.2218,-0.2524,-0.285,-0.3052,-0.3175,-0.3175,-0.3172,-0.2916,-0.2248,-0.2191,-0.1912,-0.1215,-0.1188,-0.1209,-0.1278,-0.1291,-0.1296,-0.1296,-0.1296,-0.1296,-0.1296,-0.1296,-0.1296,-0.1296,-0.1296,-0.1296,-0.1296,-0.1296,-0.1296,0.0,-0.1296,-0.1296,-0.1295,-0.1236,-0.1279,-0.1292,-0.1253,-0.1206,-0.1213,-0.1225,-0.1221,-0.1213,-0.1225,-0.1229,-0.1224,-0.1193,-0.1162,-0.1138,-0.1138,-0.1129,-0.1117,-0.1097,-0.1084,-0.1109,-0.1109,-0.1109,-0.1109,-0.1109,-0.1109,-0.1109,-0.1109,-0.1109,-0.1109,-0.1109,-0.1109,-0.1109,-0.1109,-0.1109,-0.1109,-0.1109,-0.208,-0.2764,-0.2685,-0.3948,-0.4759,-0.4678,-0.4828,-0.4877,-0.4782,-0.4775,-0.4735,-0.4665,-0.4662,-0.4662,-0.4662,-0.4662,-0.4662,-0.4662,-0.4662,-0.4684,-0.4775,-0.4775,-0.4826,0.0,-0.1901,-0.1988,-0.209,-0.1984,-0.1821,-0.1699,-0.1472,0.0,-0.1214,-0.1149,-0.1145,-0.1299,-0.1315,-0.1334,-0.1358,-0.1688,-0.1933,-0.1954,-0.2338,-0.2736,-0.2972,-0.308,-0.3099,-0.3067,-0.2849,-0.2559,-0.2188,-0.1864,-0.1506,-0.1121,-0.1148,-0.1179,-0.1211,-0.1278,-0.1294,-0.1296,-0.1296,-0.1296,-0.1296,-0.1296,-0.1296,-0.1296,-0.1296,-0.1296,-0.1296,-0.1296,-0.1296,-0.1296,-0.1296,-0.1296,-0.1296,-0.1296,-0.1296,-0.1296,-0.1296,-0.1278,-0.1219,-0.1286,-0.1277,-0.122,-0.1287,-0.1296,-0.1291,-0.1224,-0.1196,-0.1208,-0.1204,-0.1146,-0.1089,-0.1087,-0.1098,-0.111,-0.1112,-0.1111,-0.1109,-0.1109,-0.1109,-0.1109,-0.1109,-0.1109,-0.1109,-0.1109,-0.1109,-0.1109,-0.1109,-0.1109,-0.1109,-0.1109,-0.1678,-0.2114,-0.2114,-0.3416,-0.4287,-0.4287,-0.4693,-0.4914,-0.4904,-0.4904,-0.4897,-0.4887,-0.4887,-0.4887,-0.4887,-0.4887,-0.4887,-0.4887,-0.4887,-0.4894,-0.4904,-0.4904,-0.4911,-0.1319,0.0,-0.1459,-0.1443,-0.1436,-0.1433,0.0,-0.1307,-0.1222,-0.12,-0.1149,-0.1194,-0.1471,-0.1494,-0.158,-0.2009,-0.2138,-0.2252,-0.2408,-0.2719,-0.2966,-0.3138,-0.3181,-0.306,-0.2826,-0.2797,-0.2475,-0.1785,-0.1726,-0.1506,-0.1121,-0.1127,-0.1156,-0.121,-0.1219,-0.1234,-0.1296,-0.1296,-0.1296,-0.1296,-0.1296,-0.1296,-0.1296,-0.1296,-0.1296,-0.1296,-0.1296,-0.1296,-0.1296,-0.1296,-0.1296,-0.1296,-0.1296,-0.1296,-0.1296,-0.1296,-0.1292,-0.1286,-0.1294,-0.1292,-0.1287,-0.1294,-0.1296,-0.1295,-0.1288,-0.128,-0.1265,-0.1217,-0.1197,-0.1151,-0.1127,-0.1098,-0.1116,-0.1105,-0.1093,-0.1109,-0.1109,-0.1109,-0.1109,-0.1109,-0.1109,-0.1109,-0.1109,-0.1109,-0.1109,-0.1109,-0.1109,-0.1109,-0.1109,-0.1678,-0.2114,-0.2114,-0.3416,-0.4287,-0.4287,-0.4898,-0.5206,-0.5056,-0.5049,-0.5002,-0.4894,-0.4887,-0.4887,-0.4887,-0.4887,-0.4887,-0.4887,-0.4887,-0.4945,-0.5049,-0.5049,-0.5145,-0.1145,-0.1274,-0.139,-0.138,-0.1386,-0.1394,-0.1394,-0.1291,-0.1196,-0.1196,-0.119,-0.1282,-0.1558,-0.1588,-0.1725,-0.2099,-0.225,-0.2399,-0.2642,-0.2867,-0.3053,-0.3172,-0.3192,-0.3125,-0.2956,-0.2691,-0.2359,-0.192,-0.1603,-0.1341,-0.11,-0.11,-0.1122,-0.1168,-0.1183,-0.125,-0.1296,-0.1296,-0.1296,-0.1296,-0.1296,-0.1296,-0.1296,-0.1296,-0.1296,-0.1296,-0.1296,-0.1296,-0.1296,-0.1296,-0.1296,-0.1296,-0.1296,-0.1296,-0.1296,-0.1296,-0.1296,-0.1296,-0.1296,-0.1296,-0.1296,-0.1296,-0.1296,-0.1296,-0.1296,-0.1296,-0.1289,-0.1255,-0.1235,-0.1183,-0.1167,-0.114,-0.1153,-0.112,-0.1108,-0.1093,-0.1113,-0.1109,-0.1109,-0.1109,-0.1109,-0.1109,-0.1109,-0.1109,-0.1109,-0.1109,-0.1109,-0.1109,-0.1109,-0.1411,-0.1646,-0.1646,-0.2648,-0.3418,-0.3751,-0.4486,-0.4992,-0.5208,-0.5237,-0.5203,-0.5125,-0.5121,-0.5121,-0.5121,-0.5121,-0.5121,-0.5121,-0.5121,-0.5162,-0.5237,-0.5237,-0.5281,-0.1129,-0.1316,-0.1524,-0.1539,-0.1515,-0.1493,-0.1479,0.0,0.0,0.0,0.0,-0.1413,-0.1618,-0.1715,-0.1811,-0.2026,-0.2227,-0.2466,-0.2788,-0.293,-0.3069,-0.3174,-0.3192,-0.3192,-0.3125,-0.2622,-0.2221,-0.212,-0.1513,-0.1143,-0.1109,-0.1109,-0.1092,-0.1127,-0.1153,-0.1233,-0.1295,-0.1296,-0.1296,-0.1296,-0.1296,-0.1296,-0.1296,-0.1296,-0.1296,-0.1296,-0.1296,-0.1296,-0.1296,-0.1296,-0.1296,-0.1296,-0.1296,-0.1296,-0.1296,-0.1296,-0.1296,-0.1296,-0.1296,-0.1296,-0.1296,-0.1296,-0.1296,-0.1296,-0.1296,-0.1296,-0.1296,-0.1296,-0.1235,-0.1212,-0.1212,-0.1189,-0.1197,-0.114,-0.1132,-0.1119,-0.1089,-0.1116,-0.1116,-0.1116,-0.1113,-0.1111,-0.1116,-0.1113,-0.1109,-0.1109,-0.1109,-0.1109,-0.1109,-0.1109,-0.1109,-0.1109,-0.1712,-0.2347,-0.2982,-0.3818,-0.4556,-0.5193,-0.5329,-0.5395,-0.5395,-0.5395,-0.5395,-0.5395,-0.5395,-0.5395,-0.5395,-0.5395,-0.5395,-0.5395,-0.5395,-0.5395,-0.1235,-0.1428,-0.1537,-0.1309,-0.1376,-0.1477,-0.1355,-0.139,0.0,0.0,0.0,0.0,-0.1887,-0.1946,-0.2037,-0.2291,-0.2509,-0.2725,-0.3009,-0.306,-0.3107,-0.318,-0.3192,-0.3092,-0.2787,-0.2686,-0.2353,-0.1748,-0.158,-0.1412,-0.1109,-0.1109,-0.1136,-0.1194,-0.1201,-0.1233,-0.1295,-0.1296,-0.1296,-0.1296,-0.1296,-0.1296,-0.1296,-0.1296,-0.1296,-0.1296,-0.1296,-0.1296,-0.1296,-0.1296,-0.1296,-0.1296,-0.1296,-0.1296,-0.1296,-0.1296,-0.1296,-0.1296,-0.1296,-0.1296,-0.1296,-0.1296,-0.1296,-0.1296,-0.1296,-0.1296,-0.1296,-0.1296,-0.1235,-0.1212,-0.1212,-0.1189,-0.1208,-0.1193,-0.1179,-0.1187,-0.1121,-0.1114,-0.1114,-0.1114,-0.1093,-0.1084,-0.111,-0.1093,-0.1109,-0.1109,-0.1109,-0.1109,-0.1109,-0.1109,-0.1109,-0.1109,-0.1712,-0.2147,-0.2248,-0.3518,-0.4353,-0.4456,-0.5057,-0.5395,-0.5395,-0.5395,-0.5395,-0.5395,-0.5395,-0.5395,-0.5395,-0.5395,-0.5395,-0.5395,-0.5395,-0.5395,-0.1176,-0.1366,-0.1511,-0.1388,-0.1566,-0.176,-0.1701,-0.1723,0.0,0.0,0.0,0.0,0.0,-0.2201,-0.2299,-0.2568,-0.2681,-0.2842,-0.306,-0.3091,-0.3124,-0.3182,-0.3025,-0.2956,-0.2956,-0.2654,-0.2353,-0.2217,-0.2017,-0.185,-0.1715,-0.148,-0.1497,-0.1745,-0.1617,-0.1622,-0.1847,-0.1705,-0.1531,-0.1296,-0.1296,-0.1296,-0.1296,-0.1296,-0.1296,-0.1296,-0.1296,-0.1296,-0.1296,-0.1296,-0.1296,-0.1296,-0.1296,-0.1296,-0.1296,-0.1296,-0.1296,-0.1296,-0.1296,-0.1296,-0.1296,-0.1296,-0.1296,-0.1296,-0.1296,-0.1296,-0.1296,-0.1296,-0.1286,-0.1236,-0.1236,-0.1265,-0.1253,-0.1213,-0.1201,-0.1183,-0.1152,-0.1145,-0.1145,-0.1145,-0.1121,-0.1104,-0.1084,-0.1096,-0.1109,-0.1109,-0.1109,-0.1109,-0.1109,-0.1109,-0.1109,-0.1109,-0.1377,-0.1712,-0.2079,-0.3082,-0.4051,-0.4858,-0.5226,-0.5395,-0.5395,-0.5395,-0.5395,-0.5395,-0.5395,-0.5395,-0.5395,-0.5395,-0.5395,-0.5395,-0.5395,-0.5395,-0.1137,-0.1318,-0.1508,-0.1533,0.0,-0.1946,-0.1988,-0.1996,-0.2008,0.0,0.0,0.0,-0.2325,-0.2389,-0.254,-0.2813,-0.2856,-0.2919,-0.3097,-0.3122,-0.3148,-0.3184,-0.2989,-0.2922,-0.3159,-0.2725,-0.2522,-0.2686,-0.2453,-0.2287,-0.2188,-0.1918,-0.189,-0.2174,-0.2017,-0.2028,-0.2292,-0.1979,-0.1717,-0.1453,-0.1335,-0.1296,-0.1296,-0.1296,-0.1296,-0.1296,-0.1296,-0.1296,-0.1296,-0.1296,-0.1296,-0.1296,-0.1296,-0.1296,-0.1296,-0.1296,-0.1296,-0.1296,-0.1296,-0.1296,-0.1296,-0.1296,-0.1296,-0.1296,-0.1296,-0.1296,-0.1296,-0.1296,-0.1296,-0.1296,-0.1296,-0.1296,-0.1291,-0.1228,-0.1222,-0.1214,-0.122,-0.1214,-0.1214,-0.1214,-0.1147,-0.1088,-0.113,-0.11,-0.1109,-0.1109,-0.1109,-0.1109,-0.1109,-0.1109,-0.1109,-0.1109,-0.1109,-0.1377,-0.2047,-0.2781,-0.3751,-0.5057,-0.5292,-0.5395,-0.5395,-0.5395,-0.5395,-0.5395,-0.5395,-0.5395,-0.5395,-0.5395,-0.5395,-0.5395,-0.5395,-0.5395,-0.1251,-0.1388,-0.1537,-0.1649,-0.1709,-0.1771,-0.1958,-0.1996,0.0,-0.225,0.0,0.0,-0.2382,-0.2508,-0.2659,-0.2931,-0.2974,-0.304,-0.3158,-0.3184,-0.3186,-0.3192,-0.3192,-0.3159,-0.3192,-0.3159,-0.3025,-0.272,-0.2686,-0.252,-0.2221,-0.2188,-0.218,-0.2201,-0.2177,-0.2169,-0.2218,-0.1872,-0.1765,-0.1843,-0.1492,-0.1296,-0.1296,-0.1296,-0.1296,-0.1296,-0.1296,-0.1296,-0.1296,-0.1296,-0.1296,-0.1296,-0.1296,-0.1296,-0.1296,-0.1296,-0.1296,-0.1296,-0.1296,-0.1296,-0.1296,-0.1296,-0.1296,-0.1296,-0.1296,-0.1296,-0.1296,-0.1296,-0.1296,-0.1296,-0.1296,-0.1296,-0.1295,-0.1293,-0.1293,-0.1284,-0.1215,-0.1209,-0.1209,-0.1209,-0.1161,-0.113,-0.1194,-0.1149,-0.1109,-0.1109,-0.1109,-0.1109,-0.1109,-0.1109,-0.1109,-0.1109,-0.1109,-0.1377,-0.2047,-0.2781,-0.3551,-0.432,-0.5024,-0.5395,-0.5395,-0.5395,-0.5395,-0.5395,-0.5395,-0.5395,-0.5395,-0.5395,-0.5395,-0.5395,-0.5395,-0.5395,-0.1156,-0.1364,-0.1576,-0.1626,-0.1831,0.0,0.0,-0.2294,-0.2411,-0.2535,-0.2564,0.0,-0.2587,-0.2615,-0.2737,-0.295,-0.3015,-0.3049,-0.3168,-0.3192,-0.3192,-0.3192,-0.3023,-0.2956,-0.3192,-0.2825,-0.269,-0.2989,-0.282,-0.2721,-0.2824,-0.2622,-0.26,-0.28,-0.2674,-0.2568,-0.2558,-0.2225,-0.2005,-0.1838,-0.1448,-0.1229,-0.1229,-0.1229,-0.1278,-0.1296,-0.1296,-0.1296,-0.1296,-0.1296,-0.1296,-0.1296,-0.1296,-0.1296,-0.1296,-0.1296,-0.1296,-0.1296,-0.1296,-0.1296,-0.1296,-0.1296,-0.1296,-0.1296,-0.1296,-0.1296,-0.1296,-0.1296,-0.1296,-0.1296,-0.1296,-0.1296,-0.1296,-0.1296,-0.1296,-0.1293,-0.1281,-0.1279,-0.1279,-0.1279,-0.1206,-0.1175,-0.1204,-0.1132,-0.1097,-0.1112,-0.1109,-0.1109,-0.1109,-0.1109,-0.1109,-0.1109,-0.1109,-0.1377,-0.2047,-0.2781,-0.3516,-0.4253,-0.499,-0.5395,-0.5395,-0.5395,-0.5395,-0.5395,-0.5395,-0.5395,-0.5395,-0.5395,-0.5395,-0.5395,-0.5395,-0.5395,-0.1126,-0.1351,-0.1582,-0.162,0.0,0.0,-0.2291,-0.2446,-0.2572,-0.2666,-0.2691,-0.2707,-0.2793,-0.2752,-0.2791,-0.2999,-0.3028,-0.3082,-0.3172,-0.3192,-0.3192,-0.3192,-0.2989,-0.2956,-0.3192,-0.269,-0.2589,-0.3159,-0.2889,-0.2855,-0.3192,-0.2989,-0.2956,-0.3192,-0.2908,-0.2764,-0.2764,-0.2342,-0.1971,-0.1744,-0.1363,-0.1202,-0.1212,-0.1221,-0.1277,-0.1296,-0.1296,-0.1296,-0.1296,-0.1296,-0.1296,-0.1296,-0.1296,-0.1296,-0.1296,-0.1296,-0.1296,-0.1296,-0.1296,-0.1296,-0.1296,-0.1296,-0.1296,-0.1296,-0.1296,-0.1296,-0.1296,-0.1296,-0.1296,-0.1296,-0.1296,-0.1296,-0.1296,-0.1296,-0.1296,-0.1296,-0.1296,-0.1296,-0.1296,-0.1296,-0.1232,-0.1205,-0.1184,-0.1155,-0.1128,-0.1142,-0.113,-0.1093,-0.1137,-0.113,-0.1094,-0.1137,-0.1139,-0.131,-0.1792,-0.2478,-0.3233,-0.3991,-0.4469,-0.4947,-0.5399,-0.5395,-0.5395,-0.5395,-0.5395,-0.5395,-0.5395,-0.5395,-0.5395,-0.5395,-0.5395,-0.5395,-0.1196,-0.1343,-0.1527,-0.1667,0.0,0.0,-0.2334,-0.2394,-0.247,-0.2654,-0.2693,-0.2774,-0.2952,-0.2885,-0.2857,-0.3062,-0.3091,-0.3124,-0.318,-0.3192,-0.3192,-0.3192,-0.3192,-0.3192,-0.3192,-0.2889,-0.2822,-0.3159,-0.2889,-0.2855,-0.3192,-0.3192,-0.3192,-0.3192,-0.2889,-0.2686,-0.2686,-0.2037,-0.1659,-0.1581,-0.1315,-0.1182,-0.1213,-0.1281,-0.1296,-0.1296,-0.1296,-0.1296,-0.1296,-0.1296,-0.1296,-0.1296,-0.1296,-0.1296,-0.1296,-0.1296,-0.1296,-0.1296,-0.1296,-0.1296,-0.1296,-0.1296,-0.1296,-0.1296,-0.1296,-0.1296,-0.1296,-0.1296,-0.1296,-0.1296,-0.1296,-0.1296,-0.1296,-0.1296,-0.1296,-0.1296,-0.1296,-0.1296,-0.1296,-0.1296,-0.1232,-0.1212,-0.1212,-0.1187,-0.1203,-0.1203,-0.1141,-0.1132,-0.1199,-0.114,-0.1133,-0.12,-0.1203,-0.1203,-0.1203,-0.1821,-0.2581,-0.3417,-0.338,-0.3937,-0.5342,-0.5395,-0.5395,-0.5395,-0.5395,-0.5395,-0.5395,-0.5395,-0.5395,-0.5395,-0.5395,-0.5395,-0.1196,-0.1418,-0.1677,-0.1813,0.0,0.0,0.0,-0.2539,0.0,0.0,-0.2758,-0.2821,-0.2964,-0.2964,-0.2985,-0.3071,-0.29,-0.2866,-0.3147,-0.2989,-0.2855,-0.2855,-0.2855,-0.2755,-0.2523,-0.2421,-0.2488,-0.282,-0.2753,-0.2855,-0.3192,-0.3192,-0.3092,-0.2855,-0.2753,-0.2452,-0.1916,-0.1729,-0.1492,-0.1244,-0.1151,-0.1151,-0.1218,-0.1211,-0.1237,-0.1296,-0.1296,-0.1296,-0.1296,-0.1296,-0.1296,-0.1296,-0.1296,-0.1296,-0.1296,-0.1296,-0.1296,-0.1296,-0.1296,-0.1296,-0.1296,-0.1296,-0.1296,-0.1296,-0.1296,-0.1296,-0.1296,-0.1296,-0.1296,-0.1296,-0.1296,-0.1296,-0.1296,-0.1296,-0.1296,-0.1296,-0.1296,-0.1296,-0.1296,-0.1296,-0.1289,-0.1237,-0.1215,-0.1204,-0.1191,-0.1206,-0.1195,-0.1192,-0.1202,-0.1194,-0.1192,-0.1202,-0.1203,-0.1203,-0.1203,-0.1821,-0.2328,-0.2581,-0.3016,-0.397,-0.5494,-0.4968,-0.4885,-0.5395,-0.5395,-0.5395,-0.5395,-0.5395,-0.5395,-0.5395,-0.5395,-0.5126,-0.1305,-0.1513,-0.1723,-0.2001,-0.2296,-0.2517,-0.2456,0.0,0.0,-0.2665,-0.2734,-0.2845,-0.3034,-0.3063,-0.3006,-0.2965,-0.2785,-0.2671,-0.2785,-0.2622,-0.2487,-0.2487,-0.2621,-0.2621,-0.2421,-0.2388,-0.2554,-0.2889,-0.2787,-0.2855,-0.3192,-0.3058,-0.2922,-0.272,-0.2418,-0.2049,-0.1614,-0.148,-0.1311,-0.1109,-0.1106,-0.1131,-0.1149,-0.118,-0.1211,-0.1279,-0.1291,-0.1296,-0.1296,-0.1296,-0.1296,-0.1296,-0.1296,-0.1296,-0.1296,-0.1296,-0.1296,-0.1296,-0.1296,-0.1296,-0.1296,-0.1296,-0.1296,-0.1296,-0.1296,-0.1296,-0.1296,-0.1296,-0.1296,-0.1296,-0.1296,-0.1296,-0.1296,-0.1296,-0.1296,-0.1296,-0.1296,-0.1296,-0.1296,-0.1296,-0.1296,-0.1291,-0.1233,-0.123,-0.1224,-0.1243,-0.124,-0.1231,-0.1206,-0.1224,-0.124,-0.124,-0.124,-0.124,-0.124,-0.1615,-0.1839,-0.1839,-0.2251,-0.3126,-0.4465,-0.4125,-0.4117,-0.4571,-0.4568,-0.4743,-0.5089,-0.4743,-0.4743,-0.5089,-0.4743,-0.4325,-0.1437,-0.1555,-0.1681,-0.2144,-0.2313,-0.2356,-0.2208,-0.2408,-0.2596,-0.2458,-0.2619,-0.2855,-0.3101,-0.3119,-0.3032,-0.2741,-0.2686,-0.2554,-0.2255,-0.2154,-0.2154,-0.2154,-0.242,-0.2586,-0.2552,-0.2619,-0.2755,-0.3025,-0.2855,-0.2855,-0.3092,-0.2855,-0.2653,-0.2586,-0.195,-0.158,-0.1547,-0.1244,-0.1109,-0.1109,-0.1104,-0.1117,-0.1118,-0.1151,-0.1183,-0.1213,-0.128,-0.1294,-0.1296,-0.1296,-0.1296,-0.1296,-0.1296,-0.1296,-0.1296,-0.1296,-0.1296,-0.1296,-0.1296,-0.1296,-0.1296,-0.1296,-0.1296,-0.1296,-0.1296,-0.1296,-0.1296,-0.1296,-0.1296,-0.1296,-0.1296,-0.1296,-0.1296,-0.1296,-0.1296,-0.1296,-0.1296,-0.1296,-0.1296,-0.1296,-0.1296,-0.1296,-0.1296,-0.1296,-0.1296,-0.1296,-0.1296,-0.1276,-0.1219,-0.1261,-0.1296,-0.1296,-0.1296,-0.1296,-0.1296,-0.1296,-0.1296,-0.1296,-0.1296,-0.1727,-0.2701,-0.303,-0.3241,-0.3306,-0.3306,-0.3742,-0.4615,-0.3742,-0.3742,-0.4579,-0.3706,-0.327,-0.1154,-0.1251,0.0,-0.1873,-0.2126,-0.2172,-0.1952,-0.193,-0.201,-0.2033,-0.2322,-0.2598,-0.2708,-0.2963,-0.3068,-0.2751,-0.2487,-0.2287,-0.2221,-0.1918,-0.1715,-0.1715,-0.1782,-0.1747,-0.1479,-0.1983,-0.222,-0.195,-0.2654,-0.2891,-0.2423,-0.2587,-0.2452,-0.1849,-0.1681,-0.148,-0.121,-0.1143,-0.1109,-0.1109,-0.1116,-0.1085,-0.1087,-0.1177,-0.1183,-0.1212,-0.1219,-0.1235,-0.1296,-0.1296,-0.1296,-0.1296,-0.1296,-0.1296,-0.1296,-0.1296,-0.1296,-0.1296,-0.1296,-0.1296,-0.1296,-0.1296,-0.1296,-0.1296,-0.1296,-0.1296,-0.1296,-0.1296,-0.1296,-0.1296,-0.1296,-0.1296,-0.1296,-0.1296,-0.1296,-0.1296,-0.1296,-0.1296,-0.1296,-0.1296,-0.1296,-0.1296,-0.1296,-0.1296,-0.1296,-0.1296,-0.1296,-0.1291,-0.1278,-0.1288,-0.1296,-0.1296,-0.1296,-0.1296,-0.1296,-0.1296,-0.1296,-0.1296,-0.1296,-0.1414,-0.1649,-0.221,-0.2747,-0.3308,-0.3306,-0.3742,-0.4615,-0.3742,-0.3742,-0.4579,-0.3706,-0.298,-0.1082,-0.1202,0.0,-0.1742,0.0,-0.1737,-0.1597,-0.1456,-0.1379,-0.1403,-0.1858,-0.2231,-0.2332,-0.2543,-0.2548,-0.2213,-0.2017,-0.185,-0.1681,-0.148,-0.1344,-0.1344,-0.1513,-0.1547,-0.1344,-0.2017,-0.2353,-0.215,-0.2788,-0.2991,-0.2453,-0.2453,-0.2185,-0.1614,-0.1446,-0.1277,-0.1109,-0.1109,-0.1109,-0.1109,-0.1109,-0.1109,-0.1111,-0.1123,-0.1161,-0.1191,-0.1205,-0.1229,-0.1296,-0.1296,-0.1296,-0.1296,-0.1296,-0.1296,-0.1296,-0.1296,-0.1296,-0.1296,-0.1296,-0.1296,-0.1296,-0.1296,-0.1296,-0.1296,-0.1296,-0.1296,-0.1296,-0.1296,-0.1296,-0.1296,-0.1296,-0.1296,-0.1296,-0.1296,-0.1296,-0.1296,-0.1296,-0.1296,-0.1296,-0.1296,-0.1296,-0.1296,-0.1296,-0.1296,-0.1296,-0.1296,-0.1296,-0.1296,-0.1296,-0.1296,-0.1296,-0.1296,-0.1296,-0.1296,-0.1296,-0.1296,-0.1296,-0.1296,-0.1296,-0.1296,-0.1296,-0.1629,-0.199,-0.234,-0.234,-0.2755,-0.3582,-0.2755,-0.2792,-0.3582,-0.2715,-0.2152,-0.0998,-0.1179,-0.1358,-0.1653,-0.1506,0.0,-0.1291,-0.1094,-0.0898,-0.0898,-0.141,-0.1853,-0.1982,-0.2041,-0.1998,-0.165,-0.1598,-0.1469,-0.1135,-0.1106,-0.1109,-0.1109,-0.1344,-0.1513,-0.1513,-0.2116,-0.2519,-0.2519,-0.2824,-0.2891,-0.2519,-0.2253,-0.1918,-0.1513,-0.1244,-0.1109,-0.1109,-0.1109,-0.1109,-0.1109,-0.1109,-0.1109,-0.111,-0.1102,-0.1132,-0.1204,-0.1193,-0.1224,-0.1296,-0.1296,-0.1296,-0.1296,-0.1296,-0.1296,-0.1296,-0.1296,-0.1296,-0.1296,-0.1296,-0.1296,-0.1296,-0.1296,-0.1296,-0.1296,-0.1296,-0.1296,-0.1296,-0.1296,-0.1296,-0.1296,-0.1296,-0.1296,-0.1296,-0.1296,-0.1296,-0.1296,-0.1296,-0.1296,-0.1296,-0.1296,-0.1296,-0.1296,-0.1296,-0.1296,-0.1296,-0.1296,-0.1296,-0.1296,-0.1296,-0.1296,-0.1296,-0.1296,-0.1296,-0.1296,-0.1296,-0.1296,-0.1296,-0.1296,-0.1296,-0.1296,-0.1296,-0.1296,-0.1296,-0.1296,-0.1296,-0.1689,-0.2511,-0.1689,-0.1728,-0.247,-0.1689,-0.1296,-0.0639,0.0,-0.124,0.0,-0.1344,-0.1291,-0.1291,-0.1094,-0.0898,-0.0898,-0.1239,-0.1566,-0.158,-0.186,-0.1955,-0.1589,-0.1561,-0.1459,-0.1071,-0.106,-0.1109,-0.1109,-0.1143,-0.1176,-0.1176,-0.1512,-0.1748,-0.1748,-0.2119,-0.2153,-0.1782,-0.1715,-0.1513,-0.1176,-0.1109,-0.1109,-0.1109,-0.1109,-0.1109,-0.1109,-0.1109,-0.1109,-0.1109,-0.1113,-0.1147,-0.1203,-0.1207,-0.1243,-0.1296,-0.1296,-0.1296,-0.1296,-0.1296,-0.1296,-0.1296,-0.1296,-0.1296,-0.1296,-0.1296,-0.1296,-0.1296,-0.1296,-0.1296,-0.1296,-0.1296,-0.1296,-0.1296,-0.1296,-0.1296,-0.1296,-0.1296,-0.1296,-0.1296,-0.1296,-0.1296,-0.1296,-0.1296,-0.1296,-0.1296,-0.1296,-0.1296,-0.1296,-0.1296,-0.1296,-0.1296,-0.1296,-0.1296,-0.1296,-0.1296,-0.1296,-0.1296,-0.1296,-0.1296,-0.1296,-0.1296,-0.1296,-0.1296,-0.1296,-0.1296,-0.1296,-0.1296,-0.1296,-0.1296,-0.1296,-0.1296,-0.1689,-0.2511,-0.1689,-0.1728,-0.247,-0.1689,-0.1296,-0.0669,-0.0815,-0.0943,0.0,-0.1078,-0.1068,-0.1089,-0.0982,-0.0898,-0.0898,-0.105,-0.1154,-0.1175,-0.1311,-0.139,-0.123,-0.1248,-0.1196,-0.104,-0.1033,-0.1052,-0.1052,-0.1066,-0.1109,-0.1109,-0.1412,-0.1614,-0.1614,-0.1985,-0.2018,-0.1614,-0.1614,-0.1446,-0.1109,-0.1109,-0.1109,-0.1109,-0.1109,-0.1109,-0.1109,-0.1109,-0.1109,-0.1109,-0.1109,-0.1099,-0.1142,-0.1195,-0.1229,-0.1233,-0.1289,-0.1296,-0.1296,-0.1296,-0.1296,-0.1296,-0.1296,-0.1296,-0.1296,-0.1296,-0.1296,-0.1296,-0.1296,-0.1296,-0.1296,-0.1296,-0.1296,-0.1296,-0.1296,-0.1296,-0.1296,-0.1296,-0.1296,-0.1296,-0.1296,-0.1296,-0.1296,-0.1296,-0.1296,-0.1296,-0.1296,-0.1296,-0.1296,-0.1296,-0.1296,-0.1296,-0.1296,-0.1296,-0.1296,-0.1296,-0.1296,-0.1296,-0.1296,-0.1296,-0.1296,-0.1296,-0.1296,-0.1296,-0.1296,-0.1296,-0.1296,-0.1296,-0.1296,-0.1296,-0.1296,-0.1296,-0.1492,-0.1846,-0.1453,-0.1492,-0.1806,-0.1453,-0.1296,-0.0659,0.0,-0.0687,-0.0828,-0.087,-0.0866,-0.0905,-0.0914,-0.0888,-0.0896,-0.0898,-0.0905,-0.0898,-0.0902,-0.0909,-0.0961,-0.0972,-0.0977,-0.0977,-0.1003,-0.0993,-0.1,-0.1052,-0.1068,-0.1109,-0.1311,-0.1513,-0.158,-0.1783,-0.1817,-0.1614,-0.1513,-0.1344,-0.1109,-0.1109,-0.1109,-0.1109,-0.1109,-0.1109,-0.1109,-0.1109,-0.1109,-0.1109,-0.1109,-0.1088,-0.1112,-0.1186,-0.1183,-0.1214,-0.1284,-0.1296,-0.1296,-0.1296,-0.1296,-0.1296,-0.1296,-0.1296,-0.1296,-0.1296,-0.1296,-0.1296,-0.1296,-0.1296,-0.1296,-0.1296,-0.1296,-0.1296,-0.1296,-0.1296,-0.1296,-0.1296,-0.1296,-0.1296,-0.1296,-0.1296,-0.1296,-0.1296,-0.1296,-0.1296,-0.1296,-0.1296,-0.1296,-0.1296,-0.1296,-0.1296,-0.1296,-0.1296,-0.1296,-0.1296,-0.1296,-0.1296,-0.1296,-0.1296,-0.1296,-0.1296,-0.1296,-0.1296,-0.1296,-0.1296,-0.1296,-0.1296,-0.1296,-0.1296,-0.1296,-0.1296,-0.1296,-0.1296,-0.1296,-0.1296,-0.1296,-0.1296,-0.1296,0.0,-0.0469,0.0,-0.068,-0.0749,-0.0834,-0.0894,-0.0908,-0.0889,-0.0892,-0.0898,-0.0898,-0.09,-0.09,-0.09,-0.0902,-0.0897,-0.0916,-0.0916,-0.0971,-0.1001,-0.0998,-0.1002,-0.1046,-0.1106,-0.1109,-0.1244,-0.158,-0.1311,-0.1277,-0.158,-0.1311,-0.1109,-0.1109,-0.1109,-0.1109,-0.1109,-0.1109,-0.1109,-0.1109,-0.1109,-0.1109,-0.1109,-0.1109,-0.111,-0.1115,-0.1176,-0.1183,-0.1214,-0.1284,-0.1296,-0.1296,-0.1296,-0.1296,-0.1296,-0.1296,-0.1296,-0.1296,-0.1296,-0.1296,-0.1296,-0.1296,-0.1296,-0.1296,-0.1296,-0.1296,-0.1296,-0.1296,-0.1296,-0.1296,-0.1296,-0.1296,-0.1296,-0.1296,-0.1296,-0.1296,-0.1296,-0.1296,-0.1296,-0.1296,-0.1296,-0.1296,-0.1296,-0.1296,-0.1296,-0.1296,-0.1296,-0.1296,-0.1296,-0.1296,-0.1296,-0.1296,-0.1296,-0.1296,-0.1296,-0.1296,-0.1296,-0.1296,-0.1296,-0.1296,-0.1296,-0.1296,-0.1296,-0.1296,-0.1296,-0.1296,-0.1296,-0.1296,-0.1296,-0.1296,-0.1296,-0.1296,0.0,0.0,0.0,-0.0593,-0.0682,-0.0739,-0.0758,-0.0836,-0.0909,-0.0893,-0.0912,-0.0898,-0.0898,-0.0898,-0.0898,-0.0898,-0.0907,-0.0914,-0.0914,-0.0911,-0.0933,-0.0944,-0.0961,-0.1009,-0.1018,-0.1052,-0.1083,-0.1211,-0.1102,-0.1082,-0.1213,-0.1133,-0.1109,-0.1109,-0.1109,-0.1109,-0.1109,-0.1109,-0.1109,-0.1109,-0.1109,-0.1109,-0.1109,-0.1109,-0.1109,-0.1112,-0.1119,-0.1155,-0.1185,-0.1215,-0.1279,-0.1296,-0.1296,-0.1296,-0.1296,-0.1296,-0.1296,-0.1296,-0.1296,-0.1296,-0.1296,-0.1296,-0.1296,-0.1296,-0.1296,-0.1296,-0.1296,-0.1296,-0.1296,-0.1296,-0.1296,-0.1296,-0.1296,-0.1296,-0.1296,-0.1296,-0.1296,-0.1296,-0.1296,-0.1296,-0.1296,-0.1296,-0.1296,-0.1296,-0.1296,-0.1296,-0.1296,-0.1296,-0.1296,-0.1296,-0.1296,-0.1296,-0.1296,-0.1296,-0.1296,-0.1296,-0.1296,-0.1296,-0.1296,-0.1296,-0.1296,-0.1296,-0.1296,-0.1296,-0.1296,-0.1296,-0.1296,-0.1296,-0.1296,-0.1296,-0.1296,-0.1296,-0.0396,0.0,0.0,0.0,-0.0609,-0.0654,-0.0716,-0.0788,-0.0854,-0.0897,-0.0896,-0.0913,-0.0896,-0.0898,-0.0898,-0.0898,-0.0898,-0.0898,-0.0898,-0.0886,-0.0902,-0.0913,-0.093,-0.0977,-0.0987,-0.0988,-0.0988,-0.0988,-0.1007,-0.0987,-0.0987,-0.1036,-0.1051,-0.1061,-0.1104,-0.1109,-0.1109,-0.1109,-0.1109,-0.1109,-0.1109,-0.1109,-0.1109,-0.1109,-0.1109,-0.1111,-0.1097,-0.1129,-0.1206,-0.1199,-0.123,-0.1296,-0.1296,-0.1296,-0.1296,-0.1296,-0.1296,-0.1296,-0.1296,-0.1296,-0.1296,-0.1296,-0.1296,-0.1296,-0.1296,-0.1296,-0.1296,-0.1296,-0.1296,-0.1296,-0.1296,-0.1296,-0.1296,-0.1296,-0.1296,-0.1296,-0.1296,-0.1296,-0.1296,-0.1296,-0.1296,-0.1296,-0.1296,-0.1296,-0.1296,-0.1296,-0.1296,-0.1296,-0.1296,-0.1296,-0.1296,-0.1296,-0.1296,-0.1296,-0.1296,-0.1296,-0.1296,-0.1296,-0.1296,-0.1296,-0.1296,-0.1296,-0.1296,-0.1296,-0.1296,-0.1296,-0.1296,-0.1296,-0.1296,-0.1296,-0.1296,-0.1296,0.0,0.0,0.0,-0.0479,-0.0496,-0.0554,-0.0737,-0.0734,-0.0727,-0.0874,-0.0901,-0.0886,-0.089,-0.0897,-0.0898,-0.0898,-0.0898,-0.0898,-0.0898,-0.0898,-0.0909,-0.0909,-0.0912,-0.0923,-0.0983,-0.0986,-0.0986,-0.0986,-0.0986,-0.0987,-0.0987,-0.0988,-0.1002,-0.1,-0.106,-0.1109,-0.1109,-0.1109,-0.1109,-0.1109,-0.1109,-0.1109,-0.1109,-0.1109,-0.1109,-0.1109,-0.1109,-0.1144,-0.1204,-0.1198,-0.1228,-0.1295,-0.1296,-0.1296,-0.1296,-0.1296,-0.1296,-0.1296,-0.1296,-0.1296,-0.1296,-0.1296,-0.1296,-0.1296,-0.1296,-0.1296,-0.1296,-0.1296,-0.1296,-0.1296,-0.1296,-0.1296,-0.1296,-0.1296,-0.1296,-0.1296,-0.1296,-0.1296,-0.1296,-0.1296,-0.1296,-0.1296,-0.1296,-0.1296,-0.1296,-0.1296,-0.1296,-0.1296,-0.1296,-0.1296,-0.1296,-0.1296,-0.1296,-0.1296,-0.1296,-0.1296,-0.1296,-0.1296,-0.1296,-0.1296,-0.1296,-0.1296,-0.1296,-0.1296,-0.1296,-0.1296,-0.1296,-0.1296,-0.1296,-0.1296,-0.1296,-0.1296,-0.04,0.0,0.0,0.0,0.0,0.0,-0.0493,-0.0574,-0.065,-0.073,-0.0805,-0.0855,-0.0882,-0.091,-0.0898,-0.0898,-0.0898,-0.0898,-0.0898,-0.0898,-0.09,-0.0909,-0.091,-0.0913,-0.0922,-0.0923,-0.0923,-0.0923,-0.0913,-0.0926,-0.0926,-0.0976,-0.1002,-0.1,-0.1009,-0.1055,-0.1109,-0.1109,-0.1109,-0.1109,-0.1109,-0.1109,-0.1109,-0.1109,-0.1109,-0.1109,-0.1109,-0.1097,-0.1136,-0.1166,-0.1197,-0.1226,-0.1288,-0.1296,-0.1296,-0.1296,-0.1296,-0.1296,-0.1296,-0.1296,-0.1296,-0.1296,-0.1296,-0.1296,-0.1296,-0.1296,-0.1296,-0.1296,-0.1296,-0.1296,-0.1296,-0.1296,-0.1296,-0.1296,-0.1296,-0.1296,-0.1296,-0.1296,-0.1296,-0.1296,-0.1296,-0.1296,-0.1296,-0.1296,-0.1296,-0.1296,-0.1296,-0.1296,-0.1296,-0.1296,-0.1296,-0.1296,-0.1296,-0.1296,-0.1296,-0.1296,-0.1296,-0.1296,-0.1296,-0.1296,-0.1296,-0.1296,-0.1296,-0.1296,-0.1296,-0.1296,-0.1296,-0.1296,-0.1296,-0.1296,-0.1296,-0.1296,-0.0406,-0.0398,0.0,-0.0432,0.0,0.0,-0.0479,-0.0518,-0.0588,-0.0677,-0.0735,-0.0784,-0.0857,-0.0866,-0.0864,-0.0904,-0.0906,-0.091,-0.0896,-0.0898,-0.0898,-0.0898,-0.0898,-0.0898,-0.0898,-0.0898,-0.0898,-0.0898,-0.0914,-0.0895,-0.0895,-0.0923,-0.0984,-0.1014,-0.0995,-0.1047,-0.1109,-0.1109,-0.1109,-0.1109,-0.1109,-0.1109,-0.1109,-0.1109,-0.1109,-0.1109,-0.1109,-0.1086,-0.1104,-0.1135,-0.1173,-0.1215,-0.1284,-0.1296,-0.1296,-0.1296,-0.1296,-0.1296,-0.1296,-0.1296,-0.1296,-0.1296,-0.1296,-0.1296,-0.1296,-0.1296,-0.1296,-0.1296,-0.1296,-0.1296,-0.1296,-0.1296,-0.1296,-0.1296,-0.1296,-0.1296,-0.1296,-0.1296,-0.1296,-0.1296,-0.1021,-0.0864,-0.1218,-0.1296,-0.1296,-0.1296,-0.1296,-0.1296,-0.1296,-0.1296,-0.1296,-0.1296,-0.1296,-0.1296,-0.1296,-0.1296,-0.1296,-0.1296,-0.1296,-0.1296,-0.1296,-0.1296,-0.1296,-0.1296,-0.1296,-0.1296,-0.1296,-0.1296,-0.1296,-0.1296,-0.1296,-0.1296,-0.0424,-0.0421,0.0,-0.049,-0.0466,0.0,-0.0545,-0.0534,-0.0528,-0.0652,-0.0678,-0.0687,-0.0767,-0.0773,-0.0802,-0.0858,-0.0895,-0.0886,-0.0892,-0.0898,-0.0898,-0.0898,-0.0898,-0.0898,-0.0898,-0.0898,-0.0898,-0.0898,-0.0898,-0.0926,-0.0954,-0.0923,-0.0922,-0.0982,-0.0981,-0.1042,-0.1104,-0.1108,-0.1109,-0.1109,-0.1109,-0.1109,-0.1109,-0.1109,-0.1109,-0.1109,-0.1109,-0.1109,-0.1112,-0.1108,-0.1155,-0.121,-0.1279,-0.1293,-0.1296,-0.1296,-0.1296,-0.1296,-0.1296,-0.1296,-0.1296,-0.1296,-0.1296,-0.1296,-0.1296,-0.1296,-0.1296,-0.1296,-0.1296,-0.1296,-0.1296,-0.1296,-0.1296,-0.1296,-0.1296,-0.1296,-0.1296,-0.1296,-0.1257,-0.1178,-0.0589,-0.0393,-0.1178,-0.1296,-0.1296,-0.1296,-0.1296,-0.1296,-0.1296,-0.1296,-0.1296,-0.1296,-0.1296,-0.1296,-0.1296,-0.1296,-0.1296,-0.1296,-0.1296,-0.1296,-0.1296,-0.1296,-0.1296,-0.1296,-0.1296,-0.1296,-0.1296,-0.1296,-0.1296,-0.1296,-0.1296,-0.1296,-0.0502,-0.0522,-0.0543,-0.0517,-0.0526,0.0,-0.0453,-0.0476,-0.0512,-0.0528,-0.0535,-0.0553,-0.0625,-0.068,-0.0732,-0.074,-0.0785,-0.0834,-0.089,-0.0898,-0.0898,-0.0898,-0.0898,-0.0898,-0.0898,-0.0898,-0.0898,-0.0898,-0.0898,-0.0982,-0.1206,-0.1016,-0.092,-0.0921,-0.0982,-0.1012,-0.1009,-0.1065,-0.1109,-0.1109,-0.1109,-0.1109,-0.1109,-0.1109,-0.1109,-0.1109,-0.1109,-0.1109,-0.1112,-0.1108,-0.1142,-0.1215,-0.1209,-0.1236,-0.1296,-0.1296,-0.1296,-0.1296,-0.1296,-0.1296,-0.1296,-0.1296,-0.1296,-0.1296,-0.1296,-0.1296,-0.1296,-0.1296,-0.1296,-0.1296,-0.1296,-0.1296,-0.1296,-0.1296,-0.1296,-0.1296,-0.1296,-0.1296,-0.11,-0.0393,-0.0668,-0.11,-0.1257,-0.1296,-0.1296,-0.1296,-0.1296,-0.1296,-0.1296,-0.1296,-0.1296,-0.1296,-0.1296,-0.1296,-0.1296,-0.1296,-0.1296,-0.1296,-0.1296,-0.1296,-0.1296,-0.1296,-0.1296,-0.1296,-0.1296,-0.1296,-0.1296,-0.1296,-0.1296,-0.1296,-0.1296,-0.1296,-0.0562,-0.0567,-0.0602,-0.0609,-0.0594,0.0,0.0,-0.0532,-0.0513,-0.0595,-0.0571,-0.0579,-0.064,-0.0685,-0.0706,-0.0692,-0.0757,-0.0822,-0.0853,-0.087,-0.0898,-0.0898,-0.0898,-0.0898,-0.0898,-0.0898,-0.0898,-0.0898,-0.0898,-0.0954,-0.1094,-0.0982,-0.0911,-0.0913,-0.0973,-0.1003,-0.1001,-0.1061,-0.1109,-0.1109,-0.1109,-0.1109,-0.1109,-0.1109,-0.1109,-0.1109,-0.1109,-0.1109,-0.1111,-0.1092,-0.1125,-0.1206,-0.12,-0.123,-0.1296,-0.1296,-0.1296,-0.1296,-0.1296,-0.1296,-0.1296,-0.1296,-0.1296,-0.1296,-0.1296,-0.1296,-0.1296,-0.1296,-0.1296,-0.1296,-0.1296,-0.1296,-0.1296,-0.1296,-0.1296,-0.1178,-0.0746,-0.0668,-0.051,-0.0079,-0.0353,-0.0668,-0.0668,-0.0668,-0.0668,-0.0668,-0.0668,-0.0825,-0.1257,-0.1296,-0.1296,-0.1296,-0.1296,-0.1296,-0.1296,-0.1296,-0.1296,-0.1296,-0.1296,-0.1296,-0.1296,-0.1296,-0.1296,-0.1296,-0.1296,-0.1296,-0.1296,-0.1296,-0.1296,-0.1296,-0.1296,-0.1296,-0.0656,-0.0646,-0.0673,-0.0702,-0.0679,-0.0661,0.0,0.0,0.0,-0.0665,-0.0637,-0.0617,-0.0668,-0.0672,-0.0658,-0.0688,-0.0747,-0.0768,-0.0763,-0.081,-0.0866,-0.087,-0.0877,-0.0883,-0.0888,-0.0911,-0.094,-0.098,-0.0942,-0.0941,-0.0981,-0.0926,-0.0909,-0.0904,-0.0964,-0.0994,-0.0992,-0.1053,-0.107,-0.1109,-0.1109,-0.1109,-0.1109,-0.1109,-0.1109,-0.1109,-0.1109,-0.1109,-0.1109,-0.1109,-0.1143,-0.1197,-0.1191,-0.1225,-0.1296,-0.1296,-0.1296,-0.1296,-0.1296,-0.1296,-0.1296,-0.1296,-0.1296,-0.1296,-0.1296,-0.1296,-0.1296,-0.1296,-0.1296,-0.1296,-0.1296,-0.1296,-0.1296,-0.1296,-0.1296,-0.1061,-0.0196,0.0,0.0,0.0,0.0,0.0,0.0,0.0,0.0,0.0,0.0,-0.0314,-0.1178,-0.1296,-0.1296,-0.1296,-0.1296,-0.1296,-0.1296,-0.1296,-0.1296,-0.1296,-0.1296,-0.1296,-0.1296,-0.1296,-0.1296,-0.1296,-0.1296,-0.1296,-0.1296,-0.1296,-0.1296,-0.1296,-0.1296,-0.1296,-0.0795,-0.0831,-0.0834,-0.0733,-0.0792,-0.0813,-0.0642,0.0,-0.0658,-0.0627,0.0,-0.0604,-0.0611,0.0,0.0,-0.0594,-0.0667,-0.0696,-0.0627,-0.0678,-0.0748,-0.0798,-0.08,-0.0827,-0.0881,-0.1015,-0.1128,-0.1256,-0.1139,-0.113,-0.1258,-0.1038,-0.0899,-0.0902,-0.0903,-0.0932,-0.0993,-0.1023,-0.1051,-0.1109,-0.1109,-0.1109,-0.1109,-0.1109,-0.1109,-0.1109,-0.1109,-0.1109,-0.1109,-0.1109,-0.1095,-0.1129,-0.1159,-0.1244,-0.1296,-0.1296,-0.1296,-0.1296,-0.1296,-0.1296,-0.1296,-0.1296,-0.1296,-0.1296,-0.1296,-0.1296,-0.1296,-0.1296,-0.1296,-0.1296,-0.1296,-0.1296,-0.1296,-0.1296,-0.1296,-0.1061,-0.0196,0.0,0.0,0.0,0.0,0.0,0.0,0.0,0.0,0.0,0.0,-0.0314,-0.1178,-0.1296,-0.1296,-0.1296,-0.1296,-0.1296,-0.1296,-0.1296,-0.1296,-0.1296,-0.1296,-0.1296,-0.1296,-0.1296,-0.1296,-0.1296,-0.1296,-0.1296,-0.1296,-0.1296,-0.1296,-0.1296,-0.1296,-0.1296,-0.0815,-0.0816,-0.0817,-0.0779,-0.081,-0.081,-0.0744,-0.07,-0.0713,-0.0711,0.0,0.0,0.0,0.0,0.0,0.0,-0.0631,-0.0611,-0.0546,-0.0594,-0.0665,-0.0729,-0.0733,-0.0772,-0.0847,-0.0961,-0.1023,-0.1,-0.1078,-0.1084,-0.1059,-0.0971,-0.0898,-0.0898,-0.0898,-0.0928,-0.0988,-0.0987,-0.1048,-0.1109,-0.1109,-0.1109,-0.1109,-0.1109,-0.1109,-0.1109,-0.1109,-0.1109,-0.1109,-0.1109,-0.1093,-0.1124,-0.1191,-0.123,-0.1233,-0.129,-0.1296,-0.1296,-0.1296,-0.1296,-0.1296,-0.1296,-0.1296,-0.1296,-0.1296,-0.1296,-0.1296,-0.1296,-0.1296,-0.1296,-0.1296,-0.1296,-0.1296,-0.1296,-0.0904,-0.0432,-0.0079,0.0,0.0,0.0,0.0,0.0,0.0,0.0,0.0,0.0,0.0,-0.0314,-0.1178,-0.1296,-0.1296,-0.1296,-0.1296,-0.1296,-0.1296,-0.1296,-0.1296,-0.1296,-0.1296,-0.1296,-0.1296,-0.1296,-0.1296,-0.1296,-0.1296,-0.1296,-0.1296,-0.1296,-0.1296,-0.1296,-0.1296,-0.1296,-0.0838,-0.0832,-0.0827,-0.0811,-0.0791,-0.0796,-0.078,-0.0747,-0.0731,-0.0768,-0.0706,0.0,0.0,0.0,0.0,0.0,0.0,-0.0569,-0.0513,-0.0549,-0.0586,-0.064,-0.0755,-0.0885,-0.1034,-0.1096,-0.1069,-0.0939,-0.0999,-0.0993,-0.0902,-0.09,-0.0889,-0.0897,-0.089,-0.0919,-0.0988,-0.101,-0.1039,-0.1109,-0.1109,-0.1109,-0.1109,-0.1109,-0.1109,-0.1109,-0.1109,-0.1109,-0.1109,-0.1109,-0.1089,-0.1112,-0.1187,-0.1217,-0.1204,-0.1281,-0.1296,-0.1296,-0.1296,-0.1296,-0.1296,-0.1296,-0.1296,-0.1296,-0.1296,-0.1296,-0.1296,-0.1296,-0.1296,-0.1296,-0.1296,-0.1218,-0.1139,-0.0982,-0.0471,0.0,0.0,0.0,0.0,0.0,0.0,0.0,0.0,0.0,0.0,0.0,0.0,-0.0236,-0.0864,-0.0943,-0.0943,-0.0943,-0.0943,-0.0943,-0.0943,-0.0943,-0.0943,-0.0943,-0.0943,-0.0943,-0.0943,-0.1178,-0.1296,-0.1296,-0.1296,-0.1296,-0.1296,-0.1296,-0.1296,-0.1296,-0.1296,-0.1296,-0.0895,-0.0895,-0.0881,-0.0821,-0.0806,-0.0791,-0.0711,-0.0742,-0.0777,-0.0727,-0.0742,-0.0775,-0.0702,0.0,0.0,0.0,0.0,0.0,0.0,-0.0497,-0.0507,-0.0506,-0.0909,-0.1303,-0.1645,-0.1498,-0.1356,-0.13,-0.1044,-0.0912,-0.0899,-0.0907,-0.0894,-0.0896,-0.0898,-0.0928,-0.0988,-0.0989,-0.1018,-0.1109,-0.1109,-0.1109,-0.1109,-0.1109,-0.1109,-0.1109,-0.1109,-0.1109,-0.1109,-0.1109,-0.111,-0.1117,-0.1179,-0.1203,-0.1212,-0.1274,-0.1296,-0.1296,-0.1296,-0.1296,-0.1296,-0.1296,-0.1296,-0.1296,-0.1296,-0.1296,-0.1296,-0.1296,-0.1296,-0.1296,-0.1296,-0.1061,-0.0668,-0.0157,-0.0039,0.0,0.0,0.0,0.0,0.0,0.0,0.0,0.0,0.0,0.0,0.0,0.0,0.0,-0.0039,-0.0039,-0.0039,-0.0039,-0.0039,-0.0039,-0.0039,-0.0039,-0.0039,-0.0039,-0.0039,-0.0039,-0.0039,-0.0864,-0.1296,-0.1296,-0.1296,-0.1296,-0.1296,-0.1296,-0.1296,-0.1296,-0.1296,-0.1296,-0.0898,-0.0898,-0.0887,-0.0873,-0.0821,-0.0797,-0.0782,-0.0781,-0.078,-0.0703,-0.0742,-0.0777,-0.0702,0.0,0.0,0.0,0.0,0.0,0.0,-0.0693,-0.0976,-0.1383,-0.1363,-0.1328,-0.1313,-0.1367,-0.1234,-0.0858,-0.0907,-0.0921,-0.0844,-0.0887,-0.0887,-0.0897,-0.0898,-0.0927,-0.0988,-0.0988,-0.1049,-0.1109,-0.1109,-0.1109,-0.1109,-0.1109,-0.1109,-0.1109,-0.1109,-0.1109,-0.1109,-0.1109,-0.1087,-0.111,-0.1187,-0.1215,-0.1201,-0.1281,-0.1296,-0.1296,-0.1296,-0.1296,-0.1296,-0.1296,-0.1296,-0.1296,-0.1296,-0.1296,-0.1296,-0.1296,-0.1296,-0.1296,-0.1296,-0.0982,-0.0628,-0.0432,-0.0196,0.0,0.0,0.0,0.0,0.0,0.0,0.0,0.0,0.0,0.0,0.0,0.0,0.0,0.0,0.0,0.0,0.0,0.0,0.0,0.0,0.0,0.0,0.0,0.0,0.0,0.0,-0.0275,-0.0432,-0.0432,-0.0432,-0.0707,-0.1296,-0.0982,-0.0982,-0.1296,-0.1296,-0.1296,-0.0898,-0.0898,-0.089,-0.0886,-0.0864,-0.0838,-0.0798,-0.0796,-0.0796,-0.0742,-0.0773,-0.0783,-0.0752,0.0,0.0,0.0,0.0,0.0,0.0,-0.0951,-0.1345,-0.1909,-0.1787,-0.1594,-0.1462,-0.1464,-0.1275,-0.0819,-0.083,-0.0837,-0.081,-0.0838,-0.0875,-0.0897,-0.0898,-0.0922,-0.0971,-0.0983,-0.1013,-0.1061,-0.1104,-0.1109,-0.1109,-0.1109,-0.1109,-0.1109,-0.1109,-0.1109,-0.1109,-0.1109,-0.1093,-0.1124,-0.1191,-0.1185,-0.1215,-0.1285,-0.1296,-0.1296,-0.1296,-0.1296,-0.1296,-0.1296,-0.1296,-0.1296,-0.1296,-0.1296,-0.1296,-0.1296,-0.1218,-0.1178,-0.1257,-0.0904,-0.051,-0.051,-0.0275,0.0,0.0,0.0,0.0,0.0,0.0,0.0,0.0,0.0,0.0,0.0,0.0,0.0,0.0,0.0,0.0,0.0,0.0,0.0,0.0,0.0,0.0,0.0,0.0,0.0,0.0,0.0,0.0,0.0,0.0,-0.0275,-0.0825,-0.055,-0.0707,-0.1296,-0.1296,-0.1296]}]]